GFSMA_850_thetae_000.txt.gz
Theta_e
319 318 318 318 317 315 313 312 312 312 311 311 312 311 312 315 315 315 315 315 316 313 312 311 313 312 312 310 310 309 308 308 307 306 307 309 315 318 320 322 323 324 325
320 320 320 320 317 315 314 312 311 310 311 311 310 311 313 313 313 312 311 311 312 312 312 311 310 311 311 311 311 311 310 310 309 307 306 306 307 311 317 318 321 323 325
320 320 320 319 316 313 311 311 309 309 309 309 309 309 309 309 309 309 308 308 308 309 310 313 314 311 310 312 311 311 311 310 309 309 307 305 305 306 308 315 319 321 323
320 319 318 317 312 311 309 307 308 308 308 308 307 307 307 307 306 303 303 302 302 303 306 308 310 312 314 313 312 312 310 310 312 309 309 307 306 306 306 307 312 318 320
314 312 311 311 310 307 306 307 307 307 306 306 306 306 306 305 303 303 302 300 300 303 305 307 307 308 309 310 314 313 312 312 310 313 311 309 308 306 306 306 306 312 319
311 311 310 307 307 306 306 306 306 306 305 303 303 303 303 302 301 301 300 300 303 304 305 306 308 309 309 311 312 313 313 313 312 310 314 313 310 308 306 306 306 306 310
309 307 307 307 307 306 306 305 303 302 301 300 299 300 301 301 301 299 300 301 300 300 300 302 303 304 305 306 308 309 311 312 312 311 311 314 313 310 307 306 306 305 306
308 307 306 306 306 303 301 301 300 298 297 295 295 295 297 296 298 299 297 296 299 298 299 299 298 299 299 300 301 303 305 306 310 310 309 310 313 313 311 306 306 306 304
306 306 306 304 303 304 303 302 298 297 296 295 293 296 298 298 297 295 295 294 296 297 295 294 295 294 294 295 296 296 298 300 302 306 309 308 310 312 312 309 306 305 304
305 304 303 303 303 303 301 298 297 296 296 293 294 296 297 296 295 295 295 294 293 293 293 293 293 293 293 294 294 295 296 296 297 300 304 307 308 310 310 309 306 305 304
303 302 299 301 300 300 299 298 298 297 293 292 292 292 291 290 290 293 291 291 291 290 291 291 292 293 293 294 292 293 294 295 296 296 299 303 307 307 310 309 307 304 304
301 300 300 300 300 299 297 295 293 292 291 290 289 288 287 287 287 288 289 289 289 288 289 289 290 290 292 293 292 292 294 294 295 296 300 301 303 307 308 308 307 304 302
301 300 300 301 300 296 294 293 292 290 289 288 287 287 287 287 286 286 287 287 286 286 286 286 287 290 290 292 293 291 293 296 297 297 301 302 303 304 307 307 305 303 301
299 299 299 300 299 297 298 292 291 289 288 288 287 287 287 286 286 286 287 287 286 286 286 285 285 286 290 291 291 292 293 294 295 298 300 300 301 303 303 302 301 300 300
293 299 300 299 298 297 293 292 290 288 289 288 288 288 287 287 287 287 287 287 286 285 285 285 285 285 287 290 291 290 292 292 293 295 297 298 300 301 302 303 301 300 299
297 299 297 298 295 295 292 290 289 288 288 288 287 287 287 287 287 286 286 286 286 285 284 284 285 285 285 288 290 290 291 293 293 292 293 294 298 299 300 300 301 302 301
297 297 296 296 293 292 289 289 288 288 288 288 288 287 287 286 286 285 284 283 283 282 282 282 283 284 285 288 290 290 288 290 293 292 291 291 293 297 299 299 299 300 300
295 295 294 294 293 289 288 288 288 288 287 288 287 287 286 286 284 283 283 283 282 281 282 283 283 283 284 288 289 288 289 289 288 291 292 291 291 291 297 297 297 295 294
293 294 294 292 288 288 288 288 288 287 288 287 287 286 285 284 283 283 282 282 281 281 282 283 283 284 284 286 287 287 287 288 289 288 290 292 291 291 292 295 295 295 294
293 293 291 289 288 289 288 288 288 288 287 287 286 285 284 283 283 282 281 281 280 280 280 281 282 283 285 285 286 286 287 286 286 287 287 289 290 290 293 295 294 294 293
292 292 289 288 289 290 288 288 288 287 287 286 284 283 283 282 281 281 280 280 280 280 280 281 282 282 283 285 286 286 286 286 285 285 286 287 289 290 291 293 294 293 293
292 291 289 290 290 288 288 288 287 286 285 284 282 281 281 280 280 279 279 278 279 279 279 280 281 281 282 283 284 284 284 284 285 285 284 285 286 288 288 290 292 292 292
291 291 290 291 290 288 288 287 286 285 283 281 281 280 279 279 278 278 278 278 279 280 280 281 281 281 281 282 282 283 283 283 283 283 283 284 284 286 288 287 289 290 291
291 291 291 288 288 288 287 286 286 283 282 281 280 279 279 279 278 277 278 279 279 279 279 279 280 280 281 281 281 281 282 282 282 282 282 282 283 284 285 287 288 287 288
291 290 288 288 288 287 286 285 283 281 281 281 279 279 278 278 278 278 278 278 278 279 279 279 279 279 279 280 281 282 281 281 281 281 281 282 282 283 283 285 285 286 289
289 289 289 288 286 286 285 283 281 281 281 280 279 279 278 278 277 277 278 278 278 279 279 279 279 279 279 279 280 281 281 282 282 282 282 282 282 283 283 284 284 284 285

GFSMA_850_thetae_003.txt.gz
Theta_e
320 318 318 318 318 317 315 314 313 312 310 309 310 310 310 311 313 313 312 312 312 311 311 311 311 309 308 309 311 310 310 310 310 310 308 306 306 309 314 318 322 323 324
320 320 319 319 319 318 316 313 311 308 307 307 308 309 309 309 309 309 309 309 309 308 308 308 309 310 311 309 308 311 311 310 310 310 309 308 306 305 307 312 317 321 323
320 320 319 320 319 314 310 309 307 306 306 307 307 307 307 306 306 305 304 305 305 304 303 303 304 307 311 312 312 311 312 311 311 311 310 310 307 305 305 306 308 317 320
319 318 315 311 310 309 307 307 306 306 306 306 306 306 306 305 305 305 304 303 304 304 304 303 302 303 306 308 309 312 313 313 312 311 311 310 310 307 306 306 306 307 315
311 310 310 309 307 307 308 307 306 306 305 305 305 305 304 303 303 303 303 303 303 303 303 302 302 305 306 306 307 308 310 312 313 313 312 311 310 310 309 306 306 306 307
309 309 309 308 308 307 306 306 305 303 302 301 301 302 303 303 302 302 302 302 301 301 302 301 302 303 304 306 307 307 309 310 311 312 312 315 311 310 310 309 306 306 306
309 309 308 307 306 305 305 304 304 303 302 301 299 299 299 298 300 301 298 299 299 298 298 299 300 300 300 300 301 303 305 305 306 307 309 311 314 313 311 311 309 306 306
309 308 306 305 304 304 304 304 303 300 299 297 296 298 298 298 299 297 300 298 296 295 296 296 296 295 295 295 295 296 296 297 300 302 303 307 310 313 313 311 311 308 306
306 305 304 304 302 301 301 300 298 297 298 296 295 295 296 297 297 296 296 296 296 294 294 293 292 291 292 292 293 293 294 294 294 297 298 300 305 308 311 312 312 311 307
304 303 303 301 299 300 299 299 298 297 295 295 294 294 292 294 293 293 293 293 293 292 291 292 290 289 291 293 292 293 293 294 294 295 295 296 298 304 308 310 311 311 309
303 302 301 298 297 300 300 299 296 293 292 292 290 290 291 290 290 291 289 290 290 290 290 289 290 290 290 291 292 293 293 293 294 294 294 295 297 299 303 307 310 310 309
299 297 296 296 298 299 300 298 296 296 294 291 288 288 289 288 288 289 289 289 288 288 288 288 288 288 286 289 291 291 293 292 292 293 295 298 299 302 305 307 310 309 308
293 293 296 299 300 300 297 296 294 292 290 288 288 288 288 288 288 288 288 288 288 288 288 288 287 287 287 287 291 291 292 291 292 293 295 297 298 301 305 307 309 309 308
291 290 292 299 300 298 296 297 293 292 289 288 288 288 288 288 287 287 288 288 287 287 287 287 287 287 288 288 289 291 292 292 293 293 294 296 298 300 301 302 303 306 306
291 292 297 300 299 296 297 294 291 290 289 288 288 288 287 287 287 287 287 287 287 287 286 286 285 286 286 287 288 290 292 290 293 293 293 294 296 299 299 300 300 301 300
291 296 299 299 297 295 293 290 289 288 288 288 288 288 287 287 287 286 286 286 285 285 284 285 285 284 285 286 287 288 291 290 293 294 292 293 294 295 298 299 301 301 300
291 296 297 295 294 294 291 289 288 288 288 288 287 287 287 286 286 285 285 284 284 284 284 284 284 284 285 286 286 288 290 290 289 290 292 291 290 291 293 297 298 299 301
292 295 294 293 293 293 289 289 288 288 288 287 287 286 286 285 285 285 284 284 283 283 283 283 284 284 285 286 286 287 289 289 289 289 288 291 292 290 291 292 295 298 299
291 293 293 292 289 288 289 289 288 288 288 287 287 286 285 284 284 284 283 283 283 282 282 282 282 283 284 285 285 287 288 288 288 288 289 288 289 291 290 293 295 296 297
291 291 292 290 290 289 290 290 288 288 287 287 286 285 284 283 283 283 283 282 282 281 281 281 282 282 283 284 285 286 287 287 287 286 286 287 287 290 290 291 294 294 294
292 291 292 289 289 290 290 289 288 288 287 286 285 283 282 282 281 280 280 281 280 280 280 281 281 281 282 283 284 284 286 286 286 286 285 286 286 288 290 293 294 294 293
292 291 291 290 290 289 290 288 288 287 286 285 283 282 282 281 280 279 279 279 279 279 280 280 281 281 281 282 283 283 283 285 285 285 285 286 285 286 288 290 292 294 293
292 291 291 291 291 289 288 288 287 286 285 283 282 281 280 279 279 278 278 279 279 279 279 279 280 281 281 282 283 283 283 283 284 285 284 285 285 285 286 288 288 290 291
291 291 291 290 289 288 288 287 287 284 282 282 281 280 279 278 278 277 279 279 279 279 280 280 280 281 281 281 281 281 282 283 283 283 283 284 284 284 284 286 287 287 289
290 289 289 289 289 288 286 287 285 283 282 281 280 279 278 278 277 278 279 279 279 279 279 279 280 280 280 280 280 280 281 282 283 283 283 283 283 284 284 283 285 288 287
289 289 288 288 288 286 287 285 283 281 281 280 278 278 279 278 277 277 277 278 278 279 278 278 279 280 280 280 279 279 281 282 283 283 283 283 284 284 284 284 283 285 286

GFSMA_850_thetae_006.txt.gz
Theta_e
322 323 321 319 318 318 317 316 316 314 312 311 309 307 308 308 308 310 311 311 310 308 308 308 309 309 310 310 311 312 312 311 310 310 310 309 307 306 308 312 317 322 322
319 318 320 318 318 318 318 315 311 310 309 308 308 308 308 308 307 308 309 309 306 304 303 303 304 303 303 307 311 311 310 311 312 310 311 311 309 308 305 306 311 317 320
320 320 316 317 316 313 310 309 308 309 309 308 308 307 307 307 306 309 308 308 307 307 305 305 305 305 304 303 304 309 311 312 312 312 311 311 311 310 307 305 306 308 316
318 315 312 310 310 309 307 308 308 308 308 307 307 306 306 305 305 309 308 307 307 306 307 306 305 305 304 304 304 305 307 309 311 313 312 312 313 311 310 307 306 306 307
311 310 309 309 308 307 307 307 307 306 306 306 305 304 305 305 305 306 307 307 307 306 306 305 303 302 303 302 304 306 306 306 308 309 312 313 313 315 313 310 308 306 306
310 309 309 308 307 307 306 306 306 306 305 305 305 304 305 303 303 304 305 305 304 303 303 303 302 302 301 300 300 300 300 302 303 305 307 310 312 315 316 313 310 308 306
308 308 307 307 307 307 307 306 305 305 304 304 302 301 301 300 302 303 303 301 301 302 300 300 300 299 298 298 297 298 296 295 295 296 299 303 306 311 316 315 314 311 308
308 307 307 307 307 306 306 306 304 302 301 302 301 300 299 299 299 301 300 299 299 299 298 297 297 296 296 296 297 295 296 295 293 293 294 295 299 303 309 315 315 312 311
306 306 306 305 305 305 304 304 302 301 300 300 299 298 298 298 297 297 297 296 297 295 295 294 294 293 293 294 294 296 296 294 292 292 292 293 294 296 301 307 313 314 312
304 304 304 303 302 302 302 302 300 300 298 297 297 297 296 295 296 295 295 295 293 293 292 292 293 291 291 292 292 293 294 292 291 292 293 293 294 297 296 300 307 311 313
303 303 302 302 301 300 301 301 300 298 297 297 296 295 295 294 293 292 292 293 292 292 291 291 290 291 291 291 290 291 292 291 291 292 293 293 294 300 301 299 300 307 311
296 296 297 300 301 301 302 300 298 297 296 295 293 292 292 292 291 291 291 291 291 291 290 290 290 290 290 290 290 289 291 290 291 292 293 292 293 297 300 300 299 302 308
295 295 294 297 300 301 300 297 296 296 295 293 292 291 291 291 291 291 290 290 290 290 290 290 290 289 289 289 290 290 289 289 292 292 292 293 293 295 298 301 303 306 306
295 296 297 299 300 299 297 296 297 295 294 292 291 291 291 291 290 290 290 289 289 289 289 289 289 288 288 288 288 287 289 290 292 291 292 293 293 295 296 298 303 307 309
295 297 298 299 299 297 297 296 295 294 293 291 291 291 290 290 289 289 289 289 289 289 288 288 287 288 288 287 287 287 288 289 291 292 293 293 293 295 296 298 300 301 303
294 296 297 298 297 297 296 295 293 292 291 290 290 290 289 289 288 288 288 288 287 287 287 287 287 287 287 287 287 288 288 288 290 291 292 294 293 293 294 295 299 299 301
294 295 296 296 296 295 294 294 292 291 291 290 290 290 289 288 288 288 287 287 287 287 286 286 286 286 286 286 287 287 288 288 290 291 290 292 293 291 290 291 295 297 300
293 294 294 294 294 294 294 292 291 291 291 290 290 289 288 288 287 287 287 287 286 286 285 285 285 285 285 285 285 286 287 288 290 291 290 288 288 291 291 290 291 296 296
294 294 294 294 293 293 291 291 291 291 290 289 289 288 288 287 287 286 286 286 285 285 285 284 284 284 284 284 285 286 286 288 289 290 288 289 289 288 290 290 290 292 296
293 294 294 293 293 291 290 290 290 290 289 289 288 288 287 286 285 285 284 284 284 283 283 283 283 283 283 284 284 285 287 288 288 289 288 287 287 288 288 290 291 295 294
293 294 292 292 291 290 290 290 290 289 289 287 286 285 284 283 282 281 281 282 282 282 282 282 282 283 283 283 284 284 285 286 287 288 288 288 288 289 290 291 292 294 294
293 293 293 292 292 290 291 290 288 288 286 286 284 283 283 282 281 281 280 279 279 280 280 281 282 283 282 283 284 284 285 285 286 287 288 287 287 288 289 289 289 292 294
293 292 293 292 291 290 289 288 288 287 286 284 283 282 282 281 281 281 280 280 281 281 280 280 281 281 282 283 283 283 284 284 285 285 286 286 286 287 287 287 288 288 292
292 291 291 291 291 289 289 288 287 286 284 283 282 282 281 281 281 279 279 280 281 281 281 281 281 281 282 282 282 283 283 283 284 284 285 285 286 286 287 287 287 286 290
291 291 291 290 289 287 288 286 287 285 283 282 282 281 280 280 279 278 279 279 280 280 281 280 279 279 280 280 280 281 281 282 284 284 285 285 285 286 286 287 287 287 287
291 290 289 288 288 287 286 287 286 283 282 282 282 280 279 280 278 277 277 278 279 279 279 279 279 280 281 281 281 281 281 282 283 284 285 284 284 285 286 286 287 287 287

GFSMA_850_thetae_009.txt.gz
Theta_e
319 320 319 317 318 321 320 320 319 316 313 313 312 311 311 310 310 310 310 311 310 309 306 304 303 304 304 304 305 307 311 312 311 312 310 310 310 309 308 306 310 317 320
322 319 318 320 320 320 319 316 314 312 311 311 310 309 309 309 309 309 310 310 309 309 308 307 306 305 305 305 304 304 303 309 312 310 313 312 310 311 310 308 306 308 316
322 321 320 318 318 316 312 311 311 310 310 310 309 309 309 308 308 308 309 310 309 309 308 307 307 307 305 304 305 304 304 304 306 311 312 313 313 312 311 311 308 305 306
317 317 316 316 312 309 308 309 309 309 309 309 309 308 307 306 307 307 307 308 309 309 308 307 306 306 304 302 303 304 305 306 305 306 308 312 313 313 313 311 311 310 306
311 311 312 312 310 311 311 310 309 309 309 309 308 307 307 305 306 306 305 306 308 307 307 305 304 303 303 301 301 301 302 302 302 304 305 307 309 313 314 315 313 312 311
310 311 312 311 310 310 310 310 310 309 308 308 306 306 304 303 302 302 304 306 305 304 304 303 302 302 301 300 299 299 300 302 302 302 300 302 304 306 311 315 316 314 312
310 310 311 311 310 310 309 309 309 308 307 304 303 303 302 302 301 301 302 304 303 302 301 301 300 299 299 298 297 298 298 299 301 299 295 294 296 300 303 307 315 316 316
310 309 309 309 309 308 307 307 307 306 304 302 302 302 300 299 299 299 299 299 299 299 299 298 297 296 296 295 295 295 296 297 296 296 293 292 292 294 296 298 304 312 316
309 308 308 307 307 306 304 303 304 304 302 301 300 299 299 299 298 297 297 297 297 297 297 296 295 294 295 294 293 293 293 293 293 292 292 293 294 292 293 294 296 301 310
306 304 303 303 303 304 303 302 303 302 301 300 299 299 298 298 297 296 295 295 295 295 295 294 293 293 292 293 292 292 291 291 290 291 289 290 293 296 293 293 294 295 300
299 298 298 298 299 302 303 303 303 302 300 299 298 297 296 295 294 294 294 294 294 294 293 293 293 292 292 292 292 292 291 290 290 290 289 290 291 294 297 298 296 296 298
298 298 298 298 299 300 302 302 302 300 299 298 296 295 294 293 293 293 293 293 293 293 292 292 292 292 291 291 291 290 290 291 290 289 291 292 292 293 297 298 299 302 303
297 297 298 299 300 300 301 300 299 298 298 296 295 294 293 293 293 292 292 292 292 291 291 291 291 291 290 290 290 289 289 289 289 290 290 291 292 293 293 293 295 300 303
297 297 298 300 300 300 299 298 298 297 297 295 294 294 293 292 292 292 291 291 291 290 291 291 290 290 289 289 289 289 288 289 288 289 289 290 292 293 293 293 294 296 300
296 296 297 299 299 299 298 298 297 296 295 294 293 293 292 292 291 291 290 290 290 290 290 289 289 289 289 288 288 288 288 289 289 288 289 289 290 293 293 294 295 296 297
296 296 296 297 298 298 298 296 296 295 294 293 292 292 292 291 291 290 290 290 289 289 289 289 289 288 288 288 288 287 287 288 288 289 288 289 291 292 293 292 293 294 298
295 295 295 296 296 296 296 295 295 295 293 293 292 292 291 291 290 290 289 289 288 288 289 288 288 287 287 287 286 286 286 287 288 289 290 291 290 291 293 291 290 291 295
295 295 295 295 295 295 294 294 293 293 292 292 292 291 290 290 289 289 288 288 288 288 287 287 286 286 286 286 285 285 286 287 287 288 289 290 289 290 292 291 290 290 290
295 295 295 295 294 294 294 294 292 292 292 292 291 291 290 289 288 287 287 287 286 286 286 285 285 285 284 284 285 285 285 287 287 288 289 289 288 289 289 289 290 289 290
294 295 295 294 294 293 292 292 292 291 291 291 291 289 288 287 286 285 284 284 284 284 284 284 284 284 284 284 284 285 285 286 287 288 289 290 288 288 289 289 290 290 290
294 294 294 294 294 293 292 290 291 291 290 289 288 287 286 285 284 283 282 282 282 282 282 282 282 282 283 284 284 284 285 285 286 286 287 290 289 289 291 291 291 290 291
294 294 294 294 294 293 292 290 289 288 288 288 287 286 285 284 284 282 282 281 281 281 281 282 282 282 282 283 283 284 284 285 285 286 286 288 289 289 289 290 289 289 289
294 294 293 293 294 293 292 289 288 288 287 287 286 285 284 284 283 283 282 281 281 281 282 282 282 282 283 283 283 283 284 284 285 285 286 286 287 288 288 289 288 288 288
294 293 293 292 292 292 291 289 288 287 287 286 285 284 284 283 282 282 279 280 281 281 282 282 282 281 281 281 281 281 282 283 283 284 285 285 286 286 288 288 288 287 287
294 293 293 292 291 291 290 288 287 287 286 285 284 284 283 281 281 279 280 280 280 281 281 280 280 280 280 280 280 281 281 282 282 283 285 285 286 286 287 286 287 287 287
293 293 292 291 290 289 288 288 287 287 285 284 284 283 282 281 280 278 278 277 279 280 278 278 279 280 281 282 282 282 282 282 283 283 284 285 286 286 286 286 287 286 287

GFSMA_850_thetae_012.txt.gz
Theta_e
320 320 320 319 320 320 320 320 318 317 315 311 310 310 309 309 309 309 309 309 311 310 309 308 308 307 307 306 305 305 304 304 305 312 314 315 312 310 310 310 308 306 311
325 323 320 319 317 314 317 318 315 310 310 310 310 310 309 309 308 308 308 308 310 310 309 309 308 307 307 306 305 304 304 304 303 304 309 313 315 314 311 312 311 309 306
323 322 320 317 315 313 316 310 309 309 310 309 309 309 308 308 307 306 307 307 308 309 310 309 308 307 306 305 304 302 302 304 305 303 304 306 311 314 314 314 314 312 309
317 317 313 311 311 311 311 311 310 310 310 309 309 308 308 307 307 305 306 306 305 306 308 308 306 304 303 303 302 302 303 303 303 302 304 305 305 307 312 313 314 315 313
310 310 313 312 311 310 311 310 311 310 309 308 308 307 306 306 304 303 303 302 304 307 306 304 304 304 302 301 301 300 301 302 303 303 303 301 302 304 305 309 313 315 316
310 310 312 311 311 311 310 310 309 309 308 308 307 304 303 303 302 301 302 302 303 304 304 302 301 301 300 299 298 298 300 299 300 302 302 301 297 298 299 300 305 312 316
311 310 310 310 310 310 309 308 306 307 307 306 303 302 301 301 301 300 300 299 299 299 299 299 299 298 297 296 296 296 296 297 299 299 298 298 297 294 294 294 295 302 309
310 309 308 308 307 307 306 305 304 303 303 304 302 300 300 300 300 299 298 297 297 297 297 297 297 296 295 294 294 294 295 294 293 295 295 296 296 296 292 293 294 294 298
309 307 306 304 304 302 304 304 303 303 304 303 301 300 299 299 298 297 296 296 295 295 295 295 295 294 293 293 292 293 292 292 292 291 293 293 294 295 296 294 293 297 294
304 302 299 298 298 299 301 302 303 303 303 302 300 299 299 297 296 295 295 294 294 293 293 293 293 293 292 292 292 292 292 292 291 291 291 292 293 295 295 297 297 297 300
298 298 298 297 295 295 296 300 302 303 302 300 300 298 296 295 294 293 293 293 292 292 292 293 292 292 291 292 291 291 291 290 290 290 290 291 292 293 294 296 298 299 300
298 297 297 295 296 298 300 301 302 302 301 299 299 297 295 294 293 293 293 293 292 292 292 291 291 291 291 291 290 290 290 289 289 289 289 290 292 292 293 295 297 298 299
297 297 295 295 295 300 301 301 301 299 297 297 297 295 294 293 293 293 292 292 292 291 291 290 291 291 290 289 289 289 289 289 288 288 289 290 290 291 291 293 296 296 297
295 295 295 294 298 300 300 297 297 297 296 296 295 294 294 293 292 292 291 291 290 290 290 291 290 289 289 289 289 288 288 288 288 288 288 288 289 288 289 291 293 293 293
295 295 294 295 298 299 297 297 296 297 296 296 295 294 292 292 292 292 291 290 290 290 290 290 289 289 289 288 288 288 287 287 287 287 287 288 289 288 289 290 293 293 294
294 294 295 295 296 297 298 297 296 296 295 295 294 293 292 292 292 291 290 290 289 289 289 289 289 289 288 288 287 286 286 286 285 286 286 288 289 289 290 291 291 293 292
294 295 295 295 295 296 295 295 295 294 294 294 293 293 292 291 290 290 289 289 288 288 288 288 287 287 286 286 285 285 285 285 285 286 287 287 288 289 290 290 291 293 290
295 295 295 295 295 295 295 294 294 294 293 293 293 292 291 291 290 289 288 287 288 287 287 286 286 285 285 284 284 284 284 285 285 285 286 287 288 288 289 289 289 291 291
295 295 295 295 295 295 294 294 293 292 292 292 292 291 290 289 288 287 287 286 286 284 284 284 284 284 283 283 283 284 284 284 285 286 286 287 288 289 289 289 289 289 290
295 294 295 295 295 294 293 292 292 292 292 292 291 290 289 287 287 286 285 284 283 282 282 282 282 282 282 282 282 283 283 283 284 284 285 286 287 288 288 288 289 289 290
295 294 294 294 295 294 294 293 292 290 289 289 288 288 288 287 286 285 284 283 283 282 281 281 281 281 282 282 282 283 283 283 284 284 285 286 286 288 288 289 290 290 289
295 295 294 294 294 294 294 293 292 289 287 288 288 287 287 285 285 284 283 283 282 281 281 281 281 282 282 282 283 282 282 282 283 284 284 284 285 288 289 289 289 289 288
295 295 294 294 293 293 293 293 291 288 288 288 287 286 285 285 284 284 283 282 280 281 281 281 282 282 282 281 281 281 280 280 281 282 282 283 284 285 287 288 288 288 288
294 295 294 294 293 293 292 292 291 289 288 287 286 285 285 284 284 282 281 279 279 280 281 281 281 280 280 280 280 280 280 280 281 281 281 282 284 285 285 286 287 287 287
294 294 294 294 293 292 291 291 290 288 287 286 285 284 284 284 282 282 280 279 279 279 280 280 278 279 279 280 281 282 281 281 281 281 282 283 284 284 285 286 286 285 285
293 294 294 293 292 291 290 289 289 287 287 286 284 283 283 283 283 282 280 279 279 279 278 279 279 280 280 281 282 282 283 282 282 282 282 283 284 285 285 285 286 287 287

GFSMA_850_thetae_015.txt.gz
Theta_e
322 319 320 320 319 319 318 318 319 318 315 310 309 309 309 309 308 307 307 308 307 307 308 309 309 308 308 307 307 306 305 304 303 304 304 306 312 314 315 313 312 311 309
323 323 322 320 318 315 313 314 315 310 309 309 309 308 308 308 308 307 307 306 307 307 307 309 308 308 307 306 306 305 305 304 301 302 304 305 305 309 314 314 313 312 312
323 322 321 318 312 311 311 310 310 310 309 309 308 308 307 308 307 307 306 305 303 303 304 309 308 306 306 304 304 304 303 303 303 303 302 304 304 304 305 312 314 313 312
318 314 311 310 310 310 309 310 310 310 310 309 306 307 306 305 305 306 304 303 302 305 305 306 305 304 302 302 302 302 302 303 303 303 303 303 303 302 302 304 308 312 314
309 310 311 311 311 310 310 310 310 310 308 307 308 307 305 303 303 301 301 302 303 302 299 301 301 301 301 301 300 300 301 300 299 301 302 302 302 300 299 299 301 303 307
310 310 311 310 310 310 310 309 309 305 305 306 306 305 302 301 301 300 300 300 300 299 298 298 298 298 298 298 298 297 297 297 298 299 299 299 299 298 298 297 297 296 299
311 310 309 309 307 305 305 305 303 304 304 302 302 303 302 300 300 300 299 299 298 297 297 296 295 296 296 295 295 294 294 296 296 296 296 296 296 296 297 297 298 299 296
310 308 307 305 304 303 301 301 302 302 301 302 303 303 300 299 299 299 299 299 296 295 295 294 294 294 293 293 293 292 292 293 293 293 294 294 294 294 295 296 297 298 299
309 306 303 301 299 299 299 299 300 301 303 303 302 301 299 298 297 297 295 295 294 294 294 293 293 293 292 292 292 292 292 292 291 292 292 292 293 293 294 295 296 297 299
304 301 298 297 296 295 294 295 297 300 302 302 302 301 299 298 295 294 293 293 293 293 292 292 292 292 292 291 292 291 291 291 290 290 291 291 292 292 293 294 295 296 298
301 298 297 296 295 294 295 297 300 302 303 302 301 299 298 298 295 294 293 293 292 292 292 292 291 291 291 291 291 290 290 289 289 289 290 290 291 291 292 294 294 295 297
300 296 295 295 294 294 298 300 301 302 301 300 297 296 297 294 294 293 292 292 291 291 290 290 291 290 290 290 289 289 289 289 289 288 288 289 290 290 290 292 292 293 295
296 295 295 294 293 296 299 300 299 297 297 296 295 295 295 294 293 293 292 291 291 290 290 290 290 290 290 289 289 289 289 289 288 288 288 288 288 289 289 290 291 292 295
295 294 294 293 294 298 299 300 297 296 295 296 296 295 295 294 292 292 292 291 291 290 290 290 289 289 289 289 289 289 288 288 287 287 287 286 286 287 288 290 290 291 293
294 294 293 292 293 297 297 298 298 296 296 296 295 295 294 292 292 292 291 291 290 289 289 289 289 288 288 288 288 288 288 287 286 285 285 284 286 288 289 289 290 290 290
294 293 293 294 294 293 295 296 296 296 295 294 295 294 294 293 292 291 290 290 289 289 288 288 288 287 287 287 287 286 285 284 284 284 285 285 286 287 288 288 289 289 290
295 293 294 294 294 294 295 295 295 295 294 293 293 293 293 292 291 291 290 289 288 288 287 287 287 286 285 285 284 284 283 284 284 284 284 285 286 286 287 288 288 289 289
296 294 294 293 294 295 295 295 294 293 293 293 293 292 291 291 290 289 288 287 286 286 285 284 283 283 283 283 282 282 282 282 283 284 285 285 286 286 287 288 288 289 289
296 295 294 293 295 295 295 293 293 293 292 292 292 292 291 289 288 287 287 286 285 284 283 282 282 281 281 281 281 281 281 282 282 283 283 284 285 286 286 286 289 289 289
297 296 294 294 294 295 295 294 293 293 292 291 289 290 289 288 288 287 286 285 284 283 283 281 280 281 281 281 282 282 282 282 282 282 283 284 285 285 286 288 288 288 288
296 296 294 294 294 294 294 294 293 293 293 292 287 287 287 287 287 286 285 284 284 283 282 280 280 281 281 281 282 282 281 281 281 281 281 283 283 284 285 288 288 289 289
295 295 295 295 294 294 294 293 293 293 292 288 288 288 287 286 286 285 284 284 283 282 280 280 281 281 281 281 281 281 280 279 280 280 280 281 282 283 284 288 289 288 287
295 295 295 294 294 294 293 293 292 292 291 290 288 287 286 286 285 284 284 283 281 279 279 280 280 281 281 280 280 280 280 280 280 281 281 281 281 282 283 285 286 288 287
295 294 294 294 294 294 293 293 292 291 290 289 288 287 285 284 284 284 283 282 280 280 279 279 280 280 279 279 280 280 281 281 281 282 281 282 281 282 283 284 285 286 286
293 293 293 294 294 294 293 292 291 290 289 288 287 286 284 284 284 283 283 282 280 280 280 280 279 279 279 280 280 281 282 282 282 282 282 282 282 282 284 284 284 285 286
293 293 293 293 293 293 293 292 291 289 288 287 286 285 283 283 283 283 282 281 280 281 280 280 280 279 279 280 281 280 281 281 281 282 282 282 282 283 283 285 286 286 286

GFSMA_850_thetae_018.txt.gz
Theta_e
324 320 321 320 320 319 318 316 315 317 315 311 309 309 308 308 308 308 307 306 306 306 306 306 307 308 307 307 307 307 306 306 305 304 302 301 303 305 310 313 314 312 312
323 320 321 321 319 316 313 311 312 310 309 309 309 308 305 306 307 307 307 307 305 305 303 306 307 307 306 306 306 306 305 305 304 303 301 300 300 301 303 306 311 313 313
321 321 321 318 313 310 309 310 309 309 309 309 309 309 305 307 306 306 306 305 304 303 306 307 306 305 304 305 304 304 303 304 303 303 302 302 301 300 298 300 303 306 311
319 317 316 311 310 310 310 309 309 309 309 310 306 305 306 305 304 303 302 301 302 303 304 305 303 302 302 302 302 302 302 302 301 301 302 302 301 298 296 295 297 300 303
311 309 310 310 310 309 309 308 309 309 309 304 304 305 306 303 302 301 301 300 299 298 298 303 302 299 298 297 297 298 299 299 299 300 299 298 296 295 297 298 298 296 297
310 311 310 310 309 308 308 308 306 304 300 302 302 302 302 302 301 300 299 299 298 297 296 296 296 295 295 295 295 296 297 297 298 297 295 294 294 297 297 297 297 299 298
311 310 310 310 307 303 301 300 299 299 300 299 300 302 303 302 300 299 299 298 298 297 295 294 294 293 293 293 293 293 294 295 295 295 294 295 295 295 295 295 296 297 298
311 310 309 307 303 300 299 298 298 298 299 301 302 302 301 300 299 298 297 296 296 295 294 294 293 292 292 292 291 292 293 293 293 293 293 293 293 293 294 294 295 296 297
311 310 307 303 300 297 296 296 295 297 299 302 302 302 300 298 298 297 295 294 294 294 292 292 291 292 291 291 291 291 291 291 291 290 292 292 292 293 293 293 294 294 296
308 308 303 298 297 296 295 294 295 296 299 302 302 301 300 299 298 296 295 294 292 292 291 291 291 291 291 291 291 290 290 289 290 290 290 291 292 292 292 292 292 294 295
307 304 299 297 296 295 294 294 296 299 301 301 301 300 298 296 296 295 294 292 291 291 290 290 289 288 289 290 290 289 289 289 289 289 289 290 290 290 291 291 291 292 294
306 301 297 295 294 294 293 296 298 300 298 296 297 295 295 295 295 293 293 292 292 291 291 290 290 289 289 289 290 289 288 289 289 288 288 288 289 289 289 290 290 291 292
300 296 295 294 294 293 294 297 298 299 296 295 295 295 295 294 294 294 293 292 292 291 291 290 289 288 288 288 288 289 289 289 289 288 288 288 287 287 287 288 289 290 292
297 295 294 294 293 293 295 297 299 297 297 295 295 295 295 295 294 293 292 291 291 291 290 289 288 288 288 288 288 288 288 288 287 287 286 285 285 286 287 288 289 290 291
296 299 295 293 293 293 294 295 297 297 295 296 295 294 294 294 293 292 292 291 291 290 289 288 288 288 287 287 287 286 286 285 284 284 284 284 285 286 287 288 289 290 290
297 295 294 293 292 292 292 293 295 295 295 294 294 294 293 293 293 293 291 291 290 289 288 287 286 286 285 284 283 283 283 283 283 283 283 283 285 285 286 287 287 287 289
299 295 294 293 292 291 293 294 295 295 294 294 293 293 293 292 292 291 291 290 288 287 286 286 285 283 283 282 282 282 282 281 282 282 283 284 284 284 285 286 286 287 288
298 296 295 294 292 292 294 295 295 294 292 293 293 292 292 291 291 289 288 287 286 286 285 284 283 282 281 281 281 281 281 281 281 282 282 282 282 284 284 285 285 286 287
298 297 296 294 293 293 294 295 295 294 293 292 292 291 290 289 289 288 287 287 286 285 284 283 282 281 281 281 281 281 281 281 282 282 281 282 283 284 284 284 285 286 287
298 297 296 295 294 294 294 295 294 294 293 293 292 291 291 287 286 287 286 285 284 284 283 282 281 280 281 281 281 281 281 281 280 280 280 281 281 282 283 283 285 287 288
297 296 295 295 295 294 294 294 294 293 293 293 292 291 288 287 287 286 285 285 284 284 283 281 279 279 280 280 280 280 280 280 280 280 281 281 280 282 283 283 284 288 288
295 295 296 295 295 294 294 294 294 293 293 293 292 290 289 288 287 285 284 284 283 283 281 279 279 279 280 280 280 279 279 279 280 281 281 281 281 281 282 282 284 286 288
299 295 294 295 295 294 295 294 293 293 293 292 291 290 288 287 286 284 284 283 283 282 280 279 279 279 279 279 279 279 280 281 281 282 282 282 282 282 282 282 284 285 286
295 294 294 294 293 294 294 294 293 293 292 291 290 289 287 286 285 284 283 283 282 282 280 281 280 280 279 278 279 280 281 281 281 281 281 282 282 282 282 283 284 285 286
294 294 293 293 293 293 294 293 293 292 291 290 289 287 286 284 284 283 283 282 282 281 281 280 280 279 278 279 280 280 280 280 280 281 282 282 283 283 282 284 285 285 285
293 293 293 293 292 292 293 293 292 292 291 289 287 287 286 284 283 283 282 282 281 281 281 280 280 280 279 279 278 279 279 280 280 281 282 282 283 283 282 283 283 285 285

GFSMA_850_thetae_021.txt.gz
Theta_e
324 324 323 323 322 320 319 317 315 315 313 309 309 309 308 304 304 306 307 307 306 305 305 307 308 310 308 307 306 306 306 306 305 305 305 304 303 301 300 301 302 307 311
324 321 320 319 319 318 315 312 311 310 309 309 309 308 307 305 306 306 306 306 306 304 304 308 309 308 308 307 306 304 303 304 304 303 303 302 302 302 302 300 297 298 301
323 321 322 320 318 311 309 310 309 309 309 309 309 308 304 305 305 303 303 302 301 303 305 307 305 306 305 305 303 303 304 302 301 302 302 303 301 300 299 299 298 297 296
322 321 319 317 310 310 310 309 308 308 309 308 303 304 306 305 303 302 301 301 300 302 305 304 304 302 301 300 299 300 301 300 301 301 302 301 299 298 296 296 295 295 295
317 313 310 310 310 309 309 307 307 306 304 301 302 302 302 302 301 301 300 300 299 299 298 299 300 298 296 295 297 298 298 299 299 300 299 298 296 295 294 295 297 298 298
310 310 310 309 309 308 306 303 301 300 298 298 298 298 301 302 302 301 300 299 298 298 298 297 295 294 294 294 294 295 296 296 297 297 296 296 296 296 294 296 296 297 297
310 311 310 310 308 307 304 301 298 298 297 297 296 299 301 301 300 299 299 298 297 297 296 294 294 293 292 292 292 292 294 295 295 295 295 295 295 294 294 295 295 295 296
311 311 310 309 310 309 305 300 298 297 296 296 297 299 301 300 299 299 298 298 296 295 294 294 292 291 291 291 291 291 291 292 293 293 293 293 293 294 293 294 294 294 295
311 310 309 310 308 304 299 297 296 295 295 296 298 300 301 299 299 299 297 296 295 294 293 291 290 290 291 291 291 290 290 290 290 291 291 292 292 293 293 293 293 294 294
311 309 308 307 305 301 297 295 295 295 296 299 301 301 300 299 298 296 296 295 294 291 291 290 290 289 288 288 289 289 289 289 289 289 290 291 291 292 292 292 292 292 293
311 307 306 303 299 296 295 294 295 297 299 299 298 298 297 296 295 295 294 293 293 292 291 290 290 289 289 289 288 288 289 289 289 289 289 290 290 290 291 291 291 291 291
310 305 302 298 295 295 299 294 296 297 298 298 295 295 295 295 294 294 294 293 293 292 291 291 291 289 288 288 287 288 288 288 288 288 288 288 289 289 289 289 289 289 291
306 303 298 295 301 306 295 295 296 298 297 296 296 294 294 295 294 294 293 293 292 291 291 291 291 289 289 288 288 287 287 287 288 287 287 287 287 286 286 287 288 289 290
303 298 295 304 301 293 293 294 295 296 297 296 295 295 294 294 294 294 294 292 292 291 291 290 289 289 288 287 286 286 286 286 285 285 284 284 284 286 286 287 288 289 289
301 297 305 305 293 293 292 292 293 295 295 295 294 294 293 294 293 293 293 292 292 291 290 289 288 286 285 284 283 283 283 283 283 283 282 283 285 285 286 287 287 288 288
300 305 299 295 296 293 292 295 293 294 294 294 293 293 293 293 293 292 292 292 291 290 288 287 286 285 283 283 282 282 282 282 282 281 281 282 284 285 285 285 286 286 287
302 300 297 297 295 295 294 292 294 294 295 294 293 292 292 292 292 291 291 290 289 287 286 286 285 283 282 282 282 282 282 281 281 281 281 282 282 282 283 283 284 284 285
300 300 296 297 295 293 293 293 293 294 294 293 292 292 292 292 291 290 289 288 287 286 285 284 284 283 282 281 281 282 282 281 281 281 281 281 281 281 282 284 284 284 284
301 298 297 295 295 296 294 293 294 294 294 294 292 292 292 291 291 287 286 287 286 285 284 284 283 282 281 280 281 281 281 281 281 280 280 280 281 281 281 282 283 283 284
301 298 297 296 296 295 294 294 294 294 294 294 293 293 292 291 288 288 287 287 285 284 284 283 282 281 280 281 280 280 281 280 279 280 281 281 281 281 281 281 282 283 283
298 297 296 299 295 295 295 294 294 294 294 294 293 293 292 290 289 288 287 286 284 284 283 282 281 280 280 280 280 279 279 280 280 281 281 282 282 281 281 281 282 282 284
296 295 298 298 295 295 295 295 295 294 294 294 293 293 292 290 289 287 286 285 284 283 283 282 281 280 280 280 279 279 279 279 280 281 281 281 282 282 282 282 282 282 285
296 297 300 295 294 294 294 293 294 294 294 293 293 292 291 290 288 286 286 284 283 283 282 281 280 280 280 279 279 278 279 280 280 280 280 281 282 283 282 282 283 283 285
298 300 299 294 294 293 293 293 293 294 293 293 292 292 290 289 287 285 284 283 283 282 282 281 280 280 280 279 278 278 279 280 280 280 280 281 282 283 283 282 284 285 285
300 298 294 293 293 292 292 292 293 293 293 292 292 291 289 287 286 284 283 283 282 282 281 281 280 280 279 279 279 278 278 279 279 280 281 281 282 282 283 283 284 284 285
298 294 293 291 290 290 290 290 292 292 292 292 291 290 288 286 285 285 283 283 282 281 281 281 280 280 279 279 279 278 278 278 279 280 280 281 282 282 283 283 284 283 284

GFSMA_850_thetae_024.txt.gz
Theta_e
323 323 323 323 322 321 320 318 314 313 311 309 309 308 308 306 303 303 305 306 306 305 307 308 309 309 308 307 306 305 304 305 303 303 302 302 302 302 300 301 301 300 299
325 324 323 321 319 319 316 313 310 309 309 309 308 308 307 302 302 302 301 301 302 302 303 307 308 308 308 307 305 304 305 304 304 303 304 304 302 301 299 299 299 299 299
325 322 319 319 320 317 310 310 309 308 308 308 308 304 301 302 301 300 300 300 300 300 301 306 307 306 305 303 303 303 303 303 302 301 301 302 302 301 299 297 295 295 296
324 322 321 320 317 310 310 309 308 307 306 304 300 301 301 301 301 301 301 300 299 299 302 304 304 303 302 299 298 299 300 300 300 300 301 300 300 299 298 298 297 297 296
322 321 319 313 310 310 309 307 305 301 300 299 299 300 300 301 301 301 300 299 298 298 298 297 297 296 295 295 295 297 297 298 298 299 299 298 297 297 297 296 296 297 297
321 316 310 310 309 308 306 303 300 299 298 298 298 298 300 301 301 300 299 298 298 297 296 296 296 295 294 293 292 292 295 296 297 297 297 297 297 296 295 295 295 295 296
316 310 310 309 308 305 303 301 299 297 297 296 297 299 300 300 300 299 299 298 297 297 295 294 294 293 291 291 291 291 293 294 294 295 295 295 294 294 294 295 295 295 295
310 310 310 308 306 304 302 299 297 297 296 296 296 298 300 299 299 299 298 298 297 296 294 294 293 290 290 290 290 290 290 291 292 292 292 293 293 293 294 294 294 294 294
310 310 309 308 305 302 300 298 298 298 297 296 297 298 300 300 299 299 298 297 296 295 294 292 290 289 289 288 288 288 288 288 289 291 291 291 292 292 293 293 293 293 293
310 310 310 307 305 303 299 297 299 303 296 296 298 298 298 299 298 297 296 294 294 293 293 292 290 290 289 289 288 288 288 287 287 289 290 291 291 291 292 292 292 293 293
310 310 309 305 304 301 297 304 309 305 296 296 297 295 294 294 294 294 294 294 293 293 293 292 291 291 291 289 289 289 288 288 287 287 288 289 290 290 291 291 291 291 291
311 310 308 305 303 298 300 308 307 295 294 295 295 295 294 293 294 294 294 294 293 293 292 292 291 291 291 290 289 288 288 287 287 287 287 287 288 289 289 289 289 289 290
311 310 306 301 297 302 306 303 296 295 294 293 295 295 294 294 293 294 294 294 293 292 292 292 291 290 289 289 287 286 285 285 285 285 285 285 286 286 286 287 288 288 289
312 309 306 311 303 306 308 301 296 292 295 295 295 294 294 294 293 293 293 293 292 292 292 291 290 289 287 286 285 284 283 283 283 283 283 283 283 284 286 286 287 288 288
310 308 305 305 304 305 305 294 295 295 295 295 294 293 294 293 293 293 292 292 292 292 291 290 288 287 286 284 283 283 282 282 282 282 282 282 282 284 285 286 286 287 287
309 303 303 301 302 299 294 296 294 293 294 294 294 292 292 292 292 292 292 291 290 290 290 288 286 286 284 283 282 281 281 282 282 281 281 281 282 283 283 283 284 285 286
309 305 301 301 298 295 296 293 297 293 294 294 293 291 291 292 292 292 291 290 289 289 287 286 285 284 283 283 281 281 281 281 281 281 281 281 281 281 281 281 282 284 285
305 301 300 299 296 294 295 299 293 293 293 293 293 293 292 292 292 292 291 288 287 286 286 285 284 284 283 282 281 281 281 281 281 281 280 280 280 280 281 281 281 282 283
302 300 299 297 296 297 299 294 294 294 294 294 294 294 293 292 292 291 289 288 287 287 285 284 284 283 282 281 281 281 281 281 280 280 280 281 281 281 281 281 281 281 281
301 300 298 297 296 298 298 295 294 294 294 294 294 294 293 293 292 291 288 288 287 286 285 284 283 282 281 281 280 280 281 280 280 280 281 281 281 281 281 282 281 281 281
299 299 297 296 298 300 296 295 295 295 294 294 294 294 294 293 292 291 289 288 287 286 284 283 283 282 281 280 280 280 279 279 280 281 280 281 281 282 282 282 282 281 281
298 297 296 297 298 300 296 295 295 295 294 294 294 294 293 293 292 290 289 288 286 285 283 283 282 282 280 280 280 279 279 279 279 280 280 281 281 282 282 283 282 282 282
297 296 297 297 299 298 295 294 293 294 293 293 294 294 293 293 292 290 288 286 285 284 283 282 282 281 280 280 279 279 279 279 279 279 279 280 281 282 282 283 282 284 284
296 296 297 299 298 296 294 293 292 292 292 293 294 294 293 292 291 289 287 286 284 283 283 282 281 280 280 280 279 279 279 279 279 279 279 280 281 282 282 283 282 283 284
297 297 298 299 297 294 292 291 290 290 290 292 293 293 292 291 290 288 286 285 284 283 282 281 281 280 280 279 279 279 279 278 278 278 280 280 280 281 282 283 283 284 283
299 298 299 296 294 291 290 290 290 290 291 292 292 292 292 291 289 287 285 285 284 283 282 281 281 280 280 280 279 279 279 278 278 278 279 279 280 280 281 282 283 283 283

GFSMA_850_thetae_027.txt.gz
Theta_e
320 322 323 323 322 321 320 318 315 311 310 309 309 308 306 304 301 302 302 302 302 304 306 306 310 309 308 307 306 305 305 305 305 304 304 303 301 301 300 298 297 297 296
323 323 322 322 321 319 318 315 309 309 309 308 307 306 303 300 300 299 299 299 299 300 302 305 308 309 308 307 305 305 305 304 303 303 302 302 302 301 301 300 299 296 295
325 324 322 320 319 319 314 309 309 308 306 306 305 300 300 299 299 299 300 299 299 299 299 302 304 305 306 305 303 301 301 301 301 301 301 302 301 300 300 299 298 298 298
325 323 320 320 320 316 310 310 308 306 303 301 299 299 299 299 300 301 300 300 299 298 300 303 304 304 303 301 298 297 300 300 300 300 300 300 299 298 298 297 297 297 297
325 322 321 320 316 310 310 308 305 301 299 299 298 298 299 300 301 300 300 299 298 298 297 297 296 297 296 295 294 294 297 298 298 299 299 299 298 298 297 297 296 296 296
323 322 320 316 310 310 308 305 302 299 298 297 297 298 299 300 300 299 299 298 298 297 297 295 295 294 294 293 291 292 295 296 296 297 297 297 297 297 296 295 295 296 296
322 321 317 310 310 309 306 303 300 298 297 297 298 298 298 299 299 299 298 298 298 297 296 295 295 294 291 290 290 290 292 293 293 294 294 294 295 295 295 295 295 296 295
321 320 312 310 309 307 305 302 298 297 298 300 299 298 301 299 298 299 298 298 298 296 295 295 293 291 290 290 289 288 288 289 290 291 292 293 293 293 294 294 295 295 295
318 315 310 310 308 306 303 299 297 302 307 306 305 301 300 301 298 298 298 297 296 295 294 293 292 290 290 289 289 289 289 289 289 289 291 292 292 293 293 294 294 294 294
313 310 310 310 308 304 301 297 304 307 306 303 301 296 295 295 298 298 296 295 294 293 293 293 293 292 291 291 291 290 290 289 289 288 288 290 291 291 292 292 292 293 293
311 310 310 310 309 305 301 299 306 307 308 307 299 295 295 294 294 295 295 295 294 293 293 292 292 292 291 291 291 290 289 288 287 285 285 288 289 289 290 291 291 291 292
312 310 310 310 307 304 302 309 310 307 308 302 294 294 294 295 295 295 294 294 293 293 292 292 292 292 291 291 289 288 287 285 284 284 284 284 286 287 288 288 289 289 290
317 312 310 310 306 302 305 306 307 308 303 294 296 296 294 294 293 293 293 293 293 293 292 291 291 290 290 289 287 285 284 284 283 283 283 283 283 284 285 286 287 288 289
318 315 311 308 302 302 307 303 307 301 295 298 296 294 293 293 293 293 294 293 293 293 292 291 291 288 287 286 286 284 284 283 283 282 283 283 283 283 284 285 286 287 288
316 312 309 304 302 310 304 302 299 297 298 296 294 293 293 293 293 293 292 292 292 292 292 291 290 288 286 286 284 283 283 282 282 282 282 282 282 282 284 284 285 286 286
315 312 306 301 309 301 300 302 297 297 299 293 293 294 292 292 292 292 292 292 291 291 290 290 289 287 286 284 284 283 282 282 282 282 282 282 282 282 283 283 284 284 284
315 312 304 307 300 299 300 296 296 300 297 294 294 293 292 291 291 291 292 292 291 290 289 289 287 286 285 284 283 282 282 282 282 282 282 281 281 281 281 281 281 281 282
317 309 305 302 299 301 296 296 299 296 293 294 293 293 294 293 293 292 292 292 291 289 288 288 287 285 284 283 282 282 281 281 281 281 281 280 281 281 281 281 281 282 282
313 303 300 298 299 297 297 299 301 295 294 294 294 294 294 294 293 293 292 291 290 288 287 287 286 285 284 283 282 281 281 281 281 281 281 281 281 281 281 281 281 282 282
308 302 298 297 296 296 299 299 300 295 294 294 294 294 294 294 294 293 292 292 291 288 287 286 285 284 283 282 281 281 281 281 281 281 281 281 281 281 281 282 283 282 282
304 299 298 298 296 297 298 299 298 294 295 295 295 295 294 294 294 293 292 292 290 288 287 286 285 284 283 282 281 281 281 281 281 281 282 282 282 282 283 283 283 283 282
299 298 298 297 298 297 297 299 295 295 294 294 294 294 294 294 294 293 292 292 289 288 287 285 284 283 283 282 281 281 281 281 281 281 281 281 282 282 283 283 283 283 282
298 297 296 296 297 297 298 298 297 294 293 293 293 293 293 294 294 293 292 291 289 288 286 284 283 283 282 281 281 281 281 281 281 280 280 280 281 282 283 282 283 283 283
297 296 297 298 298 297 298 298 295 293 292 291 291 291 292 293 293 293 292 291 289 286 285 283 283 282 281 281 280 280 280 280 280 280 280 280 281 282 282 282 283 283 283
299 299 298 297 298 298 298 294 292 290 290 290 289 290 291 293 293 293 292 290 288 286 284 283 283 282 281 281 280 280 281 281 280 280 280 281 281 281 282 283 284 283 283
298 297 298 298 298 296 293 292 290 290 289 289 290 290 292 293 293 292 291 289 287 286 284 283 282 281 281 281 280 280 281 280 280 280 280 279 280 281 281 283 283 283 283

GFSMA_850_thetae_030.txt.gz
Theta_e
313 317 321 322 321 320 319 318 315 310 310 309 307 305 303 301 303 306 308 301 299 303 308 310 309 309 308 308 306 306 305 305 305 304 303 303 303 302 302 301 300 298 296
319 322 323 322 321 320 319 315 312 312 309 306 303 301 300 300 300 300 306 306 299 299 302 307 309 308 308 307 305 305 304 303 303 302 302 302 303 302 301 300 300 299 299
323 324 322 322 321 319 317 310 310 309 307 304 301 301 300 299 300 299 304 304 305 300 298 299 302 303 305 306 304 302 301 302 301 302 301 301 302 300 299 299 298 298 298
325 324 323 321 319 318 314 310 310 309 308 306 303 303 301 301 299 300 302 303 303 303 302 299 301 302 303 303 302 299 297 299 299 300 300 300 300 300 299 299 298 297 297
325 324 321 319 320 318 310 310 308 307 306 305 304 302 302 302 302 301 301 301 299 299 299 298 297 296 296 296 295 295 295 297 298 298 299 299 300 300 299 299 297 297 297
325 324 321 321 319 314 310 309 307 303 304 305 303 303 303 302 301 301 301 299 299 299 299 298 297 297 295 294 293 292 292 295 296 296 296 296 296 296 297 297 296 297 297
324 323 322 321 317 311 311 308 306 303 301 302 305 305 304 303 301 301 300 299 299 298 298 296 296 295 295 293 292 291 289 290 293 293 294 294 294 295 295 295 296 296 296
322 322 322 320 314 311 309 307 305 302 304 305 307 307 309 307 302 300 299 299 299 298 297 296 295 294 294 294 293 291 290 289 289 291 292 293 293 294 294 294 295 296 296
321 321 321 319 312 310 309 307 305 301 306 306 306 308 308 307 304 302 300 299 298 298 297 296 295 294 293 293 293 293 292 291 291 290 290 291 292 292 292 293 293 294 294
320 321 320 317 311 310 309 306 303 303 307 310 308 304 303 301 301 301 301 299 298 297 297 296 295 295 294 294 293 293 292 291 290 289 287 289 290 290 291 291 292 292 293
319 319 318 314 310 310 308 304 301 304 309 308 306 304 302 300 299 299 300 299 298 297 296 296 295 294 294 293 293 292 291 289 287 286 285 284 286 288 289 289 290 291 291
318 317 314 311 310 309 307 302 301 309 307 306 304 301 299 300 300 299 298 298 297 297 296 295 294 294 294 293 292 290 288 286 286 285 284 284 283 284 287 288 288 289 289
317 315 312 311 309 309 307 301 305 311 307 303 299 300 300 299 298 297 297 297 297 296 295 294 294 294 293 292 291 289 287 285 285 284 283 283 283 283 284 286 287 287 288
319 316 313 315 309 307 303 301 311 307 302 299 299 300 299 298 297 297 296 296 296 295 295 295 294 293 292 291 290 288 287 286 285 283 283 282 282 283 283 284 286 286 287
318 316 314 316 306 304 299 307 308 302 297 299 301 300 298 297 297 297 296 295 295 294 294 294 293 292 291 290 289 287 286 286 284 282 283 282 282 282 282 283 285 285 286
320 316 313 310 305 306 303 309 301 298 300 301 300 299 298 297 296 296 295 295 294 294 294 293 292 292 291 289 288 286 286 285 284 283 283 282 282 282 282 282 283 284 284
321 318 314 314 312 301 306 299 297 299 299 300 299 297 297 296 295 295 295 294 294 294 293 293 292 291 290 289 287 287 286 284 284 283 283 282 282 281 281 281 281 282 283
321 319 315 313 305 300 300 297 296 298 300 301 298 297 296 295 295 295 295 295 294 293 293 292 291 290 290 289 287 286 285 284 284 284 283 281 282 282 282 281 281 282 282
320 317 315 310 302 300 297 298 296 299 300 300 297 297 296 296 296 296 295 295 294 293 292 291 291 290 289 287 287 285 285 284 284 283 283 282 282 282 282 281 281 282 283
318 317 313 305 301 296 296 296 297 300 300 297 296 296 296 296 296 296 295 295 294 293 293 291 290 289 288 287 286 285 284 284 284 284 284 283 283 283 283 283 283 283 283
314 312 307 300 297 295 296 298 299 299 298 297 297 296 296 296 296 295 295 295 294 293 292 291 290 289 288 287 286 285 284 284 284 284 284 284 283 284 284 284 284 284 284
307 303 299 299 296 296 297 300 299 298 297 296 297 296 296 295 295 294 294 294 294 294 292 291 290 288 287 286 286 284 284 284 284 284 283 283 283 284 284 285 285 283 283
302 300 298 298 296 296 298 299 298 297 298 295 296 295 295 294 294 294 294 294 293 293 292 290 289 287 287 286 285 284 284 284 284 283 283 283 283 283 284 285 284 283 283
302 300 299 297 296 298 297 298 297 297 296 294 294 293 293 293 293 294 293 293 292 292 292 290 287 286 286 285 284 283 283 283 283 284 283 283 283 284 284 284 284 284 284
300 299 297 297 299 298 297 297 297 293 292 292 292 292 292 292 292 292 293 292 292 291 290 289 286 285 284 283 282 282 283 283 284 284 283 283 283 283 283 284 285 285 284
299 298 298 297 297 297 296 293 291 290 290 291 292 292 291 291 290 291 292 292 291 292 290 287 286 286 284 283 282 281 283 283 284 283 283 283 283 282 282 283 285 284 285

GFSMA_850_thetae_033.txt.gz
Theta_e
323 323 323 323 321 321 320 319 315 315 312 311 310 310 308 308 307 308 310 305 299 302 309 312 311 310 309 308 306 305 305 305 305 304 303 303 303 303 303 302 301 300 299
323 323 322 322 321 320 320 318 316 315 313 312 309 306 304 306 304 304 308 308 302 300 304 310 309 308 309 307 305 305 304 303 303 303 303 302 302 302 302 301 300 299 299
322 324 323 322 321 320 319 317 312 314 313 310 308 307 307 306 306 306 306 307 307 304 299 300 303 305 305 306 305 304 302 302 301 301 301 301 301 301 301 300 300 299 299
323 324 323 322 321 320 318 316 315 314 312 310 308 308 307 306 306 305 305 305 305 305 304 301 298 300 301 302 303 302 300 297 298 299 300 301 301 301 301 301 301 300 299
325 325 324 322 320 319 317 316 315 313 311 309 309 308 307 307 306 304 304 304 303 301 302 301 299 298 297 296 296 295 295 295 295 298 298 298 298 298 298 298 299 298 298
325 325 323 321 320 319 317 315 314 310 310 309 307 306 308 307 306 305 304 303 302 302 301 301 300 299 297 296 295 294 293 293 295 295 295 296 296 296 296 296 296 297 297
324 324 323 321 321 318 316 315 312 309 308 307 309 311 310 308 307 305 304 303 302 301 301 300 299 298 297 296 295 295 293 292 291 293 294 294 295 295 295 295 295 296 296
324 322 323 321 321 318 316 313 310 310 309 309 311 312 313 311 307 306 304 303 302 301 300 299 298 297 297 296 295 294 294 293 292 291 291 292 293 293 293 293 294 294 295
324 323 322 321 319 317 315 311 309 308 309 309 309 310 312 312 309 307 304 303 302 301 301 299 299 297 297 296 296 295 295 294 292 291 290 289 291 291 291 292 292 293 293
324 323 322 321 318 317 314 311 309 308 307 309 311 309 308 308 306 306 305 304 302 301 300 299 299 298 297 296 295 295 294 294 292 291 287 286 286 288 289 290 291 291 292
324 323 321 319 317 316 311 309 307 306 304 310 309 310 309 306 304 303 304 304 303 301 299 299 298 298 297 296 296 295 294 293 291 288 287 285 285 285 288 288 289 290 290
323 321 318 317 316 313 309 307 306 303 304 310 311 309 306 304 304 304 304 302 301 301 300 299 298 297 296 296 295 294 292 291 290 287 286 285 284 284 284 287 288 288 289
322 322 321 320 315 312 309 312 308 307 307 310 310 306 303 304 303 302 300 300 300 300 299 298 297 296 296 295 294 293 292 291 289 287 285 284 283 283 283 284 286 287 288
322 322 318 319 317 313 312 311 306 308 305 310 305 303 304 303 301 300 300 299 299 299 298 297 297 296 296 295 294 292 291 290 288 287 285 284 283 283 283 282 284 286 286
322 323 323 318 315 311 312 309 308 302 308 305 303 303 303 302 300 300 300 299 298 297 297 296 296 295 295 294 293 291 290 289 288 286 285 284 283 283 282 282 282 284 285
322 322 321 317 311 311 312 311 309 303 305 303 302 302 302 301 300 299 298 297 297 297 296 296 295 295 294 293 292 291 290 288 288 287 285 284 284 283 282 282 282 283 284
323 321 320 317 313 312 312 311 304 303 302 301 301 302 301 301 299 298 297 297 296 296 296 295 295 294 294 293 292 291 290 289 287 286 285 285 284 283 282 282 282 282 282
321 320 318 317 314 310 309 306 301 302 300 300 299 302 301 300 298 297 297 297 297 296 296 295 295 294 293 292 292 291 289 288 287 286 286 285 284 283 283 283 283 282 282
320 318 318 315 311 308 305 301 301 298 299 299 301 300 300 299 298 297 297 297 297 296 295 295 294 294 293 292 291 290 289 288 287 286 285 285 285 284 284 284 284 284 283
319 317 315 312 308 306 300 300 298 299 298 300 300 300 299 298 298 298 297 297 297 296 296 295 294 294 293 292 291 289 288 288 287 286 286 286 285 285 285 285 285 285 285
315 315 314 310 306 301 299 298 298 298 298 299 299 299 298 298 297 297 297 297 297 296 296 295 294 293 292 291 291 289 288 287 286 286 286 286 285 285 285 285 285 285 285
312 310 308 305 302 299 298 299 298 297 298 298 298 298 298 298 297 297 296 296 295 295 295 295 295 294 292 291 290 289 288 287 286 286 286 285 285 285 285 285 285 285 285
305 304 303 301 299 299 298 297 297 297 298 298 297 297 297 296 296 295 295 295 295 294 294 294 294 294 293 291 289 288 287 286 286 286 285 285 285 285 285 285 285 285 284
302 300 299 298 298 298 299 297 297 298 297 297 296 296 295 294 294 294 294 294 294 294 294 293 293 293 292 290 288 287 287 285 285 285 285 286 285 285 285 284 284 284 284
301 301 300 298 297 296 297 299 298 296 295 294 294 294 294 294 293 293 293 293 292 293 293 293 292 292 292 289 286 286 285 284 284 285 285 286 285 284 284 284 284 285 285
300 299 299 299 298 298 296 295 293 291 291 292 292 292 293 293 292 292 292 292 291 292 293 293 292 291 290 289 286 285 284 283 284 285 285 285 285 284 283 283 284 284 284

GFSMA_850_thetae_036.txt.gz
Theta_e
315 318 322 321 321 320 320 319 316 312 312 309 307 308 307 305 308 308 309 308 300 307 311 312 312 311 309 307 306 304 305 305 304 304 304 303 303 303 302 302 301 300 300
319 322 325 323 322 321 320 319 317 314 314 311 307 306 307 307 305 309 308 308 305 300 309 311 311 309 308 306 305 304 304 303 302 301 300 302 302 303 302 302 301 301 301
323 324 323 322 322 321 320 318 316 315 313 312 310 308 309 308 308 306 308 307 307 306 301 303 304 304 304 305 305 304 303 302 301 299 299 301 301 302 301 301 301 300 300
322 322 323 323 322 321 320 318 315 314 313 311 309 308 308 308 308 308 306 306 307 306 305 303 301 299 299 300 301 299 300 298 297 296 297 297 297 298 299 299 299 299 299
324 322 324 323 322 321 319 317 316 315 313 311 310 309 308 308 308 306 305 305 306 302 304 302 301 300 299 298 297 296 295 295 295 294 294 294 296 297 297 297 297 297 297
327 324 324 323 323 320 319 317 316 315 313 311 310 307 308 310 310 307 306 305 303 303 302 302 301 300 299 298 297 296 295 294 293 292 294 295 296 296 295 295 296 296 296
326 325 325 324 323 320 319 317 315 314 311 310 309 310 312 311 310 308 306 305 303 303 302 301 300 299 298 297 297 296 295 295 294 292 292 292 293 294 294 294 294 294 295
326 325 324 324 321 320 319 317 315 313 310 309 309 312 313 312 310 310 307 305 304 303 302 301 300 299 298 297 296 296 295 295 295 293 292 291 289 292 292 292 293 293 293
326 325 323 323 322 320 319 317 316 312 310 309 309 311 311 312 309 308 307 305 303 303 302 301 300 299 298 297 297 296 296 295 294 294 293 290 288 288 291 291 291 292 292
327 325 324 323 322 320 318 317 316 312 309 309 310 311 310 310 309 306 306 305 304 303 302 301 300 299 298 298 297 296 296 295 295 294 292 290 287 286 287 289 290 291 291
326 324 325 323 322 320 318 315 313 311 309 309 311 310 311 311 308 306 305 305 304 303 302 300 299 299 298 298 296 296 296 295 294 293 291 289 287 285 285 287 289 289 290
324 325 324 323 321 320 319 317 316 312 308 307 308 310 310 309 307 305 305 304 304 303 302 300 299 298 298 296 296 296 295 294 293 292 291 289 286 285 284 284 286 288 289
324 324 324 323 322 320 319 318 316 310 308 305 305 309 309 305 304 304 304 302 301 301 301 300 299 298 298 296 296 295 295 294 293 292 290 288 286 285 284 283 283 285 287
324 320 322 321 321 319 318 318 315 311 309 308 309 309 308 304 304 304 302 301 300 300 300 299 298 297 297 296 296 295 294 293 293 291 290 288 286 285 284 284 283 284 286
325 324 322 321 320 320 319 319 315 310 310 310 308 307 304 303 303 302 301 301 300 299 298 298 297 296 296 295 295 294 293 292 292 291 289 288 287 285 285 284 283 283 284
325 325 322 321 322 322 319 316 311 309 311 306 305 304 303 302 303 301 301 300 299 298 298 297 296 296 296 295 294 294 293 292 292 291 289 287 286 285 285 284 284 283 283
325 324 322 320 320 318 315 311 309 308 308 303 303 302 302 301 302 301 301 299 298 297 297 296 296 296 295 295 294 294 293 292 291 290 289 287 286 285 285 285 284 284 284
323 323 321 320 318 316 315 310 307 307 303 302 302 302 300 301 301 301 300 299 297 297 297 296 296 296 295 295 294 293 292 292 291 290 288 287 286 285 285 285 285 284 284
320 319 318 316 317 315 312 307 306 305 302 301 301 300 301 300 300 300 299 298 297 297 297 297 297 296 295 295 294 293 292 291 290 289 288 286 286 286 286 285 285 285 285
320 319 317 315 313 311 308 306 305 302 300 299 300 300 300 300 300 299 299 298 298 297 297 297 297 296 296 295 294 293 292 291 290 288 288 287 286 286 286 285 285 285 285
317 316 315 313 311 309 307 305 302 301 300 299 299 298 299 299 299 299 298 298 297 297 297 297 297 297 296 295 294 293 292 291 289 289 288 287 286 286 286 285 285 285 285
313 314 312 311 310 308 305 301 301 299 299 298 298 297 297 298 298 297 297 297 297 296 296 296 296 296 296 295 295 293 292 290 289 288 287 286 286 286 285 285 285 285 285
309 307 306 304 303 301 300 299 298 298 297 297 297 297 297 296 296 296 296 296 295 295 295 295 295 295 295 294 295 293 292 290 289 288 287 286 285 285 286 285 285 285 284
304 302 301 300 298 298 297 298 298 297 297 297 297 295 295 295 294 294 294 294 294 293 293 293 293 294 295 294 293 293 291 290 288 287 287 285 284 286 286 285 284 284 284
302 301 300 299 299 299 298 297 297 297 296 295 293 293 292 292 293 293 293 293 292 292 292 292 291 291 293 294 293 292 291 289 287 287 285 284 285 286 285 285 284 283 284
300 299 299 299 298 297 297 296 295 294 293 291 290 290 288 288 287 288 289 290 290 289 290 290 291 291 291 293 292 292 291 288 286 286 286 284 285 286 285 284 283 283 283

GFSMA_850_thetae_039.txt.gz
Theta_e
317 317 316 317 320 319 319 317 318 315 311 308 309 305 307 307 308 308 309 308 305 305 314 314 313 311 309 308 305 303 303 303 303 302 301 300 300 303 303 302 301 301 301
317 316 320 321 321 320 320 319 317 313 313 311 308 310 309 307 308 308 309 307 306 302 312 313 312 311 308 305 304 303 303 302 302 301 299 299 300 301 301 301 301 301 301
320 322 322 323 322 321 321 319 317 315 313 312 310 308 309 309 309 308 307 307 306 306 302 304 306 307 305 304 303 303 302 301 299 298 297 296 296 295 295 297 298 299 299
323 323 322 323 322 321 321 319 317 315 314 312 311 310 310 310 309 308 306 307 306 307 305 304 303 301 300 301 301 299 297 296 296 295 295 294 294 293 293 293 293 294 297
317 315 318 322 322 322 321 320 318 315 314 312 311 310 310 310 310 311 307 305 306 306 304 303 302 301 300 299 298 298 297 295 294 294 293 293 293 292 292 292 295 296 296
320 315 320 324 323 322 321 320 317 315 314 313 311 310 309 307 311 310 310 308 305 304 303 302 301 301 300 299 298 297 296 296 294 294 294 292 291 291 290 291 293 295 295
321 319 322 324 323 322 322 320 317 316 315 313 311 310 307 310 311 310 310 308 306 305 303 303 302 301 300 299 298 297 296 296 295 295 294 293 291 289 290 293 293 294 294
323 323 322 324 323 323 323 320 318 316 315 313 311 310 311 312 311 311 310 308 305 304 303 303 302 301 300 299 298 297 296 296 296 295 295 293 292 290 288 292 293 292 293
321 321 324 324 323 323 322 320 318 317 315 313 309 309 312 312 310 310 309 308 305 304 303 303 302 301 300 299 298 298 297 296 296 295 295 294 293 289 288 288 291 291 292
321 322 323 323 322 323 322 320 318 317 316 311 310 309 309 310 311 310 308 307 306 305 305 304 303 301 300 299 299 298 297 296 296 295 295 294 292 290 288 286 290 291 291
323 323 324 323 323 323 322 320 318 316 315 313 312 310 311 310 311 310 309 307 305 305 305 304 303 300 300 299 299 298 297 296 296 295 294 293 292 289 287 286 289 289 290
326 325 324 325 324 323 322 321 320 319 318 318 316 310 310 310 310 308 308 306 305 304 304 303 303 301 299 299 298 298 296 296 296 295 294 293 291 289 288 286 286 287 288
326 324 324 323 323 324 322 322 320 319 318 317 314 309 309 308 308 308 306 304 303 304 302 301 300 300 299 298 298 297 296 296 295 295 294 293 291 290 288 286 285 285 286
323 325 325 323 323 324 322 321 319 318 317 315 311 310 309 307 308 307 304 304 304 303 301 300 300 299 298 298 297 297 296 295 295 294 293 292 291 290 289 286 285 285 287
322 321 324 324 322 323 322 320 319 318 317 312 309 308 306 308 305 304 303 304 303 301 300 301 300 299 297 296 296 296 296 295 293 293 292 292 291 290 288 286 285 285 285
321 321 324 324 323 321 320 320 320 318 313 309 308 309 307 305 304 304 303 303 301 300 300 299 299 298 297 297 296 295 295 294 294 293 293 293 291 290 288 286 285 285 285
323 326 325 323 322 320 319 320 318 315 311 308 308 307 305 304 303 303 302 302 301 300 299 299 298 297 296 296 296 295 295 294 294 294 293 292 291 289 287 286 285 285 285
326 326 324 321 319 320 319 318 315 312 308 307 307 305 303 303 302 301 301 301 301 300 299 298 297 297 297 296 296 296 295 295 294 293 293 292 291 289 287 286 286 285 285
325 325 323 321 319 319 318 315 313 309 306 306 305 303 302 301 300 300 300 300 300 299 299 298 297 297 297 297 297 296 296 295 294 293 292 291 290 289 287 287 286 285 285
324 321 319 319 317 316 315 312 310 306 305 304 303 302 301 300 299 299 299 299 298 298 298 298 298 297 297 297 297 297 296 295 295 294 292 291 290 288 287 287 285 286 285
320 318 317 316 315 313 311 310 308 305 304 302 300 299 299 298 297 298 299 298 298 297 297 297 297 297 296 296 296 295 295 295 294 293 292 290 289 288 288 287 285 285 285
315 315 314 314 313 311 309 307 305 303 301 300 299 299 298 297 297 296 296 295 296 296 296 295 295 295 295 295 295 295 295 295 294 293 290 289 289 289 289 286 285 285 285
312 312 312 311 310 308 305 302 300 299 299 298 297 297 297 296 295 294 294 294 294 294 294 294 293 293 292 292 293 293 293 293 294 293 291 289 289 290 287 285 285 285 285
311 308 306 304 302 301 299 298 298 297 297 297 296 296 295 294 293 292 292 293 292 292 292 292 292 292 292 292 292 292 291 292 293 292 290 288 290 289 287 284 286 285 285
305 303 301 299 298 298 298 298 297 297 296 296 295 294 293 292 291 291 288 286 285 284 283 283 282 282 282 283 287 290 290 291 291 292 291 289 290 287 285 284 286 285 285
302 300 299 299 299 298 298 297 297 296 295 294 293 291 288 285 284 283 282 282 282 282 282 283 283 284 285 286 284 282 285 290 291 291 291 289 288 286 285 285 285 285 283

GFSMA_850_thetae_042.txt.gz
Theta_e
315 316 315 318 319 319 318 314 315 314 310 308 306 307 308 308 308 308 309 308 307 304 315 315 314 312 310 308 303 302 302 302 301 301 299 299 301 300 301 302 302 302 301
316 315 316 317 319 320 319 318 315 312 311 308 308 307 308 309 308 309 309 308 308 304 310 314 314 312 310 306 302 301 302 301 300 299 298 297 296 295 295 296 299 300 300
317 317 319 318 319 320 321 320 317 313 312 311 309 308 310 310 310 310 311 309 309 307 305 306 311 308 305 303 301 301 301 300 297 297 296 295 295 294 293 293 293 293 294
317 318 318 322 321 321 321 320 317 315 313 312 311 310 310 310 310 311 312 311 309 307 307 305 304 303 302 301 300 299 297 297 296 296 295 294 294 293 293 292 292 291 291
321 318 320 322 323 322 321 320 319 317 316 313 312 311 311 310 309 312 312 311 309 307 306 305 304 303 302 301 299 299 298 297 296 295 294 293 293 292 291 290 290 290 290
317 317 318 319 321 322 322 321 320 318 317 314 313 312 310 310 308 310 312 311 309 308 306 305 304 303 302 301 300 299 298 297 296 295 295 295 293 292 290 289 289 289 292
318 319 318 317 321 322 322 321 320 320 318 314 313 312 310 309 308 310 311 310 309 308 306 305 304 303 302 301 300 299 298 298 297 296 296 295 294 293 291 289 289 289 294
319 323 323 319 322 323 323 322 321 321 316 315 313 311 310 309 308 310 310 310 310 308 307 305 304 303 302 301 300 299 299 298 298 297 296 295 294 293 291 290 288 288 291
321 323 323 321 322 323 323 323 323 321 318 316 314 312 309 310 311 312 311 310 309 309 308 306 304 303 302 302 300 299 299 299 298 297 296 295 294 293 292 290 289 288 290
320 320 322 323 322 323 323 323 323 321 319 317 315 313 310 309 309 310 310 310 309 308 308 306 304 303 303 302 300 300 299 299 298 296 296 295 294 294 292 290 289 288 289
316 322 324 320 321 324 324 323 323 320 319 317 318 316 310 311 310 309 311 311 309 307 306 306 305 304 303 303 301 300 299 299 298 296 296 295 295 294 293 291 289 288 287
316 320 323 322 323 322 322 322 322 321 320 319 318 316 315 314 310 310 310 310 309 309 307 305 304 304 304 303 302 300 299 298 298 296 296 295 295 294 292 291 290 289 287
319 320 323 324 323 323 322 323 323 321 321 319 319 317 317 315 311 310 310 310 309 308 303 303 303 302 301 301 302 300 299 298 298 296 296 295 295 293 292 291 290 288 286
319 324 325 325 323 322 323 322 323 322 321 319 318 317 317 313 311 310 309 308 307 305 304 303 304 303 300 300 300 299 299 298 297 296 295 295 294 293 293 291 290 288 286
321 321 323 323 323 323 323 322 323 322 321 319 318 317 315 311 309 308 307 306 302 303 303 304 302 302 301 300 299 298 297 296 296 296 295 295 293 293 293 291 290 288 286
322 325 324 324 322 321 322 323 321 320 320 319 318 315 310 309 308 307 306 304 303 303 302 301 301 300 300 299 298 297 297 296 295 295 294 294 293 293 293 292 291 288 287
325 322 323 321 322 320 322 321 321 319 318 318 315 311 308 307 308 306 305 304 303 302 301 301 300 300 299 299 297 297 296 296 295 295 295 294 294 293 293 292 291 289 288
324 315 318 321 322 323 323 320 320 319 318 316 311 308 307 307 305 304 304 304 301 301 302 300 300 299 299 298 297 296 296 296 296 296 295 294 294 293 292 292 291 289 288
324 318 319 325 323 321 320 320 318 317 314 312 308 307 306 305 304 303 302 300 300 300 300 299 299 299 298 298 297 297 297 297 297 296 296 294 292 293 292 291 291 289 288
325 324 324 323 321 319 318 317 315 314 312 308 306 305 304 303 303 301 299 299 299 298 298 298 297 297 297 296 296 296 296 295 295 295 295 295 295 294 293 290 290 289 288
324 324 322 320 317 315 314 314 313 311 310 306 305 303 302 301 300 300 297 297 297 297 297 296 296 296 296 295 294 293 293 293 293 293 294 294 294 294 293 290 289 288 287
322 319 318 316 314 314 313 312 309 309 307 304 302 301 300 299 299 297 296 296 296 295 295 294 294 294 294 293 292 292 292 292 292 292 293 292 292 293 292 290 288 288 286
317 316 314 312 312 312 311 309 308 305 302 301 300 299 299 298 296 295 295 294 293 293 293 293 293 292 291 290 288 288 289 290 290 291 291 291 291 292 292 289 288 288 286
311 311 311 311 311 309 308 305 302 300 299 299 298 297 296 295 294 294 293 291 290 289 286 285 284 284 283 282 283 284 284 285 283 283 288 290 289 290 291 289 289 287 285
311 309 307 306 305 304 301 299 298 298 298 297 297 295 294 293 293 291 289 286 284 284 283 283 283 282 282 283 284 285 286 285 285 284 286 288 290 289 290 289 289 286 284
306 304 302 300 299 299 297 297 297 297 297 295 294 294 294 292 288 284 284 284 283 283 283 282 281 281 280 280 281 283 284 284 285 286 286 286 289 289 287 288 288 286 285

GFSMA_850_thetae_045.txt.gz
Theta_e
313 314 318 319 318 316 313 313 312 312 310 308 307 308 309 310 310 310 310 308 308 312 315 315 313 311 307 304 302 301 301 301 300 299 298 297 296 295 295 296 297 297 297
314 314 316 319 319 319 317 314 313 311 310 309 308 308 310 311 311 312 311 309 308 307 313 314 314 312 306 304 303 301 301 301 300 298 297 296 295 295 295 295 294 293 293
315 316 316 318 319 320 319 318 314 312 310 308 309 309 310 311 311 311 312 309 309 307 307 307 309 310 305 303 303 301 300 300 297 297 296 295 295 294 294 293 293 292 292
316 315 316 318 316 319 320 320 317 313 312 312 310 309 309 311 311 311 312 311 309 307 307 307 305 305 303 303 302 301 300 299 299 297 296 295 294 294 293 292 291 290 290
317 317 319 320 319 320 321 320 319 317 314 313 312 311 310 310 310 309 311 312 311 309 308 307 306 305 303 302 301 301 300 299 298 297 296 295 295 294 294 291 290 290 290
316 318 318 318 319 320 322 321 320 319 318 316 315 312 311 310 309 308 308 311 311 311 309 307 306 304 303 302 302 301 300 299 299 298 297 296 295 295 293 292 290 289 289
319 321 319 317 316 320 320 321 321 320 319 317 314 313 311 310 309 309 308 308 311 312 310 308 307 305 304 303 302 302 300 299 299 298 298 296 295 294 293 292 291 290 289
316 316 317 317 318 320 321 322 322 321 318 317 315 314 311 310 309 309 308 308 311 311 310 309 307 306 305 304 303 302 300 300 299 299 298 297 296 295 294 293 292 291 289
316 317 318 320 323 322 321 322 322 321 321 320 318 315 311 311 311 310 310 310 310 309 310 308 308 307 305 304 303 302 301 300 299 299 298 297 296 295 294 294 293 292 290
315 316 320 322 324 322 322 322 323 322 322 322 319 316 313 315 312 311 311 310 311 310 309 309 308 307 305 304 304 303 302 300 300 299 298 297 296 295 295 294 293 293 291
315 316 320 320 321 321 323 322 322 323 322 322 320 318 316 315 315 310 309 310 310 310 311 308 307 307 305 304 304 303 302 302 300 299 299 298 296 295 295 294 294 293 291
315 316 319 320 320 322 321 321 322 322 322 322 320 320 318 317 317 313 312 313 310 310 310 310 309 308 305 304 303 303 303 302 302 300 299 298 297 296 295 295 294 293 291
315 316 318 318 314 322 322 322 322 322 321 321 321 320 319 318 317 313 313 312 310 310 310 310 309 306 303 303 302 302 301 301 301 300 299 298 298 296 295 295 293 293 292
315 314 315 315 316 320 322 321 323 322 322 322 321 321 319 318 317 315 315 311 310 310 309 309 308 305 303 303 303 301 300 300 300 300 299 298 297 296 295 295 293 293 292
316 316 321 323 320 321 319 322 323 319 322 322 321 320 318 318 315 316 312 311 309 307 305 306 306 305 304 301 300 300 299 298 298 297 297 297 296 296 295 295 293 293 293
318 318 323 324 322 321 323 323 322 321 322 322 322 320 317 318 317 312 311 309 308 306 303 303 304 304 303 301 300 299 298 298 297 296 296 296 295 295 295 294 293 293 292
322 323 324 324 321 321 322 323 322 321 322 322 321 317 316 317 314 309 309 308 308 304 303 303 302 301 301 301 301 300 299 298 297 296 296 296 295 295 295 294 293 292 291
323 320 321 323 316 317 318 321 322 321 321 321 319 317 317 313 311 308 307 307 305 304 303 300 300 300 299 299 299 299 298 298 297 297 297 296 296 295 294 293 292 291 291
324 324 320 317 319 317 318 320 321 322 321 318 317 315 312 310 308 307 306 304 303 303 300 299 299 298 298 297 297 297 296 296 295 295 295 295 295 295 295 295 295 295 294
325 321 324 317 318 317 318 322 320 320 318 315 313 312 309 306 306 305 303 302 302 299 299 298 298 297 297 297 296 295 294 294 293 292 292 292 292 291 292 293 294 294 294
327 326 324 323 322 322 322 320 319 317 315 313 311 310 307 305 303 302 302 301 300 298 297 296 296 295 295 294 293 293 292 292 291 291 291 290 291 291 291 292 292 292 293
326 326 323 322 322 321 319 317 315 313 312 311 310 307 304 302 301 300 300 299 296 296 295 294 294 293 291 291 290 289 286 284 283 284 285 284 286 286 288 290 290 290 292
325 325 323 322 320 318 315 314 313 312 310 309 306 303 302 301 300 299 297 296 295 294 294 292 290 289 286 284 283 283 283 283 283 283 284 284 284 284 284 285 286 286 290
323 322 320 317 315 314 313 313 311 309 307 304 302 301 300 299 298 296 294 294 293 292 290 286 283 283 283 282 281 281 281 282 282 283 284 285 284 284 284 285 287 289 289
319 318 315 313 311 311 310 309 307 304 302 301 300 299 298 296 294 293 293 292 289 285 284 284 284 283 282 282 281 280 280 282 282 281 283 284 284 285 286 285 285 288 287
315 311 309 309 308 307 305 303 301 300 299 299 298 297 296 293 292 292 289 285 283 284 284 283 283 282 281 280 280 279 279 279 279 279 280 281 283 284 286 286 287 288 288

GFSMA_850_thetae_048.txt.gz
Theta_e
317 316 313 312 313 313 312 311 312 311 310 308 308 308 310 310 311 311 310 309 312 313 316 315 313 311 307 304 303 302 301 301 300 299 298 297 296 295 295 295 295 294 294
318 319 318 314 313 313 312 311 311 310 309 308 308 308 309 310 311 312 311 310 308 315 316 315 315 315 309 304 304 303 302 301 300 299 298 297 296 296 295 295 294 293 293
315 317 319 319 317 317 315 311 311 311 309 309 308 308 308 309 310 311 312 311 309 307 313 314 313 311 309 304 303 302 302 302 300 300 298 297 296 296 296 294 294 292 292
314 315 318 319 319 319 319 318 314 311 310 309 309 309 308 309 310 310 311 312 310 308 307 308 307 307 305 304 303 302 302 302 300 300 299 297 297 296 295 295 293 291 291
316 316 317 318 317 319 319 320 319 314 312 312 312 311 310 309 310 310 310 311 312 310 308 307 306 306 305 303 303 303 303 301 300 299 299 298 297 296 295 294 292 291 291
316 317 318 319 318 319 320 321 320 319 317 315 314 314 312 311 310 310 309 308 310 311 311 309 308 306 305 304 303 303 302 301 300 300 299 299 297 296 295 294 293 293 292
317 320 319 318 320 320 319 321 321 320 320 319 316 314 313 313 312 312 310 310 308 309 310 310 309 308 306 305 304 304 303 302 301 300 299 299 298 297 295 295 294 294 293
319 320 317 318 318 318 318 318 321 321 320 320 317 315 312 312 312 312 311 311 309 307 309 309 309 308 307 306 305 303 303 302 301 301 300 299 298 297 296 295 295 294 294
315 319 319 318 318 319 319 319 320 321 321 321 319 317 314 313 314 314 313 311 310 310 309 310 309 309 309 307 306 304 303 302 302 301 300 299 299 298 297 296 295 294 294
315 317 318 317 316 318 322 322 322 322 322 321 320 319 318 318 315 314 315 312 312 311 311 311 310 310 309 308 307 305 304 302 302 302 300 300 300 298 297 296 295 295 294
315 315 316 316 317 319 321 322 322 322 322 322 321 320 320 318 317 314 313 314 313 314 312 311 309 310 308 308 308 306 304 303 302 302 302 300 300 300 298 297 296 295 295
315 315 315 314 315 318 319 320 320 321 322 322 322 320 321 320 319 318 315 316 316 314 312 312 310 310 309 309 307 306 304 303 302 302 301 301 300 299 299 299 297 296 296
314 314 314 313 314 316 318 319 318 320 322 322 321 322 321 321 319 317 316 316 313 314 312 312 310 310 309 308 305 303 302 302 301 301 301 300 300 299 298 298 298 296 296
315 314 315 313 314 315 317 317 315 319 323 322 323 322 321 321 320 318 316 317 314 313 311 311 311 310 306 304 304 303 302 302 301 300 300 300 299 299 298 298 297 296 296
316 316 315 314 315 316 316 321 321 319 319 320 320 320 320 322 321 318 315 317 316 311 310 309 309 308 307 305 304 303 302 300 299 298 298 297 297 296 296 296 297 296 296
316 316 315 315 315 317 318 320 322 320 317 318 321 319 320 321 321 317 316 316 314 312 309 307 307 306 306 306 305 302 301 300 299 299 299 297 296 296 296 296 295 296 295
315 315 314 314 317 319 320 322 322 319 319 321 322 321 321 321 321 315 315 314 312 309 308 306 305 304 304 304 302 300 299 299 299 298 298 297 297 297 297 296 295 295 295
317 316 317 318 320 320 321 321 321 319 319 320 320 321 320 320 317 315 314 312 309 307 306 304 303 303 302 300 298 298 298 297 297 296 296 295 294 295 295 295 295 295 295
319 319 320 321 322 320 320 320 317 319 316 319 320 319 319 316 314 313 311 309 307 306 305 303 302 301 299 298 297 297 296 295 294 293 291 290 290 289 289 289 291 292 291
319 320 321 322 323 323 322 318 317 317 319 321 319 317 315 314 313 311 308 306 305 304 303 302 300 298 297 297 296 294 292 290 289 288 288 287 286 286 285 285 286 289 290
323 323 323 323 323 322 322 316 317 318 321 319 317 315 313 311 310 307 306 304 303 301 301 300 299 296 295 293 291 289 288 286 287 286 287 286 286 285 284 284 284 284 284
324 324 324 324 324 323 324 323 319 322 319 316 314 312 310 308 306 306 303 301 300 299 297 296 295 294 292 290 288 285 285 285 284 285 284 285 284 284 283 283 283 283 284
325 325 324 324 324 322 322 322 320 317 316 314 311 310 309 306 303 302 301 300 299 297 296 294 293 291 288 285 284 284 284 283 283 283 282 284 282 282 282 281 282 284 284
325 324 323 322 321 321 320 318 316 314 313 310 309 307 305 303 302 300 299 297 296 295 293 291 288 285 284 284 283 282 282 282 282 281 280 281 281 281 280 281 281 284 285
322 321 321 320 319 317 316 315 313 312 310 308 305 303 302 301 300 298 296 295 294 292 288 285 284 283 283 282 281 281 281 280 280 280 280 279 280 279 280 281 281 284 286
320 319 318 315 314 312 311 311 310 308 307 305 303 301 300 298 297 295 294 293 290 285 284 283 283 282 282 281 281 280 279 279 279 279 279 279 279 279 280 281 284 284 285

GFSMA_850_thetae_051.txt.gz
Theta_e
314 313 310 310 311 311 312 311 309 308 308 309 309 310 310 310 310 310 315 314 314 316 315 315 313 310 306 304 304 303 302 302 301 300 300 299 297 298 297 296 297 296 295
316 313 310 310 310 310 310 310 311 310 308 308 309 309 310 310 311 310 310 309 312 316 316 315 314 313 309 305 304 303 302 302 301 301 300 299 298 297 297 296 296 294 294
315 312 311 312 312 313 312 312 311 310 309 308 308 309 309 309 310 311 311 310 308 311 316 315 314 312 311 306 304 303 303 303 302 301 300 299 298 298 297 297 295 294 293
315 314 313 313 314 314 313 312 312 310 309 309 308 308 308 310 310 311 311 311 310 308 309 312 311 310 309 306 304 303 304 304 302 301 300 299 299 298 297 296 295 294 294
318 318 317 316 317 317 316 317 314 311 309 309 308 308 309 308 310 310 310 311 311 311 310 308 307 307 306 305 304 304 304 304 303 302 301 300 300 299 298 297 296 295 295
317 317 318 318 318 318 319 320 319 316 313 312 312 311 311 311 310 309 310 309 309 311 311 311 309 308 306 305 305 304 303 304 303 302 301 300 300 299 298 297 296 296 295
316 316 317 318 318 318 319 320 320 320 318 317 315 314 313 314 312 310 310 310 309 309 308 310 310 309 308 307 306 305 304 303 303 303 302 301 300 299 299 298 297 296 295
316 316 317 318 319 319 319 319 320 320 320 319 318 317 314 314 315 315 313 312 311 310 310 308 308 309 309 308 308 307 305 304 303 303 303 302 301 300 299 298 297 296 295
316 317 317 320 319 318 317 317 317 318 320 320 320 319 316 316 317 316 315 314 313 312 311 310 309 309 309 309 308 307 306 305 303 302 304 303 302 301 300 299 298 297 296
318 317 319 319 317 318 317 318 320 320 321 321 321 320 320 319 317 316 316 316 315 314 315 313 312 310 309 308 308 308 307 307 305 303 302 303 304 303 302 301 299 299 297
316 317 316 319 318 317 318 319 318 319 321 322 322 322 321 319 318 316 316 315 316 316 316 316 314 313 310 309 309 308 309 308 305 304 302 302 301 304 304 303 302 301 300
317 317 317 316 316 316 317 319 320 318 320 321 322 322 321 319 319 318 316 317 314 315 315 316 315 314 311 310 309 309 309 307 305 303 302 301 301 301 302 303 302 302 301
316 316 316 316 315 315 315 314 317 318 319 319 319 320 322 322 319 318 317 317 314 315 316 316 315 314 311 309 310 309 308 305 304 302 302 301 302 301 301 300 301 302 301
316 315 314 314 314 315 314 313 313 315 317 318 318 319 322 322 321 319 320 317 313 314 314 316 314 312 312 310 309 307 306 305 304 303 303 302 300 300 300 299 299 298 298
318 317 316 315 315 314 314 314 314 314 316 318 321 320 319 319 317 319 319 320 317 313 314 314 313 313 311 310 307 306 305 305 305 302 300 299 299 299 298 297 297 296 296
317 316 316 316 316 316 315 315 314 315 316 319 318 321 320 318 318 319 319 320 318 314 312 313 312 310 308 307 306 305 305 303 301 301 301 300 300 299 298 298 297 297 296
317 316 316 317 317 316 315 315 315 315 320 320 317 319 318 318 318 321 320 320 317 313 313 312 309 308 307 306 305 304 303 300 299 299 299 299 298 297 297 296 295 295 296
316 318 317 316 315 315 315 315 314 318 320 319 317 319 319 318 319 320 319 317 315 313 312 309 307 306 306 304 303 302 300 298 297 297 296 294 292 290 290 289 289 289 289
315 315 318 318 318 316 315 316 319 319 321 317 318 319 318 318 320 318 316 314 313 310 309 307 306 304 303 302 301 299 298 297 295 292 290 288 288 288 288 287 286 286 286
316 316 317 319 318 319 320 320 321 322 322 319 318 318 320 319 318 316 314 312 309 308 307 305 303 302 300 300 299 297 294 291 289 288 288 288 288 288 288 287 287 286 285
318 316 316 317 318 318 320 320 322 322 323 322 320 318 319 317 315 312 311 310 308 306 304 302 301 299 298 297 295 292 290 286 286 287 287 287 287 287 287 286 286 285 284
319 318 319 319 320 321 322 322 322 322 322 318 318 319 317 314 311 310 310 307 305 303 302 301 299 297 296 294 291 288 285 285 285 285 285 286 286 286 286 285 285 285 284
322 322 322 322 323 323 323 323 323 323 321 319 318 315 313 311 310 308 305 303 301 300 299 298 297 296 292 290 285 285 284 283 284 284 284 284 284 285 284 283 284 283 282
323 323 324 324 324 324 322 321 321 319 318 316 313 312 311 309 307 305 303 301 299 298 297 296 293 291 287 284 284 283 283 282 282 283 283 283 282 283 283 283 283 282 281
324 325 323 323 323 322 321 320 319 316 314 312 310 309 307 306 305 301 299 298 296 295 294 292 288 285 284 284 283 282 282 281 281 281 282 280 281 281 282 282 282 282 282
324 323 322 321 320 318 316 315 314 313 312 310 308 306 303 302 299 297 296 295 294 293 290 285 283 283 282 281 282 281 281 280 280 280 280 279 279 279 280 281 281 281 282

GFSMA_850_thetae_054.txt.gz
Theta_e
320 322 323 324 323 323 322 321 320 318 317 316 317 318 319 319 320 319 318 316 315 315 315 313 311 307 305 305 304 303 303 302 301 301 299 298 298 297 297 298 298 298 297
318 318 319 319 320 322 321 320 318 317 316 316 317 317 318 319 319 320 319 316 315 317 316 315 312 309 307 305 304 304 303 303 302 301 300 299 298 298 298 298 298 298 297
315 314 314 316 317 317 318 317 317 316 316 316 316 315 315 317 318 318 319 319 315 317 317 317 315 313 310 307 305 304 304 304 303 302 301 300 300 300 299 299 299 298 297
314 312 314 315 315 315 315 316 317 316 315 315 316 316 315 315 315 315 317 318 318 318 316 316 315 314 310 307 305 305 304 304 304 303 302 301 301 300 300 300 299 299 298
314 312 311 314 312 316 315 315 315 315 315 315 314 314 312 313 312 313 314 314 316 317 318 317 313 310 310 307 306 305 305 305 304 304 303 302 301 301 301 301 300 300 299
315 313 313 313 316 317 314 314 314 313 313 313 312 312 312 312 312 312 312 311 315 315 316 317 315 312 309 307 306 306 306 305 305 305 305 304 302 301 301 301 301 300 299
314 315 316 314 316 319 319 318 318 314 314 312 312 312 312 312 312 313 312 312 311 311 315 312 315 316 316 311 307 306 305 307 306 305 304 304 304 303 302 301 300 299 299
315 317 318 317 317 320 319 319 320 319 318 315 315 317 317 316 314 316 316 314 312 311 311 310 314 315 315 315 313 308 306 306 306 307 305 304 304 303 303 302 300 299 299
317 319 317 319 318 318 318 318 319 320 320 318 319 320 320 319 319 317 317 314 313 313 312 312 314 313 313 312 313 311 308 307 306 305 307 306 305 304 303 303 303 302 300
319 319 317 317 317 318 319 320 318 318 320 320 319 320 320 321 321 320 317 316 316 316 313 313 314 313 313 312 312 311 309 308 307 306 304 305 306 306 305 304 304 303 302
320 317 317 317 318 320 319 320 317 317 322 322 321 320 319 320 320 320 321 320 318 319 318 314 313 313 314 313 312 312 310 309 308 308 307 304 303 305 305 305 305 305 304
320 317 316 317 318 320 318 317 318 317 318 321 320 322 322 321 320 319 319 319 318 317 318 318 313 315 315 314 313 311 310 309 309 309 308 305 303 302 301 303 304 305 304
318 318 318 319 319 319 318 318 318 317 319 320 319 319 321 321 320 320 319 318 316 318 319 318 316 314 316 315 315 311 310 309 310 309 308 306 304 303 302 301 301 303 303
316 317 317 316 316 317 317 317 316 315 315 314 315 316 321 321 319 318 321 320 317 316 315 314 315 316 317 315 314 311 309 310 308 307 306 306 305 303 302 303 302 301 301
316 316 316 316 315 316 317 316 315 315 317 319 315 314 317 317 319 320 319 318 318 316 315 316 316 317 315 315 313 313 309 307 306 306 306 306 305 304 301 299 299 299 299
316 316 315 318 318 317 315 315 315 315 318 319 319 318 315 318 319 318 319 316 316 316 315 316 315 315 314 314 312 311 307 308 306 305 304 302 301 301 301 300 300 299 299
317 317 316 316 317 316 315 317 318 318 318 317 319 315 315 320 319 318 317 316 317 316 316 313 313 312 313 311 308 308 307 306 305 302 301 299 299 299 299 299 296 294 293
319 318 317 317 317 318 318 319 319 318 320 320 316 315 318 320 317 318 317 317 318 319 317 313 312 311 310 308 307 306 305 304 301 300 300 297 295 295 293 290 289 289 288
320 320 319 319 318 318 319 317 317 317 319 317 315 316 318 320 317 319 318 317 318 317 315 311 311 310 307 306 306 304 303 301 299 298 298 293 290 289 289 288 288 288 288
317 317 317 318 318 317 317 317 317 317 318 315 317 321 321 320 317 318 319 318 317 316 312 310 309 307 306 304 303 301 299 298 296 293 290 289 288 288 288 288 288 288 288
316 316 317 317 318 319 318 320 320 319 319 320 320 322 323 320 318 319 318 317 315 311 309 308 306 306 304 302 300 298 295 294 291 289 288 289 288 288 288 288 288 288 287
318 318 318 319 319 319 317 317 318 317 317 320 323 323 322 321 321 318 318 314 311 310 309 307 305 303 301 299 297 293 292 289 289 289 288 288 287 287 288 288 287 286 286
321 321 321 320 321 321 320 318 317 319 321 323 323 322 321 320 318 317 312 309 308 307 305 304 302 300 298 294 292 290 288 288 288 288 287 287 287 287 288 286 285 285 285
321 322 321 321 322 321 321 322 323 322 323 322 319 319 318 317 314 311 309 308 305 303 301 299 298 296 295 292 288 285 285 285 285 286 286 285 285 286 286 285 284 284 285
322 322 322 323 323 323 323 323 323 322 321 319 317 316 313 311 309 308 306 305 302 299 298 297 295 293 289 285 284 283 283 284 285 285 285 284 285 285 284 283 284 283 283
322 324 324 323 322 322 321 321 321 320 317 315 312 310 307 306 306 303 300 299 297 296 295 294 291 285 284 283 283 282 281 282 283 283 284 283 283 282 283 283 283 282 283

GFSMA_850_thetae_057.txt.gz
Theta_e
322 323 323 323 322 323 321 319 321 320 319 320 320 322 322 322 321 319 317 316 316 315 313 313 307 306 306 305 305 305 304 304 303 302 301 300 299 299 299 299 299 299 299
321 324 324 325 323 323 322 321 321 320 319 319 320 321 321 321 322 321 319 316 316 316 316 314 310 308 307 306 305 305 304 305 305 304 302 302 301 300 300 300 300 300 300
322 325 325 324 322 323 322 321 321 319 318 319 319 320 320 321 321 322 320 319 317 317 317 317 315 311 309 307 306 306 305 306 306 305 304 303 302 302 302 302 301 301 301
322 322 322 322 321 322 321 320 319 318 318 318 319 319 319 319 320 320 321 321 319 318 317 317 317 315 311 308 307 306 307 307 306 305 305 304 304 303 303 303 302 301 301
320 319 318 318 318 319 319 319 319 318 317 317 318 318 318 318 318 318 319 320 320 320 318 317 315 314 313 310 308 307 307 308 307 307 306 305 304 304 303 303 302 302 302
316 315 316 317 317 317 317 318 318 318 317 317 317 317 316 316 315 315 316 317 318 319 320 320 318 314 313 312 309 308 307 308 308 308 307 306 304 304 304 303 302 301 301
313 314 315 312 317 318 318 317 317 317 317 316 315 315 315 315 315 315 315 315 316 317 318 318 318 317 316 315 314 309 307 308 308 308 308 306 305 304 304 303 303 302 301
314 314 313 313 316 319 319 320 318 318 316 315 314 315 315 315 315 315 316 315 316 316 316 317 317 317 318 318 316 315 309 308 310 310 309 308 307 305 304 304 303 303 303
318 315 316 318 315 319 322 322 322 321 320 318 316 318 319 319 319 318 318 317 316 315 315 315 317 317 317 317 317 316 314 311 308 309 310 309 308 307 306 306 305 305 304
316 315 318 320 320 319 321 323 323 322 322 321 320 319 321 322 322 321 319 318 316 316 316 315 314 315 316 316 316 316 315 314 311 308 306 306 308 308 307 307 306 305 305
316 317 319 321 322 321 321 322 322 322 322 320 322 322 321 321 322 323 322 320 319 318 317 317 316 315 315 316 315 315 314 313 312 309 307 306 306 305 306 307 307 307 306
319 319 321 321 320 321 321 321 321 321 321 321 318 322 322 322 321 321 321 321 321 320 318 319 319 318 318 316 314 314 314 314 312 309 308 307 309 308 305 304 305 305 306
320 320 320 321 320 318 317 319 320 320 321 319 318 320 319 320 321 322 321 321 320 320 320 318 318 318 318 316 316 313 314 313 311 310 308 309 310 309 307 306 305 303 303
317 318 320 321 319 318 318 318 318 321 318 318 318 318 320 318 321 322 321 321 321 318 319 318 317 317 316 316 316 316 314 313 310 310 309 310 308 307 305 305 306 304 302
317 317 318 319 319 317 317 318 319 320 320 319 318 317 317 317 320 321 321 321 319 319 318 317 316 316 315 316 315 316 314 314 312 311 310 309 307 307 306 306 304 303 303
317 318 316 318 318 317 318 318 318 318 318 319 319 319 318 319 319 321 321 320 320 319 319 318 317 316 315 315 316 316 315 313 312 310 309 308 307 306 304 302 301 301 300
320 320 319 318 318 318 319 319 318 318 319 318 318 319 320 320 319 320 319 319 319 317 317 316 316 316 315 315 316 314 312 312 309 308 308 307 306 304 301 299 299 300 300
322 321 320 320 319 319 319 320 320 320 320 320 320 320 320 319 320 320 318 319 317 316 317 317 315 316 315 314 312 312 310 308 308 307 305 303 303 301 300 296 295 293 291
323 322 322 322 320 320 320 320 320 320 320 320 320 321 321 320 320 319 318 319 318 315 316 318 316 314 313 311 309 309 307 307 306 305 302 301 300 299 295 292 290 289 289
324 323 323 322 321 321 321 321 320 321 321 320 320 321 319 322 319 318 319 321 319 318 318 318 314 313 310 309 308 306 306 305 304 302 299 296 294 291 290 289 289 289 289
322 322 322 322 322 321 321 321 320 319 320 320 319 320 320 320 319 321 321 322 318 318 318 316 313 309 308 306 307 306 305 303 300 298 297 294 291 291 290 289 289 289 290
323 322 322 322 322 321 321 320 320 320 320 319 320 321 320 320 319 321 322 320 318 318 317 315 310 308 308 306 305 303 300 298 295 294 291 291 291 290 289 288 289 289 289
323 323 322 322 321 321 321 320 320 320 320 321 321 320 319 318 322 320 319 319 317 316 311 309 307 306 306 303 301 298 296 295 292 290 290 289 289 288 288 288 289 288 287
323 323 322 322 322 322 321 321 321 320 320 320 319 319 320 321 320 318 316 314 310 309 306 305 305 301 300 298 297 295 292 289 289 287 286 287 288 287 287 287 287 287 286
324 324 324 324 323 322 322 321 321 321 321 321 321 320 318 318 317 317 313 309 306 305 302 301 300 297 296 295 292 288 286 285 286 287 287 286 287 286 286 286 286 285 285
323 323 323 323 322 322 321 322 322 321 321 321 319 317 314 312 311 309 307 305 304 301 298 297 295 294 292 287 286 285 283 283 284 285 286 285 285 285 284 285 285 284 283

GFSMA_850_thetae_060.txt.gz
Theta_e
321 320 322 320 316 314 311 315 319 318 318 320 322 321 322 321 320 318 314 315 313 311 308 306 306 306 306 306 306 306 306 305 305 304 304 303 302 302 302 301 301 300 300
319 320 321 320 317 317 313 321 321 320 319 320 321 322 322 322 320 317 313 315 313 313 311 309 308 308 307 307 307 308 307 306 306 305 304 304 303 303 302 302 302 302 300
318 319 321 321 320 322 320 321 321 320 319 320 321 322 322 322 321 319 319 314 315 316 316 314 312 309 309 308 308 308 308 307 308 307 306 305 304 304 304 303 303 303 302
320 319 322 322 321 324 321 322 321 319 319 320 320 321 321 321 322 322 321 320 317 313 316 316 316 314 311 309 308 308 307 308 309 308 308 307 305 304 304 304 303 303 303
322 322 322 322 322 324 322 322 320 318 318 319 319 319 320 320 320 321 321 321 320 319 316 316 315 314 312 311 309 308 307 308 308 309 308 307 305 304 303 303 304 303 304
323 323 322 322 322 322 321 320 319 318 318 318 319 319 318 318 319 319 319 320 321 320 319 319 319 318 316 312 311 310 309 308 308 308 308 307 306 305 305 304 304 304 303
321 322 319 318 319 320 319 319 319 318 318 317 318 318 317 317 316 316 316 318 317 319 319 319 319 319 317 315 314 313 312 310 309 309 309 308 308 306 305 305 304 304 304
320 320 317 317 317 317 317 318 317 318 317 317 317 316 316 315 315 315 315 314 314 316 316 318 318 317 316 316 317 317 316 315 312 311 310 309 309 308 307 306 306 304 304
317 316 314 313 314 317 317 318 317 317 317 316 316 314 315 316 316 316 315 314 315 315 316 316 316 317 317 317 317 317 316 316 315 313 311 310 310 309 309 308 307 307 306
314 313 314 313 312 313 314 319 320 318 318 317 316 314 317 320 321 320 317 317 316 316 316 316 315 315 315 316 317 317 316 316 315 314 313 309 311 309 309 309 309 308 308
316 315 315 316 314 315 318 322 322 320 320 321 320 318 318 320 321 321 320 319 318 318 317 317 316 316 315 315 316 316 316 316 316 315 314 313 309 308 308 309 309 309 309
316 315 314 316 321 319 317 322 322 321 320 321 322 322 322 320 318 319 321 320 321 320 319 319 320 320 319 317 316 316 317 316 316 316 315 314 312 308 306 305 306 306 307
317 316 317 315 317 319 321 320 321 320 320 320 319 319 320 319 318 319 320 321 320 320 320 321 320 319 319 318 317 318 318 317 316 315 314 313 312 309 307 307 308 308 306
317 318 317 316 316 322 320 321 319 318 318 319 319 318 319 318 317 317 318 319 321 321 320 320 319 319 318 318 317 316 318 317 316 315 314 314 312 309 307 308 309 306 305
316 318 317 316 317 319 320 320 317 317 317 319 319 318 318 318 318 317 318 317 319 320 321 320 319 318 319 318 318 316 316 316 316 315 315 315 311 309 309 308 306 306 306
317 317 317 316 319 320 321 320 318 317 317 317 318 319 319 318 317 317 317 318 319 320 320 319 318 319 318 317 317 316 315 315 315 315 316 313 309 309 307 308 307 306 305
321 320 318 318 318 320 321 320 320 319 318 318 318 319 319 318 318 318 319 319 319 318 320 320 318 317 316 315 315 316 315 315 316 315 314 313 311 307 308 307 306 304 302
321 320 319 318 318 317 317 317 319 319 319 319 320 320 319 319 320 320 321 320 319 318 320 319 318 317 316 317 317 316 315 314 314 314 313 311 308 308 307 306 304 302 300
322 322 320 320 320 319 318 317 318 319 319 319 319 320 320 320 320 320 320 319 319 319 319 319 319 318 315 317 317 316 314 313 312 312 309 306 306 305 305 304 302 300 295
323 323 323 323 322 321 322 321 321 321 320 320 320 320 320 320 320 320 320 321 321 320 317 319 319 318 315 316 316 314 312 311 309 307 306 306 304 302 301 300 296 292 290
324 325 325 324 324 323 322 321 321 321 321 321 321 321 321 321 321 321 320 320 320 320 319 319 317 317 316 316 316 313 310 309 306 305 304 302 299 296 297 295 292 290 289
325 326 326 325 325 324 323 323 323 322 322 322 322 322 322 321 321 320 320 321 320 319 320 320 318 317 317 316 312 308 307 304 303 303 301 300 299 295 291 291 291 289 289
327 326 325 326 325 325 324 324 323 323 322 322 322 321 321 321 320 319 321 321 321 320 319 317 314 313 311 307 306 304 303 301 299 297 294 291 291 291 291 290 289 288 288
326 326 326 325 324 324 324 323 323 323 322 322 321 321 321 321 321 320 321 321 320 318 315 313 310 307 306 304 303 301 299 296 295 292 292 291 289 287 287 287 288 287 287
327 326 326 325 325 324 324 323 322 322 322 321 320 320 320 321 321 321 320 318 314 311 307 303 301 301 301 300 299 297 295 292 288 287 287 286 287 287 287 287 286 286 286
327 326 325 325 324 324 323 322 323 322 322 321 321 321 321 320 320 318 314 310 308 303 300 297 295 294 294 294 294 293 291 288 286 286 285 285 286 286 286 286 286 285 285

GFSMA_850_thetae_066.txt.gz
Theta_e
326 324 318 313 310 309 309 313 317 320 320 320 321 321 321 320 319 311 308 307 307 307 306 306 306 306 306 305 305 305 304 303 303 303 302 303 302 302 301 301 300 301 300
324 324 320 315 310 309 308 310 315 320 320 322 322 321 321 321 320 316 309 308 307 306 306 306 306 306 306 307 306 306 306 305 305 305 304 304 303 303 302 302 301 301 301
323 326 322 316 313 308 306 307 314 320 321 321 321 321 321 321 320 317 310 309 307 307 306 307 308 308 308 308 309 309 309 308 308 308 307 307 306 305 304 303 303 303 302
317 317 320 317 311 308 306 306 318 321 320 320 321 321 321 320 319 313 311 309 309 308 308 309 309 309 309 310 310 310 310 310 310 310 310 309 307 306 305 305 305 304 304
321 321 324 317 313 309 308 307 320 320 318 321 322 321 320 321 321 318 319 312 312 311 311 310 310 310 310 310 310 310 310 310 310 311 311 310 310 309 307 306 306 305 305
323 323 324 316 313 311 316 317 316 316 318 319 321 321 321 321 321 321 320 318 319 316 315 312 313 313 312 312 312 311 310 310 310 311 310 310 310 310 309 308 308 307 306
322 322 323 318 314 317 320 321 320 319 320 319 321 321 321 321 321 320 320 319 320 319 318 317 315 315 316 317 315 315 313 311 313 312 311 311 311 310 310 309 309 309 308
322 320 319 320 317 315 319 321 320 319 320 319 319 319 320 320 320 320 319 319 319 319 319 318 317 316 316 317 316 315 315 315 315 315 315 314 312 310 310 310 310 310 310
320 320 318 321 319 321 319 321 320 319 318 319 319 319 319 319 319 319 318 318 316 317 317 316 316 315 316 316 316 316 315 315 315 316 316 315 315 314 312 310 310 310 310
319 320 322 323 320 321 321 322 321 318 318 319 319 319 317 318 317 317 317 317 316 315 315 314 314 313 314 316 316 316 316 315 315 315 316 316 316 316 315 313 312 311 310
320 323 323 323 321 322 323 322 320 319 317 318 319 314 315 318 315 315 317 316 315 315 315 315 315 314 315 316 316 316 316 317 316 316 316 316 316 316 316 315 314 313 311
320 321 321 322 321 320 319 319 316 319 318 318 315 315 317 317 315 317 319 319 319 319 318 317 316 317 318 317 317 317 318 318 318 317 316 316 317 316 316 316 315 315 313
320 320 319 319 320 320 318 318 318 318 318 315 315 315 316 317 316 315 315 315 316 318 319 318 319 318 318 319 319 319 319 319 319 318 317 315 315 316 317 316 316 315 315
317 317 320 320 319 317 315 315 316 316 314 315 316 316 316 316 316 317 316 318 320 319 319 319 319 319 319 318 319 319 317 318 319 318 318 316 315 315 317 316 316 315 315
319 318 318 317 317 315 313 314 316 317 315 314 317 319 318 320 320 320 320 320 319 317 317 318 317 317 317 317 316 316 316 317 318 318 318 318 317 316 316 316 316 315 314
317 316 316 316 316 315 313 314 313 314 315 318 319 318 318 318 320 319 319 319 319 317 317 317 317 317 317 316 316 317 317 317 318 318 317 316 317 316 315 316 315 315 315
318 317 316 315 314 314 314 314 314 315 315 317 318 318 318 319 319 319 318 318 319 319 318 318 318 318 317 316 316 317 318 317 317 318 319 316 315 315 315 316 315 315 315
320 317 315 315 315 315 316 314 314 314 316 317 319 320 319 319 319 318 317 317 317 317 318 318 317 317 317 317 317 318 319 318 316 315 318 318 316 315 315 314 315 315 314
321 320 318 315 315 315 315 315 316 316 316 316 316 316 316 318 318 318 318 317 317 317 317 317 317 318 318 318 319 319 319 319 319 315 315 316 317 316 316 316 314 312 311
322 321 320 321 320 320 318 316 315 315 316 316 316 316 317 316 316 318 320 319 318 319 318 319 319 319 319 319 319 320 319 319 319 318 317 317 316 314 314 313 311 308 303
319 321 322 323 322 321 321 321 319 317 316 317 316 316 317 317 316 317 319 319 319 319 319 319 320 320 320 320 319 319 320 320 320 318 317 317 316 314 312 309 306 304 302
323 321 319 322 324 322 322 322 322 321 321 320 319 319 320 318 317 317 318 319 319 319 320 320 320 320 319 319 319 320 320 319 317 316 314 311 309 305 303 303 302 300 300
325 324 324 323 323 321 320 321 322 322 321 321 320 320 319 320 320 319 320 320 320 321 321 321 320 320 320 320 320 319 319 319 315 311 308 305 302 301 301 300 299 294 290
326 326 326 326 325 325 325 323 321 322 322 322 322 322 322 322 322 321 321 321 321 321 321 321 321 321 320 320 319 317 315 311 305 303 302 301 299 298 298 296 292 291 292
323 325 326 326 326 327 327 326 325 323 323 323 323 323 323 322 322 321 321 321 321 321 322 321 321 321 319 317 316 311 305 304 301 299 297 297 297 296 295 294 293 293 291
319 325 325 326 326 325 326 326 327 326 325 325 324 324 323 323 322 322 322 323 322 321 319 316 313 309 306 303 301 299 299 299 298 294 294 294 294 293 291 289 288 287 287

GFSMA_850_thetae_069.txt.gz
Theta_e
324 326 326 323 314 321 322 322 322 321 321 321 321 320 320 319 317 308 309 314 314 314 312 307 306 306 305 305 304 304 304 303 303 302 302 302 302 301 302 301 301 301 300
325 323 327 320 314 317 321 319 321 320 321 321 321 320 320 320 318 310 308 308 314 314 308 306 306 306 306 306 306 306 306 305 304 304 304 304 303 302 302 302 302 301 301
326 324 326 319 313 313 314 316 320 320 320 320 321 320 320 320 319 314 309 308 307 307 307 306 307 307 308 308 308 308 308 308 307 307 307 307 306 305 304 304 304 303 303
326 323 324 314 311 310 310 313 320 319 320 321 321 320 321 320 319 317 311 309 307 307 306 307 308 309 309 309 310 310 310 310 310 310 311 309 309 308 307 306 305 305 305
326 326 322 314 311 309 309 313 319 319 321 321 321 321 321 320 319 315 313 310 308 307 307 309 309 309 309 310 310 310 310 310 310 310 311 310 310 310 308 307 306 306 306
326 325 324 316 310 308 308 310 315 319 321 321 321 321 321 320 320 317 315 311 310 309 309 309 310 310 310 310 310 310 310 310 310 310 311 311 310 310 309 308 308 307 307
323 323 324 318 311 308 306 307 314 320 320 321 321 321 320 320 320 320 320 316 316 315 314 312 312 312 313 313 314 313 313 312 311 311 310 310 310 310 310 310 309 309 308
322 321 324 322 312 308 306 306 318 320 320 320 321 321 320 320 320 321 320 320 319 319 318 317 317 315 315 315 316 317 316 315 314 314 314 314 314 312 311 310 310 309 309
322 324 324 322 314 309 310 308 317 319 316 319 320 321 320 320 320 320 320 320 319 319 319 318 317 316 316 316 316 316 316 316 315 315 315 315 315 315 315 314 312 310 310
322 324 323 323 317 311 315 317 318 318 318 319 320 321 320 318 318 319 319 319 319 318 317 316 315 314 314 314 313 315 316 316 316 315 315 315 315 316 316 316 315 315 313
323 322 322 321 321 316 316 320 321 320 319 319 318 319 318 316 316 314 316 316 318 317 317 315 314 314 314 314 314 314 315 316 316 316 316 316 316 316 316 316 317 316 316
323 322 321 320 320 320 318 318 319 321 320 318 318 318 316 317 315 315 316 316 316 316 315 316 316 316 316 316 317 317 318 318 318 317 317 317 316 316 316 316 317 317 317
323 322 321 321 322 323 321 321 320 321 320 318 318 318 318 315 315 316 317 317 316 317 318 318 317 318 317 318 318 317 317 318 319 318 318 318 318 317 317 316 316 317 317
323 323 321 321 322 323 321 319 321 321 320 318 318 318 318 315 316 316 317 316 315 315 315 314 318 317 317 318 318 318 318 317 316 316 316 317 318 318 318 317 315 315 315
322 321 321 321 322 322 321 320 320 319 318 316 315 315 317 316 315 316 317 316 316 316 317 318 318 317 316 317 317 317 317 316 317 316 316 316 317 318 318 317 317 317 316
322 322 321 320 319 320 320 321 318 317 317 317 316 317 315 315 315 317 317 317 317 319 320 318 318 317 317 317 317 317 317 316 316 316 316 317 317 317 318 318 316 316 315
321 322 321 319 319 319 319 319 317 316 316 316 317 316 313 314 315 318 318 319 320 319 320 319 319 318 318 318 317 316 317 317 317 317 317 318 318 317 317 318 317 315 315
320 319 319 319 318 319 318 317 316 315 314 314 315 317 316 316 318 318 319 319 319 319 319 319 318 317 316 316 316 316 316 317 317 317 318 319 319 318 316 315 318 316 315
320 320 320 320 318 317 317 316 316 315 314 314 314 315 315 314 314 317 318 318 319 319 319 319 318 317 317 317 318 317 317 318 318 318 319 319 320 319 318 315 316 316 316
320 320 320 320 320 319 317 317 316 315 314 315 314 314 314 315 315 316 316 316 316 317 318 318 318 319 319 319 318 317 318 318 317 318 319 319 319 320 319 318 317 316 315
321 320 319 321 321 320 320 319 317 315 315 315 315 315 315 315 315 315 316 316 317 317 317 317 318 319 319 318 318 318 318 318 318 318 318 318 318 319 318 318 317 315 313
324 323 322 321 320 320 320 320 320 320 320 320 320 320 318 317 317 316 316 317 317 318 318 318 318 318 318 318 319 318 318 319 318 317 318 317 316 316 316 315 311 309 305
323 324 324 324 324 324 323 322 321 320 321 320 321 321 321 321 321 321 320 320 319 319 320 320 320 319 319 319 319 319 319 319 318 318 317 316 315 312 307 306 305 304 302
321 320 320 321 322 324 325 325 324 322 320 321 321 321 321 321 321 321 320 320 320 320 320 320 320 320 320 320 320 320 319 318 318 316 311 305 304 302 301 300 300 299 298
319 320 320 321 321 320 321 322 323 322 321 322 322 322 322 322 322 321 321 321 321 322 321 321 320 320 320 320 320 319 318 313 310 304 300 299 298 297 295 294 293 293 292
311 313 315 316 317 320 322 322 322 323 322 323 324 322 320 321 322 322 321 321 322 321 320 319 317 317 315 310 308 308 306 305 303 298 295 294 293 292 292 291 291 291 290

GFSMA_850_thetae_072.txt.gz
Theta_e
326 326 324 326 324 324 325 325 324 323 322 322 321 320 318 316 308 309 314 318 318 319 320 316 312 307 305 304 304 303 303 303 302 302 302 302 302 302 302 302 302 302 302
327 326 325 324 322 324 324 324 323 322 321 321 321 319 319 319 314 308 311 315 316 319 318 316 309 306 305 304 305 304 304 303 303 303 303 303 303 303 303 303 303 302 302
325 325 325 323 324 324 324 322 322 321 321 321 320 319 320 319 317 310 308 308 314 312 312 307 306 306 306 306 306 307 306 306 305 306 307 307 306 305 305 305 303 303 303
325 325 324 323 325 323 324 322 321 321 321 320 320 320 320 320 318 314 310 308 308 309 308 306 306 306 307 308 308 309 309 309 309 309 310 310 309 308 307 306 306 305 305
326 325 325 324 325 320 324 322 321 320 320 320 319 320 320 320 319 317 313 310 308 308 307 306 307 307 308 308 309 310 310 310 310 310 310 310 309 309 309 308 308 306 306
325 326 326 324 323 317 323 322 320 319 320 320 320 320 320 320 319 318 314 312 311 308 307 307 308 308 308 309 309 309 310 310 310 310 311 310 310 310 310 310 309 308 308
325 325 325 325 319 314 315 317 319 319 319 321 321 320 320 320 319 318 314 313 311 311 308 308 309 309 309 310 310 310 311 311 311 311 310 310 311 311 311 310 310 309 309
326 325 324 325 317 312 314 316 317 317 319 320 321 321 320 319 319 319 318 317 314 313 312 311 311 311 312 313 314 315 315 315 315 314 313 313 313 313 312 311 311 310 310
324 322 324 324 316 311 310 313 317 317 319 320 320 321 319 320 319 320 320 320 320 319 319 319 318 317 316 316 315 316 316 316 316 316 316 315 315 315 315 315 315 314 313
325 324 322 322 321 312 310 309 313 313 319 320 321 321 320 319 319 320 320 320 320 320 319 318 318 318 317 316 315 315 315 316 316 316 316 316 316 315 315 316 316 316 316
326 325 322 319 324 320 311 307 307 311 319 320 319 320 321 320 319 316 312 311 311 315 314 314 316 315 315 314 314 314 313 313 314 315 316 316 316 316 316 316 316 316 316
324 325 324 324 322 322 314 308 308 311 319 318 317 317 319 320 319 315 313 312 313 315 316 316 316 316 315 315 315 316 316 315 315 316 316 316 316 316 317 316 316 316 316
324 323 324 324 322 323 318 311 316 315 314 318 318 319 319 319 319 312 314 315 315 315 316 316 317 318 318 318 318 317 317 318 317 317 318 318 318 318 318 317 317 316 316
320 322 324 323 322 321 321 318 312 318 316 317 318 319 319 318 319 316 315 315 314 314 316 317 316 315 315 314 317 316 317 317 317 317 317 316 316 316 316 317 317 318 317
321 322 323 323 323 322 322 320 319 316 318 318 319 320 318 318 318 317 315 315 316 315 316 316 316 316 316 316 318 316 316 316 317 317 317 317 317 316 316 316 316 317 318
321 322 323 323 323 321 321 321 321 320 320 319 319 320 319 317 318 318 315 316 316 316 316 316 316 316 317 318 317 318 317 317 317 317 317 317 317 317 316 317 317 317 317
321 322 322 322 321 320 320 321 322 321 319 318 319 320 319 317 316 315 313 315 316 315 317 317 318 318 319 319 318 317 317 317 317 316 316 316 316 316 317 317 318 318 318
320 321 323 321 321 320 319 319 319 320 320 320 319 318 318 317 317 315 315 315 314 314 317 318 318 318 318 318 318 318 318 317 316 316 316 317 317 317 317 318 318 319 319
320 320 320 321 322 321 319 319 318 319 319 319 318 317 317 316 316 315 317 317 314 314 316 317 318 318 318 318 318 318 318 317 317 319 318 317 317 317 317 318 318 319 319
319 320 320 320 319 319 320 319 318 318 319 319 317 316 316 316 315 315 315 315 315 315 315 317 319 318 317 316 317 316 316 316 316 317 317 317 317 317 317 318 318 318 318
321 320 319 319 319 319 319 320 320 319 317 317 317 316 316 315 315 314 314 314 314 315 316 317 317 317 316 316 316 316 316 316 317 318 317 317 317 318 318 318 317 317 318
322 323 323 322 322 322 321 320 319 319 320 320 319 317 317 316 315 315 315 315 315 316 316 316 316 316 316 316 317 317 317 318 317 317 317 317 317 317 317 318 318 316 314
320 320 320 320 320 321 321 321 322 321 321 320 320 319 319 319 320 319 319 319 319 318 317 317 317 317 317 317 318 318 318 318 318 318 318 318 317 315 314 311 311 309 309
320 319 320 319 319 319 319 320 320 320 320 320 321 321 321 321 321 319 319 319 319 320 320 320 319 318 318 318 318 318 318 318 318 318 317 314 312 306 303 302 300 299 299
314 315 316 317 317 318 319 319 319 320 320 320 320 321 320 320 321 321 319 318 318 317 317 318 318 318 319 319 319 319 318 316 313 311 306 303 299 297 295 295 293 292 292
307 307 307 307 307 308 311 314 315 315 316 318 316 317 318 318 318 319 319 318 318 317 317 317 315 313 310 305 312 312 310 307 303 299 296 294 292 291 289 287 288 289 290

GFSMA_850_thetae_075.txt.gz
Theta_e
325 323 326 325 327 326 327 326 325 324 323 322 322 321 319 314 312 315 318 319 318 318 317 319 314 309 307 309 306 303 303 302 302 302 302 303 303 303 303 303 303 302 302
325 325 327 324 326 324 325 325 324 324 323 322 321 320 317 313 310 315 317 318 319 318 318 318 316 311 308 305 303 303 303 303 303 303 303 303 303 303 304 303 303 303 303
326 326 326 325 325 322 325 325 325 325 322 322 321 319 318 317 311 311 314 318 318 318 318 318 313 312 311 305 304 304 304 303 304 304 305 305 306 306 305 305 304 304 303
327 327 326 325 326 322 326 325 325 323 321 322 321 319 319 318 314 310 311 315 317 317 317 315 311 310 308 307 305 306 306 306 307 308 309 309 309 309 308 307 306 305 304
328 327 326 325 325 321 326 325 323 322 321 321 320 319 320 319 317 314 310 312 315 316 316 313 308 307 309 308 307 309 309 309 310 310 310 310 310 309 309 308 308 307 307
326 327 326 325 323 324 325 325 322 321 321 321 320 320 319 318 318 317 315 312 312 312 312 313 311 309 307 308 308 309 310 310 310 310 310 310 310 310 310 310 310 309 309
326 326 326 325 324 324 323 324 322 321 320 320 320 319 319 319 319 318 316 314 312 311 310 310 309 308 308 308 308 309 310 310 310 310 310 310 310 310 310 310 311 310 310
327 327 327 326 324 325 322 324 322 320 320 320 320 320 319 318 318 319 318 314 312 310 310 308 308 308 309 309 310 310 311 312 313 314 313 312 311 311 312 312 311 311 311
326 326 326 324 322 324 319 322 322 320 319 320 321 321 320 321 320 319 319 317 317 313 312 311 311 311 312 311 312 314 315 315 316 316 316 316 315 315 315 315 315 315 315
325 326 325 325 324 324 317 317 321 321 319 319 321 321 320 320 320 319 320 320 319 319 318 318 318 318 318 317 316 315 315 316 316 317 317 317 317 316 316 316 316 316 316
324 323 322 321 324 322 315 312 313 317 318 318 320 320 320 320 319 318 320 320 320 320 317 317 316 316 317 316 316 314 314 314 314 315 315 315 316 317 316 316 316 316 316
325 325 323 322 321 322 314 311 312 315 317 317 318 320 320 320 320 319 317 317 318 316 313 312 313 314 314 315 315 313 313 314 315 315 314 314 315 315 316 316 316 316 317
323 324 325 323 321 322 319 312 311 310 313 315 315 319 320 319 319 318 318 316 312 312 312 313 315 316 317 316 313 316 318 318 317 317 316 316 316 317 317 317 318 317 317
321 323 324 324 324 321 321 322 313 309 308 308 312 318 318 318 317 318 319 318 313 314 315 315 315 314 316 315 316 315 315 316 316 316 317 317 317 317 318 317 317 317 317
320 320 323 324 324 323 322 322 316 310 309 311 312 318 316 318 318 319 319 318 315 314 314 314 315 314 314 315 315 316 316 317 317 316 316 317 317 317 317 317 317 317 317
320 319 320 321 323 324 323 322 321 315 312 315 316 314 315 317 319 319 319 318 317 315 315 315 316 315 315 315 316 317 317 317 317 317 317 317 317 317 317 317 316 316 317
319 320 321 321 322 322 324 323 321 321 317 313 316 317 316 316 317 315 318 318 317 318 317 315 315 315 316 315 316 317 317 318 318 318 317 318 317 316 315 316 316 317 317
320 320 321 319 321 322 323 323 320 320 321 320 320 318 319 318 318 318 318 318 316 317 316 316 315 315 316 315 315 317 317 317 318 318 318 318 318 317 317 318 317 317 317
320 320 320 321 321 321 321 321 321 320 319 320 321 321 320 319 319 319 319 317 317 316 316 315 314 316 317 317 317 315 315 316 317 317 317 316 316 316 316 316 318 317 317
319 320 320 320 320 320 321 320 320 319 318 318 318 318 319 319 319 318 318 318 317 317 317 317 317 317 317 317 317 317 317 317 317 315 315 315 316 317 316 317 317 317 317
321 320 320 319 319 319 319 318 318 318 318 318 319 319 319 318 318 318 317 317 316 317 317 317 317 317 317 317 318 318 318 317 316 316 316 317 318 318 318 318 317 317 317
322 321 321 321 321 320 320 319 319 319 319 319 319 319 320 319 319 318 317 317 317 317 317 317 317 317 317 317 317 317 317 317 318 318 317 317 317 317 317 318 317 317 317
320 320 320 320 320 320 320 320 320 320 319 318 319 319 320 319 319 319 319 319 318 318 318 317 317 317 317 317 317 317 317 317 317 317 318 317 316 315 314 313 314 315 315
317 318 318 318 318 318 319 319 319 319 319 320 319 318 317 317 318 318 318 319 319 320 319 319 318 317 316 316 316 317 317 317 317 317 317 316 311 306 300 300 297 297 299
312 313 313 314 313 313 315 316 317 317 317 316 317 317 316 316 316 317 318 317 317 316 316 317 317 316 316 316 316 316 315 313 308 305 302 300 293 294 292 292 292 292 292
302 301 302 303 302 303 303 305 307 308 308 309 311 312 313 313 314 316 316 317 315 314 313 313 312 311 309 308 304 303 306 307 305 301 302 299 297 295 291 288 289 290 291

GFSMA_850_thetae_078.txt.gz
Theta_e
328 325 324 326 326 327 326 328 327 327 327 327 326 325 324 323 322 320 320 319 320 319 318 319 317 315 311 312 309 306 304 303 302 302 302 302 302 302 302 302 303 303 302
330 325 325 326 326 326 327 327 326 326 327 326 326 325 323 320 320 320 320 319 319 319 319 320 319 319 315 313 308 304 303 302 302 302 302 302 302 302 303 302 303 302 302
327 326 325 324 326 326 326 325 326 326 326 325 325 324 322 320 319 319 319 319 319 318 318 319 319 319 317 310 305 303 303 303 303 302 302 303 302 303 303 304 303 303 303
328 327 325 326 326 327 325 326 325 326 325 324 324 323 322 321 319 319 319 320 320 319 318 319 319 318 318 307 304 304 304 304 304 304 305 305 306 306 306 307 306 305 305
328 328 326 326 326 326 325 325 325 325 324 324 323 322 322 321 320 318 319 319 319 319 318 318 318 317 316 315 307 307 307 307 307 308 308 309 309 309 309 308 308 307 306
327 328 326 326 325 325 319 324 325 324 324 323 322 322 323 322 321 319 319 318 319 319 318 320 316 316 315 314 309 309 310 309 309 310 310 310 310 310 310 310 309 308 308
328 326 326 327 326 325 322 324 325 325 324 324 322 322 322 322 322 321 321 319 319 318 318 318 318 317 314 309 309 309 310 311 310 310 310 310 311 311 311 311 310 310 310
326 328 326 327 326 325 322 323 324 324 323 323 322 322 321 321 320 321 321 320 319 318 318 318 318 318 318 316 309 309 309 310 312 312 312 311 311 311 311 311 311 311 311
324 327 327 326 326 325 323 324 324 324 323 323 322 321 321 321 321 322 320 320 318 318 318 318 317 315 314 315 313 310 311 312 313 315 316 316 315 314 313 314 314 314 315
324 325 326 326 325 325 325 322 323 323 322 323 322 321 321 320 321 322 322 320 318 316 314 311 312 310 310 311 313 312 313 313 314 315 316 317 318 317 317 316 316 316 316
324 325 325 326 325 323 324 322 323 323 322 322 322 322 322 323 321 320 321 321 321 319 317 314 315 312 312 316 316 316 315 315 314 315 315 315 316 316 317 317 317 316 316
323 325 325 325 322 321 322 324 321 322 322 322 321 321 321 322 321 321 320 321 321 320 316 316 315 314 313 313 313 313 314 314 314 314 314 314 314 314 314 315 315 316 316
325 323 323 323 323 324 324 324 318 318 321 321 321 320 321 321 321 321 319 318 319 320 320 317 315 315 313 313 316 317 316 314 313 315 316 317 316 316 315 315 315 315 316
324 324 323 324 321 321 322 321 316 314 313 316 318 320 320 318 320 321 320 320 317 317 318 317 314 312 312 313 315 315 316 317 316 316 315 316 317 317 317 317 317 317 317
321 321 322 324 324 323 321 322 315 312 311 313 315 315 316 316 318 321 320 320 318 319 318 317 317 317 315 314 314 314 314 314 316 316 317 316 316 317 317 317 317 317 317
320 320 320 322 324 324 324 322 322 320 318 313 309 310 311 310 317 320 319 318 319 319 319 317 316 315 316 315 314 314 315 315 316 317 317 317 317 317 317 317 317 317 317
320 320 320 321 322 323 324 322 321 321 322 317 310 310 310 312 311 314 316 316 318 318 318 318 318 317 317 317 317 316 315 316 316 315 317 317 317 317 317 318 318 318 317
320 320 320 321 322 322 322 323 323 322 322 321 316 310 311 313 315 317 316 315 316 316 316 315 317 317 317 316 317 318 318 318 317 316 315 316 316 316 317 318 318 317 317
319 320 320 321 321 321 321 322 322 322 322 321 320 320 313 314 315 316 316 316 317 317 317 318 318 317 317 317 318 318 318 318 319 319 316 315 315 314 314 315 316 316 315
320 320 321 321 320 320 320 321 322 322 321 320 320 320 320 319 320 319 320 320 319 319 319 319 318 319 318 318 318 318 318 319 319 319 319 319 319 318 318 318 318 318 319
320 320 320 319 321 321 320 320 320 320 320 319 319 318 319 319 319 319 320 320 320 320 320 320 319 318 319 319 319 319 319 319 319 320 320 320 320 320 320 319 319 319 319
321 320 320 320 321 320 319 319 319 319 319 319 319 319 319 319 319 319 319 319 319 319 319 319 319 319 318 318 318 319 319 319 319 320 320 320 320 319 319 318 318 318 318
319 320 320 320 320 319 319 319 320 319 319 319 318 318 318 318 319 319 319 319 318 319 319 318 318 318 319 318 318 318 318 318 318 318 318 318 319 318 317 316 316 316 315
316 316 316 316 316 316 317 318 318 318 316 316 316 317 317 316 316 316 316 316 317 317 317 317 317 317 317 317 316 316 316 316 316 316 314 313 313 309 308 307 305 300 300
313 313 312 311 311 312 313 315 315 313 314 313 314 314 314 314 314 315 315 314 314 314 314 314 315 315 313 313 313 313 311 308 309 308 307 305 305 305 302 299 299 298 296
303 302 302 302 301 303 304 305 305 306 307 307 306 304 305 307 308 309 310 310 310 310 309 308 307 306 303 302 301 301 302 302 302 300 299 298 297 294 291 290 290 289 290

GFSMA_850_thetae_081.txt.gz
Theta_e
332 331 330 330 329 326 326 327 326 328 328 329 327 326 325 325 324 325 323 319 321 321 319 319 319 319 315 313 313 310 308 306 304 303 302 302 302 302 302 302 302 301 301
333 331 328 327 326 326 327 327 328 328 327 328 327 325 324 324 323 322 322 320 320 320 318 320 319 319 318 318 316 308 305 304 302 302 302 302 302 303 302 303 302 302 302
331 329 329 326 324 325 326 326 328 327 328 327 325 324 324 322 321 322 322 320 320 319 319 319 319 319 319 316 310 304 303 303 302 303 302 303 302 303 303 303 302 303 303
331 331 329 325 325 325 327 328 327 327 326 326 324 324 323 321 320 321 320 320 319 319 318 319 318 318 318 318 308 303 303 303 303 303 303 303 304 304 305 305 304 304 304
330 330 327 326 325 325 327 326 326 326 326 325 323 323 322 321 320 320 321 320 319 319 319 319 318 317 318 316 312 308 304 304 304 305 305 306 307 308 308 308 307 306 306
330 328 328 326 326 325 326 325 323 325 326 324 323 323 322 321 320 319 320 321 321 320 319 319 316 316 314 315 309 307 309 307 307 308 309 310 310 309 309 309 309 308 308
328 328 329 327 326 325 326 325 323 325 323 323 323 322 322 322 321 320 320 319 320 320 320 321 319 318 312 308 308 308 310 311 310 310 310 311 311 310 310 310 310 310 310
327 325 326 327 327 326 326 325 323 323 323 323 322 322 322 321 321 320 320 320 320 320 320 320 320 319 319 316 309 310 310 311 311 311 311 311 311 311 311 311 311 311 311
326 326 325 326 327 326 325 323 321 322 323 323 322 322 322 321 321 321 321 321 320 320 320 320 319 319 319 320 317 310 310 310 310 311 312 313 313 312 312 311 312 313 313
327 326 325 326 324 325 325 318 322 322 322 322 323 322 321 320 321 323 322 321 321 320 320 320 319 319 318 318 318 316 310 310 312 313 314 315 316 316 315 315 315 315 315
325 324 325 325 326 326 325 325 321 321 322 322 323 323 321 321 322 322 322 322 321 321 320 319 319 318 317 311 311 310 312 312 313 313 314 314 315 315 316 316 316 317 317
325 323 325 325 325 326 325 324 320 319 322 322 322 322 322 322 323 321 321 322 321 322 321 320 316 316 318 319 316 312 312 313 313 314 314 314 314 314 314 314 314 314 314
325 323 323 324 325 325 324 324 322 321 322 322 322 321 321 322 322 321 321 321 321 322 323 321 318 315 314 314 314 313 313 314 315 315 314 315 313 315 315 315 315 315 315
325 323 324 324 324 324 322 324 321 321 322 322 321 321 322 321 320 320 322 321 319 319 318 321 321 321 321 320 314 314 312 314 316 316 314 314 316 316 315 315 317 317 317
325 324 324 322 324 323 322 322 322 324 322 320 321 320 321 318 320 319 319 317 321 319 319 317 319 318 317 316 313 314 314 313 314 315 315 316 316 315 317 317 316 317 317
323 323 322 323 324 322 322 322 323 323 319 317 314 312 315 317 313 315 315 314 317 319 320 318 317 317 318 318 317 318 316 315 314 315 315 315 315 316 316 317 317 317 317
322 321 321 322 322 323 323 322 321 321 320 315 313 312 313 314 313 312 315 313 313 318 319 319 317 317 318 318 317 318 319 319 316 315 314 314 315 316 316 317 318 317 317
321 321 321 321 322 323 322 324 324 322 321 321 318 316 317 313 311 311 311 310 314 316 314 316 315 316 317 316 316 317 317 317 317 319 318 317 315 314 314 315 316 315 315
320 320 321 321 322 322 322 322 323 323 321 321 322 322 322 318 312 312 311 311 312 313 315 316 315 316 315 317 317 318 318 318 317 315 317 315 315 316 317 317 318 318 318
321 319 320 320 321 321 321 321 322 322 323 322 322 322 321 320 320 319 314 312 314 315 316 317 317 318 319 319 319 319 319 319 319 318 319 319 318 319 319 320 320 320 320
322 322 320 320 320 320 320 321 321 322 322 323 322 321 320 321 321 320 321 320 319 320 321 321 321 321 320 320 321 320 320 320 320 320 321 321 322 322 322 321 321 321 320
320 321 321 321 321 321 321 321 321 322 321 320 320 320 320 319 320 319 319 319 319 320 320 320 320 320 320 320 320 321 321 321 321 320 320 320 321 322 322 322 321 321 321
320 320 320 320 320 320 320 320 319 319 319 319 319 319 319 319 319 319 319 320 320 320 320 320 319 319 318 318 319 319 319 319 317 317 317 317 317 317 316 315 313 311 311
315 315 316 316 316 317 318 318 318 317 317 317 317 317 317 317 317 317 317 317 316 317 317 317 317 316 316 316 316 316 315 315 314 312 311 308 309 309 308 307 307 308 305
310 309 309 309 311 311 312 312 313 313 311 311 310 310 310 311 310 311 312 312 312 312 311 311 311 310 307 306 306 306 305 305 305 304 303 303 302 301 300 298 297 296 294
303 304 305 304 305 305 306 306 306 307 306 304 304 304 304 304 304 305 305 306 305 305 303 301 301 300 300 299 299 299 299 299 299 298 297 297 296 294 293 292 292 291 290

GFSMA_850_thetae_084.txt.gz
Theta_e
333 333 331 328 328 327 327 328 327 327 325 328 329 327 327 325 326 325 325 324 321 319 320 319 320 320 315 311 312 308 306 304 305 305 304 303 302 302 302 302 302 302 302
333 332 331 331 329 327 329 328 327 326 326 327 326 328 325 325 325 324 324 322 318 321 319 321 322 321 318 311 309 306 306 306 305 303 302 302 302 303 303 303 303 303 302
333 333 331 330 330 330 329 326 326 327 327 327 326 325 324 324 323 322 322 319 320 319 319 318 318 319 312 317 314 307 306 304 303 302 302 302 303 303 303 303 303 303 303
332 332 332 330 329 327 327 326 327 327 327 326 326 325 324 323 321 321 321 319 319 319 317 318 318 318 318 317 314 306 304 303 303 303 303 303 303 303 303 304 304 304 303
331 331 330 330 329 326 325 325 325 326 327 326 325 323 323 320 321 322 321 321 317 318 318 318 318 318 318 318 310 304 303 303 303 304 304 304 304 305 306 307 307 306 306
330 329 330 330 328 325 325 325 327 327 326 326 323 323 322 321 320 320 321 320 320 317 315 318 318 317 317 318 310 305 304 305 305 306 307 307 308 309 309 309 308 308 308
329 329 330 329 327 326 326 325 327 325 326 324 323 323 322 321 319 320 320 321 320 319 319 316 317 316 312 316 311 305 307 309 309 310 310 311 311 311 310 310 310 310 310
328 329 328 328 327 327 325 325 325 325 326 323 322 322 322 321 320 320 320 319 321 320 321 320 320 319 311 311 308 308 310 311 312 312 311 311 311 311 311 311 311 311 311
328 327 327 326 329 327 326 326 325 323 323 324 323 322 321 321 320 320 320 320 320 320 319 321 321 320 318 318 318 310 310 311 311 311 311 312 312 311 311 311 311 311 312
328 327 327 327 327 324 326 326 325 321 322 324 322 321 320 320 320 321 320 319 320 320 319 320 319 319 319 320 320 318 310 310 310 310 311 313 314 314 314 313 313 313 314
327 326 328 327 325 325 326 326 326 323 322 323 322 322 320 321 321 319 321 321 320 321 320 319 320 320 319 319 319 319 314 311 310 310 311 312 313 314 315 315 316 316 316
326 326 324 324 325 324 323 325 325 321 320 323 322 321 322 321 322 323 322 321 320 320 319 318 318 319 319 317 314 315 314 312 312 314 314 313 313 313 313 312 312 313 313
325 325 324 324 325 324 325 324 322 321 321 321 321 322 323 322 321 322 322 322 322 321 321 321 319 318 315 315 314 313 313 313 313 313 314 315 314 314 313 313 314 315 316
326 325 323 323 324 325 324 325 325 320 321 321 322 322 322 322 322 321 321 321 321 321 322 322 321 320 318 316 314 313 313 314 314 313 314 316 315 316 315 314 316 316 315
324 325 324 324 323 325 324 324 324 321 320 319 322 321 321 320 320 322 322 320 320 319 319 319 320 320 320 319 318 317 315 314 313 313 314 314 314 315 316 316 315 315 316
325 325 324 324 324 324 324 324 323 320 320 321 322 321 321 320 320 320 320 318 319 318 317 318 318 319 319 318 318 318 317 317 316 317 316 315 314 315 315 315 315 316 316
323 323 323 323 323 323 323 322 323 322 321 321 322 321 320 318 315 316 319 315 317 316 315 315 315 315 315 316 316 317 318 318 318 318 318 318 316 314 314 314 314 315 315
322 322 322 322 322 322 322 322 322 323 323 323 319 316 314 314 315 315 315 315 314 314 313 313 313 316 318 317 317 317 317 317 317 317 318 318 317 316 316 315 316 316 314
320 321 321 322 321 322 323 322 323 322 322 321 321 319 317 315 317 316 317 316 313 313 315 311 311 313 313 314 316 316 317 318 318 318 318 318 318 317 317 318 318 317 318
320 320 321 322 322 322 322 322 322 322 322 322 322 322 322 321 321 320 320 318 315 313 312 311 311 312 314 318 319 320 320 320 320 319 319 320 320 320 320 320 320 320 320
321 320 320 320 321 322 321 321 321 321 321 321 322 322 321 321 321 321 319 319 319 318 318 318 318 318 319 320 321 322 322 321 322 322 322 321 321 321 322 322 321 321 321
320 321 320 320 320 320 320 321 321 321 321 321 322 321 322 321 321 321 320 320 319 320 321 320 320 320 320 319 319 319 319 319 319 319 319 319 317 317 316 316 316 315 314
319 320 320 320 320 320 320 320 320 320 321 321 320 319 319 319 319 319 318 319 319 319 319 319 318 318 317 317 317 317 317 315 314 314 315 315 314 313 312 312 313 312 311
318 317 317 317 317 318 319 320 320 319 318 318 318 318 318 317 317 317 316 315 315 315 315 315 313 312 311 310 310 310 310 310 309 308 307 306 306 306 304 304 302 302 299
311 309 307 309 310 311 312 314 314 314 314 313 312 312 311 311 312 311 311 310 309 308 307 306 305 304 303 302 304 305 305 304 303 302 301 300 299 298 298 298 297 295 294
304 307 304 304 303 305 303 306 307 307 306 306 305 305 306 306 305 305 304 304 302 301 300 299 299 298 298 297 296 297 297 297 297 296 295 294 294 293 292 292 291 290 290

GFSMA_850_thetae_087.txt.gz
Theta_e
334 332 332 332 330 327 326 328 326 327 325 327 327 326 327 327 327 328 327 325 324 323 317 316 323 322 321 318 317 311 309 308 306 304 303 305 305 303 302 302 301 302 301
334 333 332 332 331 328 328 327 326 326 326 326 328 326 327 327 326 326 325 324 322 321 317 310 319 318 318 316 315 312 308 305 304 305 305 303 302 302 302 302 302 303 302
333 333 333 331 329 328 328 327 328 327 327 327 328 326 327 325 325 324 323 322 321 320 318 319 320 321 322 318 313 307 308 306 306 304 303 302 302 303 303 303 303 303 303
331 332 333 332 331 330 328 327 328 327 327 327 328 326 325 325 324 322 322 321 319 319 319 320 319 319 319 317 318 308 306 306 304 303 302 303 303 303 304 304 304 304 304
332 332 331 332 331 330 328 328 327 326 327 327 326 325 324 324 323 322 321 320 318 317 317 317 318 317 317 319 313 308 305 304 303 303 303 303 304 305 305 306 306 306 306
332 331 331 330 330 329 328 327 326 326 327 328 325 325 324 323 322 321 320 320 319 316 316 317 318 317 318 318 308 306 304 303 303 304 304 305 306 307 308 309 309 309 308
330 331 330 330 329 329 328 327 325 325 325 327 326 324 323 321 320 321 320 320 319 320 315 317 318 317 315 314 308 305 304 304 304 305 307 308 309 310 311 310 309 309 309
329 330 328 329 329 329 326 325 325 326 327 325 325 323 321 320 320 320 320 320 320 320 318 317 316 317 319 313 309 306 305 306 307 308 309 310 311 311 311 310 310 310 310
327 327 328 328 328 328 326 325 325 326 326 325 324 322 321 321 319 319 320 320 320 320 319 320 319 320 320 312 310 308 307 308 310 311 311 311 311 311 311 311 311 311 311
327 327 328 328 327 327 325 326 325 326 325 324 323 322 320 321 320 320 319 320 319 320 320 320 320 320 320 318 318 318 317 309 310 311 311 311 311 312 312 312 311 311 311
327 327 327 327 327 326 327 326 326 325 325 324 323 322 320 320 320 320 320 320 319 319 320 320 319 319 319 318 319 319 318 317 311 310 309 310 311 312 314 315 315 315 315
327 327 326 326 327 326 326 325 325 325 325 323 323 322 321 319 320 320 319 319 318 319 319 320 319 320 320 320 319 318 319 319 316 314 311 311 312 313 313 313 313 313 314
327 327 326 326 324 325 324 325 326 325 323 321 323 322 321 320 322 321 321 321 320 319 319 321 320 319 320 320 318 317 316 315 312 311 312 314 315 315 315 315 315 315 314
326 325 325 324 324 324 325 325 325 325 322 322 323 322 320 319 323 322 323 322 323 322 320 320 320 321 319 318 317 315 314 313 313 313 314 314 314 315 316 315 315 316 315
325 326 325 323 323 324 324 324 324 324 324 321 322 322 320 322 322 321 321 321 321 321 321 321 322 321 320 319 320 319 318 317 317 317 316 315 314 315 315 314 314 316 316
325 325 324 324 323 323 324 324 325 324 322 321 320 321 321 322 322 321 321 321 321 319 318 318 318 318 318 320 320 319 319 318 318 317 317 316 317 317 317 317 315 315 315
325 324 325 324 324 324 324 324 324 324 322 322 321 321 322 322 321 320 320 321 320 319 318 317 318 319 318 316 316 317 317 317 317 317 318 318 317 318 318 317 318 317 316
322 323 323 324 323 323 323 324 323 323 322 321 320 321 321 321 321 321 319 315 316 316 316 316 318 318 317 314 314 315 317 318 317 317 316 316 316 317 317 317 318 317 318
321 321 322 322 322 323 322 323 322 322 321 321 321 320 322 319 319 316 314 316 317 316 315 315 315 314 313 311 312 314 315 315 318 319 319 319 320 320 319 319 318 318 318
320 321 321 322 321 321 322 322 322 323 322 322 322 322 321 320 319 317 317 319 319 317 317 317 314 314 314 315 313 315 319 320 320 319 320 320 319 320 320 320 320 319 319
319 320 321 322 322 321 322 322 322 322 322 321 320 320 319 319 320 320 320 320 319 318 319 319 318 318 319 318 318 319 319 320 320 318 318 319 319 319 319 319 318 316 317
319 319 320 320 321 321 322 321 321 321 321 321 320 320 319 320 320 321 320 319 318 318 318 319 318 319 319 318 318 319 319 319 318 318 316 316 315 316 316 315 314 314 312
321 319 319 320 320 320 320 320 321 321 321 321 319 319 318 317 317 319 319 319 319 319 319 318 318 317 317 317 317 316 314 313 312 312 312 311 311 311 308 306 306 303 305
317 317 316 318 319 319 319 319 320 320 319 319 318 317 316 316 317 317 317 315 315 314 313 313 311 310 310 309 309 309 309 308 307 306 306 305 304 303 301 299 298 298 298
309 310 309 310 313 315 314 312 312 315 316 316 315 315 314 312 311 310 311 310 308 307 306 304 303 303 302 302 303 302 302 302 302 301 300 298 297 296 296 295 294 292 291
302 302 303 304 306 308 303 305 305 307 309 308 307 306 307 307 307 306 304 302 300 299 299 299 299 298 297 297 297 297 296 296 296 295 294 293 293 292 292 291 290 289 288

GFSMA_850_thetae_090.txt.gz
Theta_e
331 331 331 331 332 331 329 327 327 326 327 326 327 327 329 328 328 329 328 328 326 324 325 324 323 324 323 322 322 321 317 314 312 309 307 304 303 303 304 304 303 302 301
332 332 332 331 332 332 329 327 328 328 326 326 327 327 328 328 328 327 328 327 324 323 322 323 324 324 322 321 320 318 316 313 312 307 304 303 305 304 302 302 302 302 302
332 332 332 331 332 331 327 327 327 327 326 326 328 327 328 328 327 327 327 325 323 322 320 318 321 322 322 321 320 317 316 312 310 305 304 305 303 302 302 302 303 303 303
332 332 332 332 332 331 328 328 327 326 326 326 326 327 327 327 326 326 325 323 321 320 319 319 318 318 320 320 317 315 311 309 306 305 305 303 302 302 303 303 304 304 304
330 330 326 332 332 330 329 328 328 327 326 327 327 327 327 326 325 324 322 321 320 319 319 319 319 319 319 319 316 311 310 306 306 304 303 302 303 303 303 304 304 304 304
329 330 330 330 331 331 330 329 327 327 327 327 327 327 326 325 324 322 321 321 319 318 317 317 318 318 317 316 316 314 313 307 304 303 302 303 303 303 304 305 305 306 306
323 331 331 330 330 330 330 329 328 328 327 326 327 327 325 324 323 322 321 320 319 317 316 316 317 317 316 319 316 309 314 311 304 303 303 303 304 305 306 307 309 309 308
328 328 330 330 330 329 329 328 328 327 325 326 327 326 321 323 322 321 321 319 319 319 318 316 316 317 317 315 314 314 308 313 307 304 304 305 306 307 309 310 309 309 309
326 327 328 330 329 329 329 328 328 327 325 326 325 322 320 320 321 321 320 320 319 320 319 316 315 316 317 318 317 312 309 306 306 306 307 308 309 310 310 310 310 310 310
327 327 328 329 328 328 328 328 327 326 325 325 325 324 321 320 320 320 320 320 319 319 320 319 319 319 319 319 315 312 311 309 308 309 311 311 311 311 311 311 311 311 311
323 327 327 327 327 328 327 327 325 325 325 326 325 324 321 320 320 319 320 321 320 320 319 320 319 319 319 319 318 317 317 318 316 309 310 311 310 311 312 313 313 313 313
325 326 326 328 328 327 327 326 325 326 326 325 324 322 321 320 319 319 319 320 319 320 319 320 319 319 319 319 319 319 318 317 317 317 312 310 309 310 311 312 313 313 314
326 326 327 327 326 326 327 326 326 326 325 325 324 322 321 320 319 319 318 319 319 319 320 320 319 319 319 319 319 319 319 318 317 316 317 314 313 312 314 314 314 315 315
325 325 326 326 328 327 326 325 325 325 326 323 324 322 321 320 319 318 317 320 320 320 319 318 319 319 320 319 319 319 319 319 317 316 315 313 313 314 315 315 315 315 314
325 325 326 326 325 323 324 325 326 325 325 324 325 323 322 321 320 319 322 321 322 321 321 320 319 320 321 320 320 319 319 319 318 316 315 315 315 315 314 314 315 315 315
324 324 325 325 324 323 323 324 324 325 325 325 324 323 322 322 320 322 322 322 321 321 321 321 322 321 319 320 320 318 319 321 320 318 318 318 317 317 316 317 317 317 317
324 324 325 324 324 323 323 324 324 324 324 324 322 323 322 321 318 322 322 321 321 321 320 319 318 319 318 318 318 318 317 317 317 317 317 317 317 318 318 318 318 318 318
323 324 324 325 324 323 324 324 324 324 324 323 322 322 323 320 320 321 321 320 320 320 320 319 317 317 316 318 318 318 314 317 318 319 318 317 315 315 316 316 316 317 317
322 321 322 323 323 323 323 323 323 323 323 323 323 321 321 321 322 321 321 319 320 317 316 315 315 316 316 317 315 314 313 311 311 313 315 316 319 319 319 320 320 320 319
322 321 321 322 322 323 323 323 323 322 323 323 322 321 321 321 321 320 320 321 319 316 315 318 318 318 318 316 316 316 315 316 317 319 320 319 320 319 319 319 319 319 319
320 319 320 321 321 321 321 322 322 322 322 321 321 320 320 320 320 321 320 318 317 319 319 318 318 317 317 317 317 318 318 318 318 318 317 317 317 317 317 317 316 317 317
319 319 320 322 322 320 321 322 322 322 322 321 321 322 321 321 321 320 320 319 320 319 318 318 317 318 317 316 316 318 318 318 318 316 314 314 314 313 311 311 311 308 311
319 319 320 321 321 322 321 321 321 321 321 321 320 320 319 320 320 319 319 319 319 318 318 318 318 318 317 317 316 316 315 315 313 312 312 309 309 307 305 303 302 299 299
318 318 318 318 319 320 320 320 320 320 320 320 319 319 318 318 317 318 317 318 317 317 316 315 314 313 312 312 312 310 310 309 308 307 306 304 302 301 300 298 296 295 294
313 313 315 313 314 316 315 315 316 318 318 317 315 314 315 315 315 315 313 313 313 311 309 308 307 306 305 304 303 304 303 302 302 300 300 299 298 297 295 293 292 291 290
304 303 307 306 303 305 304 307 309 312 312 311 309 307 307 308 307 306 306 306 306 303 302 301 300 299 299 299 299 297 297 296 296 295 294 293 292 292 292 290 289 288 288

GFSMA_850_thetae_093.txt.gz
Theta_e
330 330 330 330 331 332 332 327 326 328 328 328 328 328 329 328 329 328 327 326 327 327 326 325 325 325 323 324 324 324 324 323 321 316 312 309 307 306 304 303 303 303 303
330 330 330 330 330 331 329 327 327 326 328 328 328 328 328 328 328 328 327 326 327 326 325 325 325 324 323 323 322 322 321 320 316 313 309 307 305 303 304 304 303 302 301
332 332 332 331 330 331 330 329 327 327 327 326 326 326 328 327 327 327 327 328 327 325 323 323 324 323 323 322 321 321 320 319 317 315 309 304 303 304 303 302 301 301 302
333 332 331 330 330 331 332 330 327 328 327 326 326 326 327 328 328 327 326 328 326 324 322 320 322 322 323 321 320 319 318 318 318 313 306 304 305 302 302 302 302 302 303
333 332 331 330 331 331 331 329 327 327 327 326 326 327 327 326 327 326 326 328 324 322 321 318 318 321 320 319 319 319 318 315 312 313 306 305 303 302 302 303 303 303 303
332 332 331 328 331 331 331 329 327 327 327 327 326 326 327 326 327 326 326 325 322 321 319 318 319 319 319 319 319 318 319 314 311 314 309 303 302 302 303 303 303 304 304
333 331 330 326 328 332 331 330 328 328 327 326 327 327 327 327 327 326 326 322 321 320 318 317 317 318 318 319 318 318 318 318 316 311 309 303 302 303 303 304 304 305 306
333 331 330 328 329 330 331 331 330 329 328 327 327 327 326 323 324 326 323 321 320 319 316 316 316 316 316 316 317 318 318 319 318 316 307 303 303 304 305 306 307 308 308
332 328 326 327 329 329 330 330 330 329 327 328 327 326 322 322 323 323 321 321 319 319 318 317 316 316 316 316 316 314 314 314 317 310 304 304 305 306 308 308 309 309 309
330 329 328 325 327 329 329 329 329 328 328 327 326 326 326 325 323 322 322 320 320 319 319 318 314 314 316 316 317 316 313 311 308 306 306 307 308 309 309 310 310 310 310
328 330 325 325 326 329 328 328 328 328 327 327 325 325 325 321 322 321 321 321 320 319 319 319 319 316 317 319 319 315 313 313 311 309 308 310 311 311 311 311 311 311 311
325 327 325 324 327 329 326 328 329 327 329 327 326 325 324 320 320 321 321 320 320 320 319 320 319 319 319 319 319 318 317 317 318 318 316 310 310 310 310 310 311 312 313
322 321 322 326 327 325 325 326 328 329 327 326 326 325 324 321 321 322 320 319 320 320 319 320 319 320 319 319 318 319 319 319 318 318 318 318 317 313 311 311 312 313 314
319 321 325 325 325 325 325 325 324 326 326 325 326 323 323 322 323 321 318 319 319 320 320 319 319 319 319 319 319 319 320 319 319 319 318 318 317 316 314 313 314 315 315
321 325 325 325 325 325 324 323 323 326 326 326 325 324 323 323 321 319 319 317 316 319 319 319 319 319 319 319 320 319 319 319 319 319 319 317 315 315 315 316 317 317 317
324 324 324 324 324 324 327 326 325 324 324 324 324 324 322 321 321 319 320 317 317 320 320 319 319 319 319 320 320 320 321 321 320 320 319 318 318 318 318 319 318 317 317
324 324 323 324 325 324 324 323 323 324 324 325 325 324 323 321 321 320 320 319 321 321 321 321 321 321 321 321 320 320 319 318 319 319 318 318 317 317 317 317 318 318 317
324 323 324 324 325 324 323 323 322 323 324 324 325 324 324 322 321 320 320 321 321 321 320 317 320 320 320 318 318 317 317 318 318 317 318 317 317 316 318 317 315 315 316
323 323 323 324 324 324 323 323 322 323 324 324 323 323 324 323 322 320 320 321 321 320 318 319 319 318 317 316 316 316 317 317 315 314 315 316 318 318 317 316 319 319 319
323 322 321 321 321 323 323 322 323 323 323 323 323 323 323 323 322 322 319 320 321 318 317 317 317 316 316 317 318 317 315 314 314 313 312 312 314 317 318 318 319 318 318
321 321 321 320 321 321 322 322 322 322 322 322 322 322 322 323 321 320 321 320 320 319 320 319 317 316 318 317 317 317 317 317 317 317 317 317 317 317 318 317 316 316 315
322 320 319 319 321 320 321 321 321 322 322 322 322 321 322 321 321 321 321 320 319 321 319 318 318 318 318 318 318 317 317 316 315 313 314 313 313 313 312 311 311 309 309
321 319 318 318 319 320 320 320 321 321 322 322 321 321 321 320 320 320 320 320 320 320 319 318 318 317 317 317 317 316 315 315 314 312 310 308 307 307 306 304 303 303 302
319 318 318 318 319 320 321 320 320 320 320 320 320 319 319 319 319 319 319 320 319 318 318 318 317 315 315 316 315 313 313 311 310 308 305 305 305 303 301 300 298 297 295
316 315 315 317 318 318 319 319 317 319 319 317 316 316 315 316 315 315 316 316 316 315 314 315 313 312 310 309 308 308 307 307 305 303 302 300 299 298 296 294 292 291 291
306 305 306 306 308 313 310 310 311 314 314 312 311 311 310 311 310 309 308 309 310 308 305 304 304 304 303 302 300 300 299 299 299 299 298 296 295 293 292 291 290 289 289

GFSMA_850_thetae_096.txt.gz
Theta_e
324 328 332 333 333 335 335 332 331 328 328 328 328 328 328 325 327 329 329 329 329 329 328 325 324 325 325 325 324 324 325 325 324 322 319 314 311 309 307 305 304 304 303
324 326 329 330 331 333 332 332 332 327 326 327 328 327 328 325 328 329 329 328 328 328 327 325 324 325 325 322 324 323 322 322 322 321 314 311 310 307 305 303 303 303 303
324 326 329 330 330 331 331 332 328 326 327 327 328 328 323 324 328 329 328 326 326 327 326 324 324 324 324 322 323 322 321 321 321 316 314 311 306 304 303 304 303 302 301
325 328 330 330 330 330 330 329 327 327 327 328 328 328 327 327 327 328 327 327 326 326 325 323 324 324 324 321 322 321 320 319 319 319 315 309 305 304 304 302 301 301 302
326 329 330 332 332 331 330 330 328 328 327 328 327 326 325 322 327 327 326 326 326 326 324 322 321 321 323 322 321 319 319 318 318 318 318 313 306 304 302 302 302 302 303
328 330 330 332 332 331 331 331 330 328 327 327 327 326 325 323 326 326 326 326 326 327 323 321 319 318 321 321 320 319 318 318 318 317 317 313 306 302 302 302 303 303 303
329 329 330 331 332 331 331 332 330 327 328 327 326 326 327 327 326 326 325 326 326 326 321 320 318 316 319 318 318 318 317 317 317 317 317 314 304 302 302 303 303 304 305
331 330 330 330 330 328 332 332 330 328 328 327 327 326 326 327 327 326 326 326 326 323 320 319 316 316 316 317 318 318 317 317 317 317 317 308 302 302 303 303 304 306 307
329 331 332 330 329 328 328 329 329 328 327 328 327 326 325 325 324 324 324 326 325 321 320 317 315 316 316 315 317 316 316 317 317 317 315 308 304 303 304 305 306 308 309
329 330 334 331 328 325 327 327 329 327 327 328 327 327 326 326 324 322 324 326 323 321 319 317 317 316 315 315 315 315 314 315 316 317 316 310 306 306 306 307 309 310 310
330 332 333 327 326 325 327 327 328 326 325 327 329 327 327 326 324 324 323 323 321 320 319 318 318 315 314 315 316 316 316 314 313 310 312 314 313 309 309 309 310 310 311
330 333 333 327 327 324 325 326 327 324 325 325 328 328 326 326 325 324 324 322 321 320 319 319 319 317 314 314 317 318 315 313 312 311 311 310 311 312 312 311 311 312 312
329 334 332 332 326 324 325 325 327 326 325 325 325 326 326 326 325 325 323 322 321 320 319 319 319 319 318 318 318 319 318 317 317 317 318 318 316 313 311 310 310 310 311
326 326 328 326 325 323 324 326 324 324 325 323 325 326 326 326 325 325 323 321 320 320 319 319 318 319 319 319 319 318 319 319 318 318 318 318 318 318 318 317 316 315 314
324 324 324 322 323 325 325 324 325 325 324 324 326 324 324 326 325 322 322 322 318 318 320 319 318 318 318 319 319 319 319 319 319 319 319 319 318 317 317 317 316 316 317
323 321 322 325 324 324 324 324 324 323 323 323 324 325 325 325 323 321 322 319 317 317 318 318 319 319 319 319 319 319 319 319 319 319 319 319 319 318 318 317 318 318 318
321 323 324 323 323 323 323 324 323 322 323 323 324 324 325 325 323 321 321 318 317 316 316 316 319 319 319 319 319 319 320 320 320 320 320 320 320 319 318 318 318 317 317
323 323 323 323 323 324 324 324 324 323 322 323 323 322 324 322 323 322 320 318 317 317 317 320 321 320 320 320 320 320 319 318 318 318 318 319 318 317 317 316 316 316 317
324 324 323 323 323 324 324 323 322 322 323 323 321 323 324 323 321 321 319 319 318 319 319 320 319 319 320 320 317 316 316 316 316 316 318 318 318 317 317 317 317 316 317
324 324 324 323 323 323 321 322 322 323 323 322 323 323 322 322 322 321 320 320 319 321 320 320 319 317 319 319 318 316 317 317 317 316 316 316 315 314 313 313 316 316 316
323 322 321 321 320 320 321 321 322 321 322 322 323 323 323 322 323 321 320 319 320 320 320 319 318 318 317 316 316 316 317 316 316 315 315 314 314 313 313 315 316 316 315
323 322 321 320 319 317 321 321 321 322 322 321 322 321 322 322 321 322 321 320 320 319 319 318 318 317 318 318 317 317 316 315 314 314 314 314 314 313 313 312 312 311 309
321 321 319 318 318 318 319 321 319 320 321 321 321 322 321 320 322 321 321 320 320 320 320 320 319 319 318 317 316 317 316 315 315 314 312 310 309 308 306 305 304 305 304
321 320 318 317 318 318 318 321 320 319 319 320 321 321 321 321 320 321 320 320 320 319 318 317 318 317 317 316 316 316 315 313 311 309 307 305 305 303 301 301 300 299 299
315 316 315 314 315 317 318 319 318 318 317 317 316 316 317 318 318 318 317 317 316 317 317 316 316 316 316 315 314 313 309 307 306 304 303 301 301 299 298 296 294 293 292
302 304 307 309 308 311 314 315 312 314 315 314 312 311 309 310 309 311 312 313 314 311 308 311 308 307 306 306 305 305 303 302 302 301 299 298 297 296 292 290 290 290 289

GFSMA_850_thetae_099.txt.gz
Theta_e
320 321 324 330 333 335 335 335 335 334 334 332 331 329 329 328 327 324 326 329 329 332 332 330 327 326 325 326 325 326 325 326 326 324 323 320 317 314 310 307 306 306 305
320 320 324 327 331 333 336 336 335 333 333 332 331 330 329 328 327 325 325 329 329 331 331 327 326 325 326 326 324 324 324 325 324 324 323 320 313 311 308 306 305 304 303
321 322 324 326 329 330 333 335 334 333 331 329 327 327 328 328 328 325 326 329 330 329 329 328 325 324 325 326 324 322 323 322 322 322 322 316 312 309 306 304 304 304 303
321 323 326 326 328 328 330 333 333 333 331 326 327 327 328 328 328 325 327 329 329 328 328 327 325 324 324 325 323 321 322 321 320 320 320 314 313 310 304 305 304 302 301
322 324 326 327 328 329 329 330 331 332 327 328 327 328 328 325 324 323 327 329 328 327 327 326 323 323 324 324 323 321 321 320 319 318 317 314 311 306 305 303 302 302 302
323 324 327 329 329 330 330 330 330 328 327 327 328 328 328 328 324 323 326 328 327 326 326 324 323 322 323 324 323 322 320 319 318 317 317 316 308 307 305 302 302 303 303
326 325 326 330 329 330 330 330 330 328 328 328 328 328 327 325 325 323 326 325 326 327 326 326 322 322 322 323 323 321 319 318 317 317 316 316 312 305 302 302 303 303 303
329 327 327 329 329 330 330 329 331 330 328 328 327 327 326 326 323 323 324 325 325 327 326 326 321 319 321 321 322 321 317 317 317 316 317 316 314 306 303 303 303 304 305
331 329 331 330 329 329 329 331 328 330 330 327 328 327 325 326 326 326 324 325 324 326 327 323 320 319 317 319 318 317 318 318 318 314 317 317 314 303 303 303 304 305 306
331 330 331 330 330 330 329 331 326 327 328 327 327 327 326 327 326 324 326 325 326 325 326 322 320 317 316 316 317 317 317 317 317 318 318 317 312 304 303 303 305 307 308
328 329 322 329 329 330 330 329 327 327 327 327 327 327 327 326 326 325 324 324 325 324 326 323 319 316 315 315 315 316 314 314 317 318 317 317 315 307 306 306 307 308 309
326 326 323 325 331 331 328 326 324 326 326 326 326 325 326 327 325 325 325 323 323 325 324 320 319 318 317 315 315 315 315 316 315 314 315 316 318 316 313 312 310 310 311
321 323 324 329 331 331 326 325 325 327 326 326 325 326 325 326 326 325 325 324 323 323 321 320 318 318 317 314 315 315 317 316 315 313 312 311 311 314 316 318 317 314 313
324 324 325 330 331 330 327 325 324 326 326 326 325 325 325 324 325 325 325 324 322 322 321 321 319 319 318 317 314 316 318 317 316 315 316 317 317 317 316 314 313 313 314
326 324 327 330 330 330 329 324 325 326 325 325 324 324 324 324 325 325 324 325 323 320 320 320 319 318 319 319 318 318 319 318 318 318 318 318 318 318 318 318 318 318 317
328 328 328 329 331 331 328 324 323 326 325 326 325 324 323 325 325 323 324 325 323 322 320 320 319 318 318 319 319 319 318 319 319 319 319 319 319 319 318 318 318 317 316
322 324 328 331 328 323 324 325 325 325 325 324 323 323 323 324 324 324 325 324 323 321 320 319 318 317 317 318 318 319 319 319 319 319 319 319 319 319 319 318 317 317 317
322 326 324 323 323 323 323 324 324 324 324 324 324 323 324 323 325 324 324 324 322 321 318 319 315 317 319 319 319 319 319 319 319 319 320 320 320 319 320 319 319 318 318
324 323 324 323 323 322 322 323 324 324 323 323 322 322 323 323 323 323 323 323 322 319 318 317 317 317 319 319 319 319 319 319 319 319 318 318 318 318 318 318 317 317 317
323 325 323 322 322 322 324 323 323 322 322 323 322 323 321 321 321 323 321 322 321 320 318 316 318 318 320 320 320 320 319 318 317 317 316 316 316 317 317 317 317 317 316
324 324 322 322 323 323 322 324 323 322 322 322 322 322 322 322 322 323 322 321 321 319 317 317 319 320 319 319 318 317 316 316 316 316 316 316 316 315 315 314 314 313 312
325 322 323 324 321 320 320 320 321 320 322 322 321 321 321 321 322 321 320 321 320 319 317 319 319 319 318 318 317 318 317 316 314 315 314 313 312 311 311 310 310 311 311
324 323 321 321 319 318 318 320 320 320 320 321 321 321 321 321 321 320 320 321 319 319 319 320 320 319 319 318 318 318 317 316 316 314 310 307 306 305 305 305 304 304 304
314 320 319 318 318 317 318 319 319 319 320 320 320 321 320 320 320 320 319 319 319 319 319 320 320 319 318 318 318 317 317 315 313 311 308 305 302 301 299 300 300 299 300
301 312 314 314 315 315 317 317 315 318 318 318 318 318 317 318 318 317 320 319 319 319 319 318 317 319 317 317 316 315 313 312 309 305 303 303 300 298 297 297 297 297 296
301 300 304 307 308 309 308 308 310 313 315 315 313 313 313 313 314 315 314 315 315 314 315 313 317 314 314 311 311 311 309 308 307 302 301 301 299 298 295 293 292 290 289

GFSMA_850_thetae_102.txt.gz
Theta_e
330 336 338 338 340 341 339 338 336 336 335 335 335 335 334 332 333 330 325 324 326 329 331 334 332 330 328 328 328 328 329 328 327 325 323 321 320 318 317 317 309 307 307
330 326 327 328 337 341 340 336 336 335 335 334 334 335 332 332 331 328 327 324 325 329 330 334 331 328 327 327 327 326 327 327 326 326 325 323 321 318 314 310 308 307 306
326 324 323 325 329 337 338 336 335 335 335 334 333 332 332 331 330 329 328 326 324 329 329 334 331 327 326 326 326 325 325 324 325 325 324 323 320 314 311 307 306 305 304
325 325 324 322 326 330 332 332 335 335 335 333 332 332 330 329 329 329 328 327 324 328 329 333 329 327 325 326 326 324 324 323 323 322 322 322 319 312 311 306 304 304 303
324 326 324 323 326 332 334 332 335 336 334 331 331 331 327 328 330 328 328 327 324 328 330 328 327 325 324 325 326 324 322 323 322 321 320 320 314 311 307 304 304 304 302
324 326 326 324 326 330 331 330 333 333 335 333 331 327 328 330 328 326 325 325 324 326 329 328 326 325 323 324 325 324 323 322 321 318 318 315 311 307 304 304 303 302 302
328 326 326 325 327 329 329 329 330 332 333 331 328 328 330 328 328 324 322 323 324 328 331 328 326 327 324 324 324 324 323 322 320 318 318 317 313 306 305 304 302 302 303
329 329 329 325 327 329 330 331 330 330 332 329 328 328 329 328 328 326 324 324 324 326 327 327 326 327 326 324 323 323 323 322 319 317 318 317 315 306 305 303 302 303 303
331 330 330 327 329 330 331 331 330 331 329 329 328 328 326 327 327 325 324 323 324 322 325 326 326 326 326 325 325 322 322 321 319 317 318 317 317 314 304 303 303 303 304
334 332 331 330 329 331 331 331 331 329 330 329 329 329 327 327 326 325 324 323 323 323 323 325 327 326 324 325 324 322 321 319 317 318 317 318 317 316 308 303 303 304 305
331 332 330 325 329 328 329 330 330 329 327 328 328 329 328 327 327 326 325 325 324 324 324 325 327 326 322 320 322 321 319 317 318 318 317 316 317 316 309 304 303 304 306
332 330 331 331 330 327 323 325 327 329 327 326 327 328 327 327 327 326 326 325 326 326 326 326 326 326 322 318 320 319 319 317 316 318 317 318 317 316 312 309 307 308 308
330 330 328 330 329 327 321 322 325 330 328 326 327 327 326 327 326 326 326 326 324 324 324 325 324 325 322 318 319 318 316 315 314 317 317 318 317 316 315 316 316 316 312
336 333 329 326 329 322 323 323 328 331 327 324 326 325 325 326 325 325 325 326 325 324 323 323 324 323 320 317 317 316 314 314 315 315 315 314 315 315 316 317 317 317 317
333 329 329 327 323 323 323 327 329 329 326 326 326 326 326 325 325 326 325 325 325 323 323 323 323 322 319 317 316 313 314 316 316 316 315 313 312 312 313 313 314 314 315
330 328 325 323 323 325 328 329 329 327 325 327 326 326 325 325 325 324 325 324 325 325 323 323 323 322 321 318 318 316 313 317 317 317 316 316 317 318 318 318 318 318 318
330 328 323 326 327 329 328 329 329 328 324 324 326 325 324 324 324 323 324 325 324 323 323 322 322 322 320 318 319 318 318 318 318 319 318 319 318 318 318 318 318 318 318
329 327 326 323 322 327 329 328 328 326 324 325 325 325 325 324 324 324 324 325 324 323 324 322 320 320 318 317 319 319 319 319 319 319 319 320 319 319 319 319 319 318 318
327 323 322 322 321 326 325 324 324 325 325 325 324 324 324 324 324 323 324 324 324 324 324 322 320 320 318 318 316 317 319 319 319 319 319 319 319 319 319 319 319 319 319
321 323 322 320 323 323 324 325 324 324 324 324 324 324 323 323 323 323 322 323 322 323 323 320 320 319 318 316 319 319 319 319 319 319 319 320 320 320 319 319 318 318 318
325 324 323 324 323 323 323 323 323 323 323 323 322 323 323 322 323 322 322 321 322 322 321 319 319 317 316 318 319 319 319 318 318 319 319 319 318 317 316 316 316 317 317
324 324 325 322 322 322 323 323 323 322 321 321 322 322 322 321 321 322 321 322 322 320 320 319 318 317 317 317 319 318 319 318 315 316 316 314 316 314 314 313 313 314 312
317 320 324 322 322 322 323 322 320 320 320 321 322 322 322 321 320 320 322 320 320 319 320 320 318 318 317 317 317 318 319 319 318 316 313 313 309 307 307 306 306 306 305
308 308 315 321 321 321 319 319 320 319 319 319 320 321 320 320 320 320 320 319 319 319 319 320 318 317 318 318 319 319 318 318 317 316 314 307 301 301 301 300 299 299 300
302 302 304 304 316 316 316 317 318 318 318 318 318 319 319 319 319 318 318 319 319 318 318 318 318 317 319 318 318 318 317 316 312 307 305 304 299 297 296 295 295 297 297
302 301 301 297 305 307 310 313 311 313 313 312 313 314 314 314 315 313 313 315 317 317 316 315 317 317 317 318 317 317 314 315 313 302 300 299 297 296 291 290 291 291 292

GFSMA_850_thetae_105.txt.gz
Theta_e
340 340 339 339 340 339 340 339 338 337 337 337 337 337 336 335 336 335 333 333 331 327 328 331 331 328 331 330 329 329 328 328 326 326 326 325 323 320 318 317 316 310 308
334 340 340 339 338 340 338 339 340 338 336 336 336 336 335 335 335 333 333 333 329 326 326 328 330 331 331 329 329 328 329 328 327 326 325 323 321 319 318 316 315 309 307
327 339 338 338 338 339 336 337 336 337 337 336 335 335 334 335 334 333 333 332 330 326 326 327 328 326 332 328 328 328 328 328 327 326 325 325 323 321 318 315 311 307 306
325 329 339 338 338 334 336 336 337 334 336 337 336 335 334 333 335 334 332 332 329 328 326 326 329 327 330 326 327 327 326 327 325 324 325 325 323 323 317 311 308 305 305
332 325 333 329 333 334 334 337 335 334 335 334 335 334 333 333 333 331 330 330 329 328 326 326 329 326 329 327 326 326 326 325 324 323 324 322 322 321 314 309 306 305 304
333 331 330 326 327 330 333 331 335 333 335 333 335 333 334 333 331 329 330 329 328 328 327 325 327 327 329 327 325 326 325 324 324 323 322 320 320 319 312 308 305 304 304
339 337 335 335 327 326 331 330 336 337 333 333 333 332 333 330 329 330 329 327 324 323 325 325 326 323 326 324 324 326 325 323 323 322 321 319 319 318 314 308 304 304 302
339 337 336 335 327 326 331 330 337 333 334 333 331 329 330 329 330 329 328 327 323 323 324 326 326 325 327 326 323 325 325 324 323 322 320 318 318 317 314 309 305 303 302
336 332 331 335 328 327 328 327 333 329 331 330 331 330 327 328 328 328 328 327 324 324 324 324 327 327 328 325 325 325 324 324 323 322 320 318 318 316 314 313 305 302 302
336 337 334 336 332 329 328 326 329 333 331 328 330 331 330 330 329 327 327 327 324 324 324 323 325 328 327 326 325 324 323 323 323 321 319 318 317 316 312 308 306 302 303
333 337 335 335 331 332 328 330 333 332 331 329 328 328 329 329 329 329 327 325 325 323 323 322 323 323 326 327 327 325 324 322 322 320 318 318 318 317 316 310 305 304 304
332 332 334 335 333 331 329 328 322 329 330 329 328 328 328 329 329 329 328 327 325 324 323 322 322 323 325 325 325 324 324 321 321 320 318 317 318 317 317 316 310 304 304
332 331 332 334 332 331 327 320 320 327 331 331 328 328 325 327 328 328 327 327 326 325 325 324 323 323 324 325 326 322 322 321 319 317 318 318 316 317 317 316 312 306 305
331 331 332 331 331 331 327 323 321 331 330 330 329 329 326 326 327 327 327 327 326 325 325 325 325 326 325 325 325 320 320 320 319 317 317 317 317 317 316 315 314 313 314
332 331 333 332 333 334 332 329 329 328 327 329 330 328 325 326 326 326 326 326 326 325 324 325 325 324 324 325 325 323 319 318 316 316 314 317 318 318 317 316 315 315 316
332 331 331 331 332 330 327 328 326 327 330 330 330 328 326 327 327 326 326 325 326 325 325 325 324 325 324 324 324 321 315 313 314 315 314 315 315 315 314 315 316 317 317
331 332 332 332 330 328 327 322 321 322 328 331 329 326 324 326 326 326 325 325 325 325 325 325 324 324 324 323 324 319 316 314 314 315 316 316 315 313 313 313 314 314 314
329 331 330 329 329 328 324 322 323 322 324 329 328 325 326 328 326 325 325 324 324 324 325 325 324 323 323 323 322 319 317 316 316 317 317 317 316 316 317 317 318 318 318
329 330 329 328 326 325 325 323 322 318 324 327 327 324 324 327 325 325 325 324 324 324 326 325 324 323 323 323 321 319 319 320 317 317 318 318 318 318 318 318 318 318 318
328 327 328 328 326 325 325 323 324 327 327 325 325 325 325 325 324 324 324 324 324 324 323 324 324 322 323 322 320 318 320 319 319 318 318 319 319 319 319 319 319 319 319
325 325 325 326 325 327 324 321 323 323 324 325 325 325 325 325 324 324 324 323 323 323 322 322 322 322 320 319 318 318 319 318 318 318 319 319 319 319 319 319 319 319 319
322 323 323 324 326 324 324 322 323 327 325 324 323 322 323 323 322 323 322 322 322 322 322 321 320 320 320 319 317 318 317 317 317 316 317 317 317 318 318 318 317 316 316
315 319 320 322 323 324 324 324 323 323 323 323 322 322 322 321 322 322 321 321 322 322 321 321 321 320 320 319 319 318 318 318 317 315 314 314 314 312 311 315 312 315 312
303 305 306 310 313 322 323 323 323 322 322 321 320 320 320 321 321 321 320 319 321 321 320 319 318 319 318 318 318 318 316 318 315 315 310 310 308 305 308 304 302 305 303
300 300 301 301 297 309 313 318 320 319 320 319 318 318 319 319 319 319 319 319 319 320 319 318 318 318 318 318 317 317 318 317 313 309 309 308 302 302 299 297 297 299 299
295 297 299 300 298 301 300 303 313 316 316 315 315 314 316 314 315 315 315 316 317 318 317 317 318 318 318 318 317 317 318 317 316 308 307 304 305 301 291 290 294 295 295

GFSMA_850_thetae_108.txt.gz
Theta_e
338 338 343 339 341 338 336 336 336 336 336 335 334 335 335 335 335 336 335 333 333 332 332 328 329 330 330 332 331 330 329 329 327 323 322 323 324 323 322 318 316 313 308
342 338 339 341 341 341 338 338 335 338 336 336 336 336 336 335 335 334 334 334 332 332 329 327 327 331 331 332 331 330 329 328 327 325 324 325 324 322 318 317 315 312 307
340 342 340 341 337 341 339 337 336 338 337 337 336 336 335 335 335 335 333 333 332 332 328 326 326 327 329 328 330 329 329 328 327 326 325 325 323 320 319 318 315 312 307
335 336 338 340 339 340 339 339 334 338 337 337 335 336 335 335 334 334 333 332 332 331 329 326 327 327 329 329 329 330 329 328 328 327 326 325 324 323 321 319 315 311 306
338 330 333 334 332 338 338 339 337 335 335 335 334 336 334 335 334 333 333 332 331 331 330 328 326 327 326 327 327 330 329 329 328 327 327 323 324 324 323 321 315 309 306
339 338 335 339 334 334 332 337 336 333 335 335 334 334 334 334 333 332 332 332 331 330 329 328 327 327 327 325 325 331 328 328 327 326 324 324 323 322 321 320 312 308 306
338 339 339 337 339 339 331 333 333 332 334 335 334 333 333 332 331 331 332 329 330 329 327 325 326 327 326 326 323 327 328 327 326 324 324 323 322 320 320 318 311 308 306
336 336 339 337 337 337 335 331 328 330 334 331 332 331 331 330 330 331 329 329 331 328 324 323 325 326 326 327 324 328 327 326 325 324 323 322 321 319 319 318 313 308 306
332 336 337 337 338 332 327 334 332 329 328 332 331 331 329 328 327 328 329 329 328 327 324 323 324 324 326 327 326 326 326 326 326 324 323 322 321 318 319 317 312 306 306
335 332 330 333 337 332 333 329 333 333 329 331 330 330 329 329 328 327 327 328 327 327 325 324 324 324 324 324 326 325 323 325 325 324 322 322 320 316 317 316 313 308 306
334 331 332 332 334 332 330 322 332 332 332 329 332 331 329 329 330 329 326 326 326 327 326 324 324 324 324 325 324 325 322 324 324 324 323 321 319 317 317 315 315 308 304
325 333 328 330 334 334 332 331 327 327 333 328 327 329 329 327 330 329 328 328 326 326 326 324 324 323 323 325 325 326 325 325 323 323 323 321 320 318 317 316 314 311 304
324 328 327 329 333 333 331 330 328 331 329 326 322 320 323 329 328 328 328 327 327 325 326 325 323 322 323 322 323 325 325 325 324 322 321 320 319 318 317 316 316 314 309
322 323 323 329 330 331 333 331 331 331 325 321 320 320 329 326 328 329 327 328 327 326 326 325 325 323 323 323 323 325 325 326 324 322 320 320 318 318 317 316 316 315 309
321 329 331 331 331 329 329 332 330 329 327 319 320 321 327 329 328 327 327 327 327 326 326 325 325 325 325 323 323 324 325 326 323 321 318 316 317 317 316 316 316 314 310
327 329 330 332 331 330 329 331 329 328 324 327 327 329 328 329 329 327 326 327 327 326 325 325 325 325 325 325 325 325 324 325 321 321 319 318 317 317 316 316 316 315 314
327 329 331 331 331 330 330 331 330 331 330 328 329 327 326 329 328 326 327 326 326 326 326 325 325 325 325 325 324 323 324 324 321 320 315 317 316 317 317 317 317 316 316
325 328 330 329 331 331 330 329 330 330 328 327 324 327 322 328 328 326 325 326 326 325 325 324 325 325 324 324 324 324 323 322 321 317 318 318 315 316 317 316 316 315 315
322 326 326 327 327 327 329 328 329 326 324 321 320 319 327 327 325 324 326 327 325 325 324 324 324 325 324 324 324 322 322 322 320 316 313 312 315 316 316 316 315 314 314
324 327 327 327 323 327 328 328 327 322 322 322 321 321 322 327 324 324 325 325 324 325 324 324 324 324 324 324 323 323 321 321 318 316 314 313 317 317 317 316 316 316 317
318 321 327 326 327 327 327 326 326 325 323 322 321 320 326 324 324 326 324 324 324 323 323 323 324 322 323 322 322 321 321 320 317 319 318 314 318 317 317 318 318 318 318
315 310 318 325 323 326 326 325 325 324 325 322 322 323 323 324 324 324 325 324 323 323 322 321 323 321 321 322 321 321 320 318 316 318 317 317 317 318 318 318 319 319 319
304 310 308 314 320 321 324 325 325 325 326 324 323 322 324 323 322 322 321 321 322 322 322 322 322 322 322 321 320 321 320 319 318 317 315 314 314 314 316 316 316 318 318
299 301 303 302 304 307 318 321 324 324 323 324 322 322 322 322 322 321 321 321 322 321 321 320 321 321 321 320 320 321 320 319 316 316 312 314 312 308 310 309 313 314 314
295 296 298 300 301 301 303 305 312 318 320 319 320 319 320 319 319 319 320 320 319 318 319 320 320 320 319 319 319 319 318 317 313 312 312 313 309 307 301 301 302 305 303
292 294 295 295 297 299 300 299 301 302 309 309 311 315 316 317 317 317 318 318 317 315 315 317 318 318 318 318 318 318 319 318 316 309 309 309 308 304 294 293 295 297 298

GFSMA_850_thetae_111.txt.gz
Theta_e
336 335 334 333 333 334 334 334 333 333 333 333 334 333 333 334 334 334 333 335 333 332 332 332 332 328 327 327 327 329 332 329 329 327 323 321 320 320 320 320 318 315 312
338 336 336 337 338 335 336 336 332 333 333 334 333 333 334 334 334 335 335 335 333 333 332 331 330 328 328 330 328 327 332 330 329 327 323 320 322 322 322 321 317 315 312
342 338 337 336 338 339 339 340 338 332 334 334 334 335 335 335 335 335 335 335 333 333 331 330 328 327 327 330 329 327 332 330 329 327 323 322 323 323 322 318 316 314 312
340 340 340 340 337 342 339 341 339 335 336 336 335 335 336 335 335 335 334 334 333 332 331 331 328 326 326 328 328 327 332 330 329 327 324 323 324 323 321 319 318 315 312
338 338 339 340 341 342 340 338 338 337 334 338 335 336 336 334 334 335 334 334 332 332 332 330 329 327 326 327 328 329 329 329 329 328 326 325 325 324 323 322 320 318 313
338 338 338 339 339 340 341 340 339 338 338 335 337 336 334 333 332 333 334 333 332 332 331 330 329 328 327 327 327 327 324 328 329 328 327 326 325 323 322 322 322 321 314
335 335 338 339 338 336 340 340 338 338 337 336 337 336 334 333 332 333 332 331 330 330 331 328 327 327 327 327 327 327 324 331 329 328 328 327 326 322 322 321 320 320 313
333 336 335 336 338 338 333 335 336 334 338 335 336 335 333 334 332 331 329 329 329 330 328 328 325 324 324 326 327 326 326 326 328 328 328 327 324 323 322 320 319 318 313
330 331 333 334 335 337 337 334 336 334 336 335 331 332 331 330 330 329 329 327 329 329 328 328 326 323 324 325 327 327 325 326 328 328 327 325 323 322 321 319 319 317 315
320 324 325 331 331 333 333 332 332 331 325 322 330 331 330 327 327 326 328 327 327 328 328 327 326 324 324 324 326 327 325 325 328 327 326 325 323 322 321 319 318 317 314
318 320 323 329 332 330 328 329 331 330 324 324 322 322 329 328 328 326 326 327 327 327 328 326 326 324 324 324 325 326 325 325 327 327 326 324 323 321 320 318 317 316 315
319 318 320 324 330 330 328 325 327 330 323 322 322 329 328 328 330 327 328 327 326 325 326 327 326 324 324 324 324 324 326 325 324 322 325 324 322 321 319 318 316 316 315
319 320 319 321 327 330 328 328 325 327 328 326 324 327 328 326 328 327 328 328 326 325 325 325 326 324 323 323 323 324 323 325 321 321 324 323 323 321 319 318 315 315 315
319 322 321 319 323 324 322 322 325 326 328 327 327 325 327 326 324 326 325 329 327 327 326 327 325 324 324 323 322 322 323 324 323 324 324 323 323 322 319 318 317 315 315
320 324 323 320 321 322 320 322 327 326 328 328 326 323 326 323 321 326 327 326 326 326 325 325 325 325 324 323 322 321 321 322 323 324 324 323 322 320 319 318 317 316 314
321 323 324 321 323 323 323 326 326 327 329 328 324 320 324 322 322 324 326 327 326 327 325 325 325 324 325 324 324 323 323 323 324 324 325 324 321 320 320 318 317 316 315
319 324 326 327 324 324 325 325 326 328 328 328 327 320 320 320 322 323 323 326 326 327 326 326 326 325 324 324 325 325 324 323 324 325 325 324 322 318 316 318 316 316 315
319 321 325 326 326 325 324 325 326 328 327 328 327 326 324 325 325 326 325 326 325 324 326 325 325 325 324 324 324 324 325 324 324 323 324 322 321 319 316 317 316 316 315
318 321 322 321 323 325 325 326 330 329 328 328 328 325 320 324 322 325 325 325 325 325 325 325 325 325 324 324 324 324 324 324 323 324 323 321 321 316 317 317 318 317 317
314 319 321 323 321 323 325 326 327 328 329 329 326 325 321 320 319 324 324 324 324 324 323 324 324 325 323 323 324 324 323 323 323 322 322 321 319 317 317 317 317 317 317
307 310 313 315 319 323 321 320 324 326 326 327 326 320 321 321 320 324 325 324 323 322 323 324 325 324 323 323 323 323 323 323 322 322 321 320 318 318 317 313 315 314 316
301 303 306 311 315 316 322 321 320 326 326 325 323 322 324 325 322 324 322 323 323 323 324 324 323 323 321 323 323 322 323 321 320 321 320 319 317 314 313 312 315 315 316
297 299 300 303 306 312 317 320 323 324 325 323 322 322 320 325 324 324 324 323 323 322 323 321 322 322 321 322 321 322 321 321 322 320 319 316 315 315 313 315 313 313 316
293 296 296 298 301 302 305 315 309 321 317 320 320 321 320 321 323 323 323 322 321 321 320 320 321 321 322 321 321 321 322 320 320 318 314 311 310 311 313 312 315 314 316
292 293 293 294 296 297 300 303 304 306 298 309 309 316 319 319 320 321 321 320 320 319 320 321 320 320 320 320 320 321 320 317 313 310 309 311 306 306 304 307 309 312 306
291 292 292 291 293 294 296 298 301 301 301 299 296 300 305 312 316 318 318 318 318 316 316 316 317 319 319 319 318 319 319 319 314 307 306 309 310 307 298 297 302 306 300

GFSMA_850_thetae_114.txt.gz
Theta_e
335 334 333 333 332 332 331 332 332 333 333 333 332 332 332 331 332 334 334 333 333 333 333 332 331 331 329 327 327 329 331 330 330 329 328 324 323 322 322 319 319 316 314
336 336 336 334 333 332 330 331 331 332 332 334 333 332 332 333 332 333 334 333 332 332 333 331 331 331 330 329 327 327 329 325 330 329 328 324 323 323 322 319 319 317 314
340 338 338 337 335 334 333 333 333 336 334 334 333 333 333 334 334 332 333 334 334 334 333 332 332 330 330 328 328 329 328 326 328 330 328 325 322 321 321 321 320 317 313
340 341 341 339 337 336 337 339 336 337 338 335 333 333 335 335 335 335 334 334 334 334 333 332 331 330 328 327 327 329 329 327 325 330 328 325 322 322 322 322 320 316 313
338 338 338 338 336 334 337 339 340 339 340 337 332 333 335 336 336 335 334 333 334 333 333 332 332 331 328 327 326 328 329 326 325 329 328 325 323 323 323 322 319 318 315
336 336 337 338 336 336 337 337 340 340 339 338 334 334 338 336 337 336 334 334 334 333 332 331 331 330 328 327 326 327 328 326 325 329 329 326 323 323 324 322 321 321 319
335 336 336 337 338 337 336 336 335 337 339 338 337 336 339 337 336 333 331 331 333 333 330 330 330 330 328 328 326 327 328 329 325 327 328 327 325 324 325 323 322 322 321
325 330 331 334 335 336 336 335 334 334 333 333 335 336 336 336 335 332 331 332 331 330 328 329 329 329 327 326 327 327 327 327 328 325 324 328 326 325 325 322 321 320 319
315 319 324 328 328 333 334 335 334 333 332 331 332 334 332 332 333 332 331 330 329 328 328 328 329 328 326 325 324 325 327 327 326 325 325 329 327 326 326 322 321 320 318
317 317 316 321 325 325 329 332 333 330 330 333 331 325 324 327 329 328 332 331 329 329 328 328 327 327 326 324 323 324 325 327 327 327 325 329 328 327 326 323 322 320 318
318 318 318 317 318 322 324 331 331 332 330 332 331 327 326 322 326 325 326 327 330 329 325 327 327 327 326 324 323 323 324 326 327 326 327 327 328 327 324 322 321 319 318
319 318 319 319 318 318 320 326 331 331 330 328 330 330 328 324 327 323 326 325 325 326 325 325 325 325 326 325 323 323 323 326 327 326 324 327 328 326 324 322 321 319 317
319 320 320 321 321 319 318 323 328 330 330 329 326 325 326 325 323 322 327 326 325 325 325 325 323 323 325 326 324 323 324 324 326 325 326 327 327 325 323 322 320 318 316
317 319 320 320 322 323 319 320 325 328 330 328 324 323 325 324 324 323 323 328 326 326 325 325 323 322 325 324 323 323 323 324 325 325 327 327 326 324 322 322 320 318 316
316 317 319 320 322 322 322 319 324 324 327 325 319 320 325 324 323 323 326 326 326 324 325 325 325 322 324 324 323 323 322 324 324 322 323 322 321 324 323 322 320 318 317
315 316 317 319 321 323 324 320 322 321 321 322 320 323 326 325 325 325 326 324 325 326 325 323 324 321 324 324 324 323 322 322 322 323 323 322 322 324 324 322 320 318 317
313 315 315 317 319 321 327 321 323 322 320 322 323 323 324 324 326 324 324 323 323 326 327 326 324 324 325 324 324 323 322 321 321 322 323 324 324 324 324 322 320 318 317
310 311 314 316 320 321 326 326 323 323 323 323 325 324 325 325 325 325 324 322 321 325 326 325 324 324 325 324 324 325 323 323 323 323 323 324 324 325 323 322 321 319 318
306 308 311 314 317 321 322 324 325 324 321 323 324 325 325 324 323 324 323 321 322 323 325 322 324 323 325 325 324 324 324 324 324 323 323 323 324 325 325 323 322 319 318
302 305 307 309 312 315 320 322 323 323 323 324 324 326 327 325 321 320 321 321 320 320 325 324 323 323 323 323 323 324 324 324 324 324 324 324 323 323 325 323 319 316 318
298 300 302 304 309 310 313 321 321 320 318 317 326 328 326 324 318 323 322 320 322 324 324 324 324 324 322 321 324 323 323 324 323 322 323 322 323 322 323 322 320 316 318
297 296 298 299 302 306 308 315 317 319 319 321 326 327 325 324 322 321 322 322 322 324 324 323 322 322 322 322 323 323 323 323 323 323 322 322 321 322 322 322 320 317 317
294 293 294 294 295 298 302 307 310 318 319 319 323 324 323 322 321 322 321 323 325 324 323 322 321 323 321 323 322 321 320 321 321 321 323 321 321 321 321 321 318 318 318
292 291 292 292 292 294 298 301 303 306 310 314 313 314 319 321 322 322 321 323 321 323 323 322 323 322 322 321 320 321 321 322 322 321 320 320 319 316 318 317 317 317 315
292 291 291 292 291 290 293 298 301 301 302 302 302 301 309 313 320 317 320 321 324 321 322 322 321 320 319 319 320 320 321 321 321 318 318 317 314 311 310 309 312 314 314
290 290 291 290 290 290 291 293 296 298 300 299 301 301 301 301 307 309 311 314 317 321 320 320 319 318 319 320 320 320 320 320 320 316 314 310 309 307 301 302 306 309 312

GFSMA_850_thetae_120.txt.gz
Theta_e
336 336 337 338 337 338 338 339 338 337 335 334 334 334 334 332 330 329 329 329 330 330 331 330 330 332 331 330 330 330 331 331 331 331 329 328 329 327 324 324 324 324 323
337 336 336 336 336 336 337 337 336 336 336 335 335 334 334 334 332 331 330 329 329 330 331 330 330 330 331 331 331 330 330 330 329 330 330 328 329 328 326 324 325 324 323
338 338 337 337 336 335 334 334 334 334 335 336 336 335 335 335 335 333 331 331 330 330 331 331 330 330 331 331 330 330 329 329 328 328 330 328 328 328 327 323 325 324 322
337 336 339 337 337 336 336 335 335 334 334 334 334 335 335 335 335 335 334 332 332 332 332 332 331 330 330 331 330 330 330 329 328 327 330 330 328 328 328 324 325 324 321
333 334 334 337 339 339 339 338 335 335 336 333 328 335 332 333 334 333 333 333 333 333 333 333 332 331 332 331 331 330 329 329 328 327 327 330 328 328 328 325 324 324 320
327 330 329 330 331 332 334 336 336 335 335 332 327 323 330 331 332 332 332 332 332 331 331 332 333 333 332 332 331 330 329 328 327 327 328 329 328 328 329 326 324 323 321
315 317 322 326 327 328 329 332 333 334 334 332 330 326 329 327 326 329 331 330 331 331 330 329 330 333 333 332 332 331 330 329 327 327 327 329 329 326 329 328 324 323 322
313 314 314 314 315 318 324 327 331 334 334 336 329 332 327 326 324 324 327 324 329 329 328 324 329 331 332 332 332 331 330 328 327 327 326 329 328 328 326 327 325 322 322
313 313 314 315 315 314 314 316 323 326 331 331 333 334 332 331 330 330 330 323 327 327 325 323 329 329 329 330 330 329 329 329 328 327 326 328 326 325 326 328 326 323 322
312 313 315 316 317 316 316 316 315 317 323 329 330 331 334 332 331 330 330 329 325 323 328 324 323 327 328 328 329 327 327 328 327 327 327 327 327 326 329 329 327 324 322
312 313 313 316 318 318 318 318 317 317 316 320 327 328 328 333 331 330 329 329 328 326 326 326 323 324 327 328 327 325 324 327 326 325 326 327 327 329 326 327 328 325 323
311 312 313 314 316 317 318 317 317 318 318 316 318 326 326 328 330 330 328 327 326 326 326 324 322 323 328 329 327 325 323 325 325 325 324 324 327 327 327 327 328 326 324
311 312 312 313 313 315 316 316 315 316 318 319 317 320 323 328 329 329 330 328 326 326 325 323 322 325 325 329 329 327 326 324 325 324 323 323 324 326 327 328 326 326 326
308 310 310 310 311 312 312 313 315 315 316 318 321 318 320 322 326 328 329 328 325 324 322 322 322 322 323 323 326 328 328 324 324 325 324 323 323 324 327 327 327 326 326
306 306 305 307 310 311 312 312 313 316 317 317 318 321 319 320 323 326 327 327 327 325 324 324 322 322 323 323 323 327 327 324 322 324 324 323 323 323 324 327 327 327 326
303 303 304 305 306 309 309 310 312 316 317 319 320 321 320 321 325 326 327 327 326 325 324 323 322 322 324 324 323 322 323 324 320 324 324 323 323 323 325 323 327 327 327
299 300 301 301 303 304 307 307 309 313 317 319 320 320 320 320 322 324 325 325 324 324 325 324 324 324 324 324 324 323 323 323 322 324 323 322 322 322 323 325 325 326 326
297 298 299 300 301 302 305 306 307 311 314 317 319 318 319 320 322 324 325 323 324 324 323 323 323 323 323 322 323 324 323 322 322 324 323 323 322 325 323 325 325 325 326
296 297 298 298 299 301 303 304 306 309 312 315 316 318 319 321 324 324 323 323 323 321 321 321 322 323 324 322 321 323 323 322 323 324 323 322 322 322 321 322 324 325 324
294 294 295 294 295 297 299 301 303 307 310 311 314 317 318 320 323 323 322 322 322 323 323 322 323 323 323 319 319 322 323 323 323 324 323 322 321 322 322 322 321 322 322
292 293 294 293 293 295 296 299 300 302 304 307 309 312 314 316 319 321 323 322 322 323 323 324 324 323 323 318 320 322 323 324 323 322 324 323 322 321 322 323 322 321 320
293 294 293 294 293 293 294 296 297 299 300 302 303 304 306 310 316 318 318 320 323 321 323 323 324 323 322 321 321 323 323 323 322 323 323 323 323 322 321 321 322 323 320
289 290 291 292 293 293 294 294 295 296 296 296 297 299 300 302 306 309 313 316 321 321 323 323 323 323 321 321 320 323 322 322 322 322 322 322 323 323 323 323 323 323 323
285 286 286 286 287 289 291 293 294 294 294 295 295 295 295 297 299 302 304 307 316 320 320 320 321 321 320 320 320 320 322 322 322 323 322 322 322 322 322 323 323 323 322
285 285 284 284 284 284 286 288 291 292 293 293 293 293 293 295 296 298 299 302 302 312 311 317 320 321 321 322 321 321 322 322 322 322 322 322 321 321 320 321 322 321 321
283 283 283 283 283 282 282 284 286 288 289 291 292 291 290 291 294 296 298 300 301 302 302 304 307 314 314 317 321 322 322 321 322 321 320 320 320 320 319 319 320 320 319

GFSMA_850_thetae_123.txt.gz
Theta_e
339 337 336 337 338 336 335 336 337 338 338 337 335 334 333 332 331 330 329 329 329 330 332 332 330 331 332 327 329 330 330 331 331 331 331 330 328 327 328 326 324 326 325
339 340 338 338 338 339 338 337 337 338 338 338 337 336 334 334 333 332 331 329 330 330 330 332 331 331 331 332 330 330 330 330 330 331 331 331 329 328 328 327 324 325 325
338 337 337 339 337 338 340 339 336 337 338 339 338 337 336 334 333 333 333 332 330 330 331 331 331 331 331 331 331 331 331 331 330 330 330 330 330 329 328 328 325 324 325
334 334 334 333 336 337 337 337 335 335 335 335 335 336 336 334 334 330 333 333 333 331 330 331 332 332 331 330 331 331 331 330 330 330 329 328 328 329 329 328 326 324 325
333 333 334 334 334 335 338 337 337 336 336 335 335 335 335 336 334 334 327 332 332 334 332 331 331 331 332 332 331 331 331 330 330 329 329 328 327 330 329 328 327 325 325
325 326 328 329 330 331 333 335 336 336 336 335 335 335 335 333 334 330 323 330 330 331 332 331 332 331 331 331 330 331 331 331 329 329 329 328 327 329 329 328 328 326 324
313 314 315 317 320 324 326 328 330 331 333 335 335 332 325 327 328 325 324 324 329 329 330 327 329 330 329 328 329 329 331 331 330 329 328 328 327 327 330 329 327 327 324
312 312 313 313 314 314 314 317 323 327 330 332 334 333 331 328 328 327 326 324 326 327 327 325 322 325 326 330 329 329 329 331 331 329 329 327 327 328 328 329 329 328 325
312 312 313 313 314 315 315 315 315 317 323 330 331 331 330 329 329 328 325 324 327 327 325 322 322 324 324 327 327 328 328 328 331 329 328 327 327 327 329 329 329 328 327
310 311 312 312 314 315 316 316 316 315 315 320 328 332 329 330 330 331 329 328 328 327 325 323 324 324 323 323 325 327 327 328 327 329 329 328 327 326 328 328 327 327 327
309 310 311 312 313 315 316 317 317 317 316 315 317 326 329 330 328 329 329 330 329 328 327 329 328 324 324 324 323 326 327 328 329 326 328 328 327 327 328 327 327 327 325
308 309 310 311 312 312 314 315 315 314 315 316 316 316 323 327 328 326 327 328 328 329 329 329 328 324 324 326 325 323 325 328 329 325 327 328 326 327 327 327 326 325 325
306 307 308 310 311 311 311 312 314 314 314 313 314 317 317 319 324 324 324 326 328 329 329 328 328 327 326 325 325 325 324 329 328 326 325 326 327 326 326 327 327 328 325
302 303 305 306 308 309 309 311 311 312 313 314 313 315 316 318 318 321 323 325 327 326 327 328 327 326 327 326 325 324 323 328 329 328 326 326 326 325 325 325 327 328 328
300 300 301 302 303 304 305 307 309 311 312 314 315 315 315 317 319 319 324 321 324 326 327 326 327 326 326 326 324 323 322 323 323 327 327 326 325 325 324 324 325 326 329
298 299 299 300 301 302 303 304 306 307 309 312 315 316 317 318 319 319 325 323 322 323 325 325 326 325 325 325 324 323 322 322 322 324 327 327 324 325 325 323 323 324 326
297 298 298 298 298 300 302 304 306 306 307 311 313 315 316 317 318 319 320 320 321 322 324 324 325 325 324 322 323 323 322 322 323 323 326 326 323 322 325 323 323 323 324
295 295 295 294 296 297 298 300 302 303 306 309 311 313 314 316 319 319 321 320 321 322 321 323 324 325 323 323 323 323 324 324 324 323 325 324 322 322 325 323 322 322 323
294 294 294 293 292 294 295 296 298 301 302 304 306 308 311 314 317 319 320 322 321 321 321 322 323 323 323 323 323 323 323 323 323 324 323 324 323 323 324 322 322 322 324
294 293 293 293 292 293 293 295 295 297 299 301 302 304 305 309 312 316 319 320 321 321 322 324 323 323 322 321 321 321 323 323 322 321 323 322 322 324 323 322 322 323 322
293 293 294 294 293 292 292 293 294 293 295 297 299 300 301 302 304 307 312 317 318 321 322 322 322 322 322 322 321 322 322 319 321 320 323 322 323 323 322 322 322 322 321
288 287 288 290 292 290 290 293 293 294 294 295 296 297 299 302 303 304 305 306 311 314 319 321 322 323 322 323 322 322 323 320 320 319 323 322 325 323 322 321 322 321 322
285 285 285 285 286 287 288 290 292 292 292 293 293 294 296 297 299 301 302 302 302 305 309 316 318 322 323 323 323 322 321 319 320 321 323 321 323 324 323 322 321 321 322
284 284 284 284 284 284 285 285 288 289 290 291 292 292 292 293 295 296 298 300 300 302 303 306 307 309 318 320 322 321 320 320 321 321 321 322 322 323 324 323 323 322 321
282 282 282 282 282 283 283 284 285 285 286 287 288 289 290 290 292 294 296 297 296 297 298 299 299 299 306 317 321 321 321 320 320 320 322 322 322 322 321 321 323 322 321
281 281 281 281 281 280 281 281 282 282 283 283 284 286 288 288 290 291 292 292 293 293 295 298 299 300 305 309 316 313 319 319 320 320 321 321 321 322 321 322 322 321 321